     2              OBSERVATION DATA    GPS                 RINEX VERSION / TYPE
ASHTORIN 18 - MAY - 99 10:18                                PGM / RUN BY / DATE
                                                            COMMENT
Original Marker Name: cow2                                  COMMENT
Campaign Name: rose canyon fault                            COMMENT
4-Character Station Name: COW2                              COMMENT
6-Character Antenna Code: DMRCHR                            COMMENT
Vertical Measurement Point: BPA                             COMMENT
Vertical Offset to Rinex Ref. Point: -0.0350                COMMENT
Radial Measurement Point: RRP                               COMMENT
Radial Offset to Rinex Ref. Point: 0.0000                   COMMENT
Antenna Height from Field Measurement: 0.8900 m             COMMENT
Additional Antenna Identification Info.:                    COMMENT
JPL Choke Ring                                              COMMENT
Additional Antenna Identification Info.:                    COMMENT
JPL Choke Ring                                              COMMENT
Original XYZ: -2438863.0569 -4779896.6580 3436821.3399      COMMENT
New XYZ position is based on association with SCEC monument COMMENT
E1C8P6R3+0021. Position of that monument is believed to be  COMMENT
valid to within 1 m horizontally; vertical accuracy         COMMENT
should be no worse than 3-times this value.                 COMMENT
                                                            COMMENT
Revised Rinex header created by UCSD GPS archive for        COMMENT
GSAC on 31-Aug-1999 (1999:243) 02:57:54 GMT                 COMMENT
For assistance contact dagnew@ucsd.edu or hjohnson@ucsd.edu COMMENT
                                                            COMMENT
COW2 1998 UCSD SIO IGPP                                     MARKER NAME
                                                            MARKER NUMBER
SJB SCRIPPS INSTITUTION OF OCEANOGRAPHY                     OBSERVER / AGENCY
317 ASHTECH Z12-XII3 1F501D0                                REC # / TYPE / VERS
408 DORNE-MARGOL. TYPE R                                    ANT # / TYPE
 -2438830.0000 -4779884.0000  3436795.0000                  APPROX POSITION XYZ
        0.9250        0.0000        0.0000                  ANTENNA: DELTA H/E/N
     1     1     0                                          WAVELENGTH FACT L1/2
     7    L1    L2    C1    P1    P2    D1    D2            # / TYPES OF OBSERV
    15                                                      INTERVAL
  1999     5    24    15    55   30.000000                  TIME OF FIRST OBS
  1999     5    24    22    38   30.000000                  TIME OF LAST OBS
                                                            END OF HEADER
 99  5 24 15 55 30.0000000  0  5  2  4  7  9  8                      0.000000000
     21969.322 9     10122.21542         0.000           0.0004          0.0004
        -0.000          -0.000
    -14662.460 9     -2986.23542         0.000           0.0004          0.0004
        -0.000          -0.000
     22074.818 9     10702.64146         0.000           0.0004   17646360.8894
        -0.000          -0.000
    -16594.523 9     -8303.16552         0.000           0.0004          0.0005
        -0.000          -0.000
    -22366.725 9     -6543.89742         0.000           0.0004          0.0004
        -0.000          -0.000
 99  5 24 15 55 45.0000000  0  7 16  2  4  7 24  9  8                0.000000000
    -17793.899 8     -7124.85842         0.000           0.0004          0.0004
        -0.000          -0.000
     45258.241 9     28270.08652         0.000           0.0004          0.0005
        -0.000          -0.000
    -39420.68419    -22278.44148         0.000           0.0005   16106533.2344
        -0.000          -0.000
     46663.02819     29862.25947         0.000           0.0005   17651040.2094
        -0.000          -0.000
    -35485.894 9    -14546.30152         0.000           0.0004          0.0005
        -0.000          -0.000
    -35917.395 9    -23153.87152         0.000           0.0004          0.0005
        -0.000          -0.000
    -76899.829 9    -49037.25542         0.000           0.0004          0.0004
        -0.000          -0.000
 99  5 24 15 56  0.0000000  0  7 16  2  4  7 24  9  8                0.000000000
    -43749.172 8    -27349.73242         0.000           0.0004          0.0004
        -0.000          -0.000
     68562.777 9     46431.31452         0.000           0.0004          0.0005
        -0.000          -0.000
    -64080.077 9    -41493.53948  16101832.603    16101832.5634   16101840.7134
        -0.000          -0.000
     71217.745 9     48995.77447  17655704.113    17655703.2314   17655712.7784
        -0.000          -0.000
    -88441.27719    -55806.00252         0.000           0.0005          0.0005
        -0.000          -0.000
    -55157.084 9    -37936.79152         0.000           0.0004          0.0005
        -0.000          -0.000
   -131402.682 9    -91507.28852         0.000           0.0004          0.0005
        -0.000          -0.000
 99  5 24 15 56 15.0000000  0  5  2  4  7  9  8                      0.000000000
     91883.206 9     64605.73552         0.000           0.0004          0.0005
        -0.000          -0.000
    -88594.798 9    -60595.90148  20594054.472    20594054.3934   20594062.5944
        -0.000          -0.000
     95736.253 9     68101.08447  22157257.257    22157255.7314   22157265.3704
        -0.000          -0.000
    -74276.894 9    -52621.30852         0.000           0.0004          0.0005
        -0.000          -0.000
   -185800.580 9   -133895.15144         0.000           0.0004   23508434.5334
        -0.000          -0.000
 99  5 24 15 56 30.0000000  0  5  2  4  7  9  8                      0.000374691
    115251.755 9     82817.59652         0.000           0.0004          0.0005
        -0.000          -0.000
   -113028.239 9    -79634.92549  20589405.350    20589404.8924   20589413.0794
        -0.000          -0.000
    120254.377 9     87206.09647  22161922.659    22161921.4314   22161931.0224
        -0.000          -0.000
    -93330.129 9    -67248.96252         0.000           0.0004          0.0005
        -0.000          -0.000
   -240219.10019   -176299.16845         0.000           0.0005   23498079.0914
        -0.000          -0.000
 99  5 24 15 56 45.0000000  0  7 16  2  4  7 24  9  8                0.000370596
   -121282.122 8    -87763.07652         0.000           0.0004          0.0005
        -0.000          -0.000
    138632.786 9    101037.03345         0.000           0.0004   22880694.3774
        -0.000          -0.000
   -137368.974 9    -98601.71549  20584772.873    20584772.9584   20584781.1504
        -0.000          -0.000
    144737.470 9    106283.81348  22166581.214    22166580.4664   22166590.0564
        -0.000          -0.000
   -247042.003 9   -179390.56347  22183666.090    22183665.5484   22183676.5124
        -0.000          -0.000
   -112308.091 9    -81810.52352         0.000           0.0004          0.0005
        -0.000          -0.000
   -294615.496 9   -218685.96645  23487718.651    23487718.2614   23487727.6454
        -0.000          -0.000
 99  5 24 15 57  0.0000000  0  7 16  2  4  7 24  9  8                0.000366440
   -147060.475 8   -107849.30152         0.000           0.0004          0.0005
        -0.000          -0.000
    162023.70819    119263.68146  22885135.289    22885134.6715   22885145.8794
        -0.000          -0.000
   -161620.038 9   -117498.62849  20580158.231    20580158.1234   20580166.3274
        -0.000          -0.000
    169181.414 9    125331.01948  22171233.085    22171232.0564   22171241.6394
        -0.000          -0.000
   -299882.882 9   -220565.22447  22173610.632    22173610.2694   22173621.2064
        -0.000          -0.000
   -131212.146 9     -6170.76446         0.000           0.0004   21301406.0334
        -0.000          -0.000
   -348997.406 9   -261061.47646  23477370.480    23477369.3954   23477379.1284
        -0.000          -0.000
 99  5 24 15 57 15.0000000  0  8 16  2  5  4  7 24  9  8             0.000362256
   -172807.030 8     -3704.04242         0.000           0.0004          0.0004
        -0.000          -0.000
    185423.203 9    137497.00546  22889588.340    22889587.1594   22889598.9134
        -0.000          -0.000
   -216120.958 9   -132285.00845  23636397.883    23636395.8344   23636406.4904
        -0.000          -0.000
   -185784.487 9   -136328.04949  20575559.938    20575559.8264   20575568.0214
        -0.000          -0.000
    193584.864 9    144346.68048  22175876.958    22175875.8904   22175885.4654
        -0.000          -0.000
   -352710.435 9   -261729.50347  22163558.306    22163557.5784   22163568.4904
        -0.000          -0.000
   -150046.97219    -20847.26448         0.000           0.0005   21297821.0234
        -0.000          -0.000
   -403369.383 9   -303429.22846  23467024.182    23467023.1684   23467032.7504
        -0.000          -0.000
 99  5 24 15 57 30.0000000  3  2
COW2                                                        MARKER NAME
--> THIS IS THE START OF A NEW SITE <---                    COMMENT
 99  5 24 15 57 30.0000000  0  8 16  2  5  4  7 24  9  8            -0.000000005
   -762555.244 8   -463248.05342         0.000           0.0004          0.0004
        -0.000          -0.000
   -355202.367 9   -283769.72346  22786710.797    22786709.7194   22786721.4354
        -0.000          -0.000
   -828084.616 9   -609139.79146  23519944.773    23519943.5224   23519953.9334
        -0.000          -0.000
   -773898.261 9   -594598.50549  20463645.686    20463645.5134   20463653.6804
        -0.000          -0.000
   -346081.171 9   -276172.32747  22073182.022    22073180.8654   22073190.4564
        -0.000          -0.000
   -969558.953 9   -742390.64247  22046176.222    22046175.2304   22046186.1184
        -0.000          -0.000
   -732850.020 9   -474979.50948  21186909.823    21186909.3684   21186917.3024
        -0.000          -0.000
  -1021768.336 9   -785298.52046  23349346.657    23349345.3254   23349355.5004
        -0.000          -0.000
 99  5 24 15 57 45.0000000  0  8 16  2  5  4  7 24  9  8            -0.000000019
   -781545.552 8   -478045.63642         0.000           0.0004          0.0004
        -0.000          -0.000
   -325096.529 9   -260310.67746  22792439.749    22792438.7734   22792450.4484
        -0.000          -0.000
   -869388.268 9   -641324.42346  23512084.991    23512084.0234   23512093.9154
        -0.000          -0.000
   -791208.034 9   -608086.62149  20460351.752    20460351.5534   20460359.7114
        -0.000          -0.000
   -315059.844 9   -251999.88547  22079085.260    22079084.0684   22079093.6544
        -0.000          -0.000
  -1015666.534 9   -778318.58347  22037402.200    22037401.2854   22037412.1694
        -0.000          -0.000
   -744863.911 9   -484340.98048  21184623.661    21184623.1214   21184631.1484
        -0.000          -0.000
  -1069435.650 9   -822441.85046  23340275.816    23340274.7144   23340284.7884
        -0.000          -0.000
 99  5 24 15 58  0.0000000  0  8 16  2  5  4  7 24  9  8            -0.000000034
   -800450.253 8   -492776.54452         0.000           0.0004          0.0005
        -0.000          -0.000
   -294930.122 9   -236804.44447  22798180.207    22798179.2594   22798190.9034
        -0.000          -0.000
   -910701.331 9   -673516.41246  23504224.805    23504222.4954   23504232.3974
        -0.000          -0.000
   -808386.838 9   -621472.68249  20457082.744    20457082.5664   20457090.6914
        -0.000          -0.000
   -284023.929 9   -227816.07747  22084991.177    22084990.0294   22084999.5864
        -0.000          -0.000
  -1061703.025 9   -814191.12947  22028641.640    22028640.8394   22028651.6934
        -0.000          -0.000
   -756755.527 9   -493607.17448  21182360.760    21182360.2074   21182368.2314
        -0.000          -0.000
  -1117043.634 9   -859538.96346  23331216.445    23331215.2964   23331225.3394
        -0.000          -0.000
 99  5 24 15 58 15.0000000  0  8 16  2  5  4  7 24  9  8            -0.000000052
   -819260.99818   -507434.28444         0.000           0.0005   24964580.3324
        -0.000          -0.000
   -264698.670 9   -213247.50347  22803933.057    22803932.1664   22803943.7424
        -0.000          -0.000
   -952016.730 9   -705710.20646  23496362.440    23496360.4484   23496370.3454
        -0.000          -0.000
   -825426.248 9   -634750.12849  20453840.235    20453840.0714   20453848.1844
        -0.000          -0.000
   -252966.295 9   -203615.33647  22090901.232    22090900.1484   22090909.6534
        -0.000          -0.000
  -1107660.243 9   -850001.89747  22019896.177    22019895.4844   22019906.2654
        -0.000          -0.000
   -768513.924 9   -502769.56748  21180123.170    21180122.6464   21180130.6804
        -0.000          -0.000
  -1164582.599 9   -896582.30146  23322170.147    23322168.9194   23322178.9794
        -0.000          -0.000
 99  5 24 15 58 30.0000000  0  8 16  2  5  4  7 24  9  8            -0.000000073
   -837978.32018   -522019.20945         0.000           0.0005   24961017.4074
        -0.000          -0.000
   -234402.391 9   -189640.06647  22809698.313    22809697.4054   22809708.9084
        -0.000          -0.000
   -993333.653 9   -737905.19946  23488499.718    23488497.9914   23488507.9124
        -0.000          -0.000
   -842324.762 9   -647917.78449  20450624.606    20450624.4174   20450632.5344
        -0.000          -0.000
   -221886.606 9   -179397.41747  22096815.471    22096814.4244   22096823.9154
        -0.000          -0.000
  -1153537.043 9   -885750.02447  22011166.109    22011165.4674   22011176.1874
        -0.000          -0.000
   -780134.625 9   -511824.65949  21177911.841    21177911.3074   21177919.3474
        -0.000          -0.000
  -1212053.620 9   -933572.68946  23313136.680    23313135.4724   23313145.5424
        -0.000          -0.000
 99  5 24 15 58 45.0000000  0  9 16  2  5 26  4  7 24  9  8         -0.000000090
   -856597.280 8   -536527.45645  24957464.510    24957462.8684   24957475.2494
        -0.000          -0.000
   -204034.136 9   -165976.53547  22815477.198    22815476.3244   22815487.8154
        -0.000          -0.000
  -1034642.732 9   -770094.07446  23480638.612    23480637.1834   23480647.0214
        -0.000          -0.000
   -390925.93219   -314879.91645         0.000           0.0005   24852236.5234
        -0.000          -0.000
   -859075.373 9   -660970.18949  20447437.075    20447436.8744   20447444.9874
        -0.000          -0.000
   -190778.742 9   -155157.53847  22102735.109    22102734.0864   22102743.5454
        -0.000          -0.000
  -1199325.752 9   -921429.49347  22002452.802    22002452.1794   22002462.8474
        -0.000          -0.000
   -791605.796 9   -520763.23449  21175728.923    21175728.3884   21175736.4524
        -0.000          -0.000
  -1259447.001 9   -970502.57046  23304117.972    23304116.8264   23304126.9064
        -0.000          -0.000
 99  5 24 15 59  0.0000000  0  9 16  2  5 26  4  7 24  9  8         -0.000000107
   -875120.579 8   -550961.13845  24953939.511    24953936.7694   24953950.1694
        -0.000          -0.000
   -173592.530 9   -142255.85147  22821270.059    22821269.1844   22821280.6764
        -0.000          -0.000
  -1075944.961 9   -802277.60546  23472778.922    23472777.6054   23472787.4244
        -0.000          -0.000
   -355159.046 8   -287009.66745  24859030.006    24859029.3724   24859043.2234
        -0.000          -0.000
   -875677.818 9   -673907.14049  20444277.735    20444277.5314   20444285.6464
        -0.000          -0.000
   -159644.908 9   -130897.42847  22108659.719    22108658.6944   22108668.0994
        -0.000          -0.000
  -1245030.119 9   -957043.24247  21993755.540    21993754.9204   21993765.5524
        -0.000          -0.000
   -802926.350 9   -529584.44649  21173574.695    21173574.1704   21173582.2464
        -0.000          -0.000
  -1306761.797 9  -1007371.22146  23295114.197    23295113.1194   23295123.1524
        -0.000          -0.000
 99  5 24 15 59 15.0000000  0  9 16  2  5 26  4  7 24  9  8         -0.000000126
   -893553.273 8   -565324.23345  24950431.752    24950431.5964   24950442.1814
        -0.000          -0.000
   -143083.704 9   -118482.78847  22827075.767    22827074.8844   22827086.3364
        -0.000          -0.000
  -1117246.887 9   -834460.90046  23464919.358    23464918.0954   23464928.0444
        -0.000          -0.000
   -319399.717 8   -259145.32145  24865834.934    24865836.3104   24865847.8384
        -0.000          -0.000
   -892138.421 9   -686733.56649  20441145.337    20441145.1604   20441153.2674
        -0.000          -0.000
   -128489.072 9   -106620.17247  22114588.489    22114587.4694   22114596.8564
        -0.000          -0.000
  -1290656.539 9   -992596.25547  21985073.119    21985072.5314   21985083.1544
        -0.000          -0.000
   -814102.782 9   -538293.36049  21171447.878    21171447.3524   21171455.4554
        -0.000          -0.000
  -1354003.534 9  -1044182.94946  23286124.319    23286123.3224   23286133.3584
        -0.000          -0.000
 99  5 24 15 59 30.0000000  0  9 16  2  5 26  4  7 24  9  8         -0.000000142
   -911886.684 8   -579609.96645  24946942.937    24946941.8024   24946953.7144
        -0.000          -0.000
   -112500.832 9    -94652.02547  22832895.561    22832894.7064   22832906.0794
        -0.000          -0.000
  -1158538.807 9   -866636.40046  23457061.715    23457060.5054   23457070.4854
        -0.000          -0.000
   -283641.012 8   -231281.46745  24872639.474    24872639.8904   24872652.6154
        -0.000          -0.000
   -908450.084 9   -699443.93849  20438041.339    20438041.1784   20438049.2984
        -0.000          -0.000
    -97299.689 9    -82316.77047  22120523.650    22120522.6214   22120532.0044
        -0.000          -0.000
  -1336195.356 9  -1028081.00547  21976407.366    21976406.7804   21976417.3444
        -0.000          -0.000
   -825126.346 9   -546883.15549  21169350.174    21169349.6644   21169357.7524
        -0.000          -0.000
  -1401161.251 9  -1080929.20846  23277150.378    23277149.4554   23277159.5134
        -0.000          -0.000
 99  5 24 15 59 45.0000000  0  9 16  2  5 26  4  7 24  9  8         -0.000000157
   -930126.170 8   -593822.52245  24943471.930    24943470.4754   24943482.8904
        -0.000          -0.000
    -81846.257 9    -70765.38647  22838728.995    22838728.1174   22838739.5064
        -0.000          -0.000
  -1199823.148 9   -898805.99346  23449205.466    23449204.3434   23449214.3414
        -0.000          -0.000
   -247889.045 8   -203422.85645  24879443.062    24879442.5004   24879455.7084
        -0.000          -0.000
   -924616.176 9   -712040.87349  20434965.069    20434964.8984   20434973.0194
        -0.000          -0.000
    -66083.640 9    -57992.59247  22126463.879    22126462.8784   22126472.2474
        -0.000          -0.000
  -1381651.580 9  -1063501.39447  21967757.323    21967756.7484   21967767.3054
        -0.000          -0.000
   -835999.686 9   -555355.89049  21167281.067    21167280.5564   21167288.6534
        -0.000          -0.000
  -1448239.080 9  -1117613.20646  23268191.622    23268190.7674   23268200.7914
        -0.000          -0.000
 99  5 24 16  0  0.0000000  0  9 16  2  5 26  4  7 24  9  8         -0.000000167
   -948267.542 8   -607958.61845  24940019.652    24940018.0754   24940030.6874
        -0.000          -0.000
    -51114.626 9    -46818.70647  22844577.103    22844576.2394   22844587.6124
        -0.000          -0.000
  -1241093.275 9   -930964.51746  23441351.953    23441350.8914   23441360.8814
        -0.000          -0.000
   -212140.015 8   -175566.51645  24886246.024    24886246.1204   24886258.5154
        -0.000          -0.000
   -940629.575 9   -724518.83249  20431917.819    20431917.6284   20431925.7594
        -0.000          -0.000
    -34840.725 9    -33647.48247  22132409.238    22132408.2624   22132417.6244
        -0.000          -0.000
  -1427020.808 9  -1098854.00647  21959123.830    21959123.2754   21959133.7854
        -0.000          -0.000
   -846715.400 9   -563705.80149  21165241.930    21165241.4284   21165249.5274
        -0.000          -0.000
  -1495229.155 9  -1154228.83246  23259249.658    23259248.8474   23259258.9094
        -0.000          -0.000
 99  5 24 16  0 15.0000000  0  9 16  2  5 26  4  7 24  9  8         -0.000000174
   -966311.875 8   -622019.11045  24936585.947    24936584.3124   24936597.0594
        -0.000          -0.000
    -20306.882 9    -22812.73047  22850439.660    22850438.8304   22850450.1764
        -0.000          -0.000
  -1282350.455 9   -963112.94346  23433500.910    23433499.9064   23433509.8884
        -0.000          -0.000
   -176398.150 8   -147715.76445  24893047.564    24893047.3224   24893059.8554
        -0.000          -0.000
   -956486.078 9   -736874.53749  20428900.432    20428900.2474   20428908.3704
        -0.000          -0.000
     -3574.061 9     -9283.87247  22138359.117    22138358.1534   22138367.4804
        -0.000          -0.000
  -1472304.276 9  -1134139.79347  21950506.694    21950506.1414   21950516.5924
        -0.000          -0.000
   -857275.773 9   -571934.67049  21163232.395    21163231.8794   21163239.9754
        -0.000          -0.000
  -1542130.472 9  -1190775.28846  23250324.636    23250323.8264   23250333.9184
        -0.000          -0.000
 99  5 24 16  0 30.0000000  0  9 16  2  5 26  4  7 24  9  8         -0.000000176
   -984260.508 8   -636005.03645  24933170.454    24933169.0154   24933181.7854
        -0.000          -0.000
     10577.603 9      1253.06147  22856316.804    22856315.9514   22856327.3154
        -0.000          -0.000
  -1323597.293 9   -995253.31946  23425651.901    23425650.9094   23425660.9254
        -0.000          -0.000
   -140668.954 8   -119874.89145  24899846.583    24899846.4144   24899858.9714
        -0.000          -0.000
   -972187.063 9   -749109.04949  20425912.626    20425912.4454   20425920.5464
        -0.000          -0.000
     27715.172 9     15097.32947  22144313.318    22144312.3514   22144321.6654
        -0.000          -0.000
  -1517502.482 9  -1169359.14047  21941905.755    21941905.2254   21941915.6304
        -0.000          -0.000
   -867685.069 9   -580045.81249  21161251.540    21161251.0114   21161259.1134
        -0.000          -0.000
  -1588943.018 9  -1227252.58346  23241416.546    23241415.6834   23241425.7824
        -0.000          -0.000
 99  5 24 16  0 45.0000000  0  9 16  2  5 26  4  7 24  9  8         -0.000000174
  -1002117.289 8   -649919.38545  24929772.421    24929771.0384   24929783.7904
        -0.000          -0.000
     41538.296 9     25378.23147  22862208.501    22862207.6534   22862218.9524
        -0.000          -0.000
  -1364836.390 9  -1027387.66346  23417804.326    23417803.3924   23417813.3274
        -0.000          -0.000
   -104958.727 8    -92048.81445  24906642.006    24906641.8614   24906654.5154
        -0.000          -0.000
   -987737.609 9   -761226.34649  20422953.488    20422953.3034   20422961.3844
        -0.000          -0.000
     59024.479 9     39494.17347  22150271.351    22150270.3674   22150279.6654
        -0.000          -0.000
  -1562617.935 9  -1204513.99647  21933320.562    21933320.0294   21933330.4544
        -0.000          -0.000
   -877947.470 9   -588042.49349  21159298.655    21159298.1534   21159306.2434
        -0.000          -0.000
  -1635669.687 9  -1263662.95046  23232524.772    23232523.8584   23232533.9874
        -0.000          -0.000
 99  5 24 16  1  0.0000000  0  9 16  2  5 26  4  7 24  9  8         -0.000000170
  -1019885.118 8   -663764.40945  24926391.221    24926389.8804   24926402.5704
        -0.000          -0.000
     72570.945 9     49559.46547  22868113.853    22868113.0054   22868124.3114
        -0.000          -0.000
  -1406072.717 9  -1059519.84446  23409957.321    23409956.3544   23409966.2894
        -0.000          -0.000
    -69273.492 8    -64242.19645  24913432.756    24913432.6694   24913445.2314
        -0.000          -0.000
  -1003140.765 9   -773228.79349  20420022.386    20420022.2034   20420030.2754
        -0.000          -0.000
     90350.154 9     63903.77047  22156232.457    22156231.4804   22156240.7734
        -0.000          -0.000
  -1607657.398 9  -1239609.64547  21924749.791    21924749.2524   21924759.7024
        -0.000          -0.000
   -888070.300 9   -595930.42149  21157372.369    21157371.8664   21157379.9424
        -0.000          -0.000
  -1682312.975 9  -1300008.34346  23223648.837    23223647.9634   23223657.9974
        -0.000          -0.000
 99  5 24 16  1 15.0000000  0  9 16  2  5 26  4  7 24  9  8         -0.000000166
  -1037564.349 8   -677540.40045  24923026.904    24923025.6384   24923038.1644
        -0.000          -0.000
    103669.599 9     73792.12347  22874031.780    22874030.9384   22874042.2554
        -0.000          -0.000
  -1447309.557 9  -1091652.42546  23402110.193    23402109.2474   23402119.1324
        -0.000          -0.000
    -33617.455 8    -36458.32545  24920217.930    24920217.7534   24920230.4774
        -0.000          -0.000
  -1018399.189 9   -785118.45649  20417118.820    20417118.6434   20417126.6884
        -0.000          -0.000
    121691.163 9     88325.32047  22162196.472    22162195.5014   22162204.8114
        -0.000          -0.000
  -1652624.617 9  -1274648.99547  21916192.802    21916192.2764   21916202.7374
        -0.000          -0.000
   -898061.073 9   -603715.43949  21155471.210    21155470.7124   21155478.7784
        -0.000          -0.000
  -1728877.201 9  -1336292.14046  23214788.034    23214787.0874   23214797.1284
        -0.000          -0.000
 99  5 24 16  1 30.0000000  0  9 16  2  5 26  4  7 24  9  8         -0.000000159
  -1055150.492 8   -691243.87145  24919680.358    24919679.1654   24919691.7224
        -0.000          -0.000
    134837.299 9     98078.58647  22879962.821    22879961.9924   22879973.3494
        -0.000          -0.000
  -1488539.194 9  -1123779.40046  23394264.443    23394263.5184   23394273.4514
        -0.000          -0.000
      2015.718 8     -8692.27945  24926998.725    24926998.4184   24927011.2454
        -0.000          -0.000
  -1033507.147 9   -796890.88149  20414243.864    20414243.6934   20414251.7164
        -0.000          -0.000
    153052.839 9    112762.97147  22168164.392    22168163.4304   22168172.7494
        -0.000          -0.000
  -1697512.946 9  -1309626.87747  21907650.781    21907650.2594   21907660.7604
        -0.000          -0.000
   -907914.093 9   -611393.12549  21153596.258    21153595.7704   21153603.8314
        -0.000          -0.000
  -1775355.275 9  -1372508.80946  23205943.603    23205942.5814   23205952.5974
        -0.000          -0.000
 99  5 24 16  1 45.0000000  0  9 16  2  5 26  4  7 24  9  8         -0.000000149
  -1072647.083 8   -704877.55245  24916350.860    24916349.6204   24916362.2764
        -0.000          -0.000
    166071.845 9    122417.14447  22885906.596    22885905.7674   22885917.1604
        -0.000          -0.000
  -1529764.665 9  -1155903.11846  23386419.473    23386418.5804   23386428.4774
        -0.000          -0.000
     37625.677 8     19055.68145  24933775.112    24933774.9364   24933787.8734
        -0.000          -0.000
  -1048466.223 9   -808547.29749  20411397.245    20411397.0844   20411405.0774
        -0.000          -0.000
    184426.920 9    137210.28847  22174134.699    22174133.7564   22174143.0964
        -0.000          -0.000
  -1742324.137 9  -1344544.65548  21899123.486    21899122.9634   21899133.4684
        -0.000          -0.000
   -917633.865 9   -618966.98049  21151746.646    21151746.1414   21151754.2044
        -0.000          -0.000
  -1821748.787 9  -1408659.56546  23197115.217    23197114.2224   23197124.1314
        -0.000          -0.000
 99  5 24 16  2  0.0000000  0  9 16  2  5 26  4  7 24  9  8         -0.000000138
  -1090052.328 8   -718440.06645  24913038.702    24913037.7324   24913050.2364
        -0.000          -0.000
    197372.543 9    146807.24547  22891863.000    22891862.1634   22891873.5504
        -0.000          -0.000
  -1570986.775 9  -1188024.22746  23378575.180    23378574.2704   23378584.1834
        -0.000          -0.000
     73212.392 8     46785.50145  24940546.993    24940546.9384   24940560.0634
        -0.000          -0.000
  -1063274.830 9   -820086.45949  20408579.275    20408579.1054   20408587.0784
        -0.000          -0.000
    215812.997 9    161666.95247  22180107.246    22180106.3324   22180115.6714
        -0.000          -0.000
  -1787056.317 9  -1379400.86448  21890611.273    21890610.7454   21890621.2454
        -0.000          -0.000
   -927221.089 9   -626437.55049  21149922.271    21149921.7844   21149929.8534
        -0.000          -0.000
  -1868058.310 9  -1444744.89046  23188302.792    23188301.7734   23188311.7784
        -0.000          -0.000
 99  5 24 16  2 15.0000000  0  9 16  2  5 26  4  7 24  9  8         -0.000000125
  -1107365.620 8   -731930.92245  24909744.114    24909743.2344   24909755.6334
        -0.000          -0.000
    228737.211 9    171247.19847  22897831.533    22897830.6924   22897842.0854
        -0.000          -0.000
  -1612205.701 9  -1220142.85346  23370731.445    23370730.5504   23370740.4134
        -0.000          -0.000
    108776.273 8     74497.54945  24947314.631    24947314.4834   24947327.4824
        -0.000          -0.000
  -1077932.679 9   -831508.14949  20405789.989    20405789.8164   20405797.7784
        -0.000          -0.000
    247214.731 9    186135.81547  22186082.809    22186081.8664   22186091.2694
        -0.000          -0.000
  -1831707.468 9  -1414193.93448  21882114.430    21882113.9074   21882124.3884
        -0.000          -0.000
   -936677.482 9   -633806.17649  21148122.762    21148122.2804   21148130.3894
        -0.000          -0.000
  -1914283.168 9  -1480764.25846  23179506.480    23179505.4624   23179515.4134
        -0.000          -0.000
 99  5 24 16  2 30.0000000  0  9 16  2  5 26  4  7 24  9  8         -0.000000111
  -1124586.305 8   -745349.62545  24906467.191    24906466.1734   24906478.6964
        -0.000          -0.000
    260164.535 9    195735.96447  22903812.035    22903811.1714   22903822.5764
        -0.000          -0.000
  -1653422.049 9  -1252259.47046  23362888.239    23362887.3294   23362897.2064
        -0.000          -0.000
    144317.408 8    102191.89145  24954077.949    24954077.7624   24954090.8274
        -0.000          -0.000
  -1092442.367 9   -842814.38549  20403028.853    20403028.6974   20403036.6674
        -0.000          -0.000
    278636.655 9    210620.41047  22192062.223    22192061.2864   22192070.6904
        -0.000          -0.000
  -1876278.299 9  -1448924.41448  21873632.870    21873632.3504   21873642.8474
        -0.000          -0.000
   -946005.073 9   -641074.43449  21146347.797    21146347.3184   21146355.4394
        -0.000          -0.000
  -1960424.657 9  -1516718.65146  23170726.008    23170725.0214   23170734.9614
        -0.000          -0.000
 99  5 24 16  2 45.0000000  0  9 16  2  5 26  4  7 24  9  8         -0.000000100
  -1141716.660 8   -758697.93245  24903207.335    24903206.3694   24903218.9854
        -0.000          -0.000
    291651.389 9    220271.12547  22909803.865    22909803.0134   22909814.3804
        -0.000          -0.000
  -1694637.515 9  -1284375.38746  23355045.177    23355044.2504   23355054.0314
        -0.000          -0.000
    179835.128 8    129867.96945  24960836.756    24960836.4834   24960849.7124
        -0.000          -0.000
  -1106807.681 9   -854008.12349  20400295.257    20400295.1004   20400303.0734
        -0.000          -0.000
    310078.544 9    235120.56347  22198045.449    22198044.4744   22198053.9264
        -0.000          -0.000
  -1920772.079 9  -1483594.85948  21865165.918    21865165.4114   21865175.9254
        -0.000          -0.000
   -955204.632 9   -648242.93149  21144597.202    21144596.7204   21144604.8564
        -0.000          -0.000
  -2006487.981 9  -1552612.12446  23161960.368    23161959.4394   23161969.3714
        -0.000          -0.000
 99  5 24 16  3  0.0000000  0  9 16  2  5 26  4  7 24  9  8         -0.000000089
  -1158747.681 8   -771968.84845  24899966.376    24899965.5424   24899977.9774
        -0.000          -0.000
    323201.279 9    244855.39747  22915807.681    22915806.8264   22915818.1904
        -0.000          -0.000
  -1735844.418 9  -1316484.64646  23347203.730    23347202.8284   23347212.6144
        -0.000          -0.000
    215338.247 8    157532.67945  24967592.835    24967592.4264   24967605.5454
        -0.000          -0.000
  -1121020.195 9   -865082.79949  20397590.698    20397590.5424   20397598.5204
        -0.000          -0.000
    341548.059 9    259642.24547  22204033.891    22204032.9484   22204042.3934
        -0.000          -0.000
  -1965181.616 9  -1518199.65547  21856715.029    21856714.5124   21856725.0704
        -0.000          -0.000
   -964269.561 9   -655306.51649  21142872.248    21142871.7444   21142879.8574
        -0.000          -0.000
  -2052467.561 9  -1588440.34446  23153210.749    23153209.8864   23153219.8334
        -0.000          -0.000
 99  5 24 16  3 15.0000000  0  9 16  2  5 26  4  7 24  9  8         -0.000000083
  -1175684.127 8   -785166.07845  24896743.603    24896742.7234   24896755.2504
        -0.000          -0.000
    354807.786 9    269483.78547  22921822.290    22921821.4034   22921832.7734
        -0.000          -0.000
  -1777045.231 9  -1348589.15046  23339363.495    23339362.5864   23339372.4044
        -0.000          -0.000
    250825.299 8    185184.88645  24974345.899    24974345.5794   24974358.8344
        -0.000          -0.000
  -1135082.289 9   -876040.26449  20394914.817    20394914.6544   20394922.6084
        -0.000          -0.000
    373041.331 9    284182.43947  22210026.840    22210025.9294   22210035.3974
        -0.000          -0.000
  -2009509.671 9  -1552740.96147  21848279.664    21848279.1414   21848289.6924
        -0.000          -0.000
   -973202.498 9   -662267.25249  21141172.414    21141171.8714   21141180.0014
        -0.000          -0.000
  -2098368.817 9  -1624207.53746  23144476.110    23144475.2334   23144485.1354
        -0.000          -0.000
 99  5 24 16  3 30.0000000  0  9 16  2  5 26  4  7 24  9  8         -0.000000080
  -1192527.013 8   -798290.40545  24893538.617    24893537.6124   24893550.2284
        -0.000          -0.000
    386471.686 9    294156.89647  22927847.821    22927846.9114   22927858.2974
        -0.000          -0.000
  -1818239.365 9  -1380688.45446  23331524.497    23331523.6024   23331533.3414
        -0.000          -0.000
    286297.675 8    212825.63145  24981096.128    24981095.8774   24981109.2104
        -0.000          -0.000
  -1148995.913 9   -886882.04149  20392267.160    20392266.9874   20392274.9294
        -0.000          -0.000
    404554.378 9    308738.04047  22216023.573    22216022.6774   22216032.1694
        -0.000          -0.000
  -2053753.352 9  -1587216.52548  21839860.329    21839859.8404   21839870.3444
        -0.000          -0.000
   -982001.466 9   -669123.59749  21139498.006    21139497.4904   21139505.6344
        -0.000          -0.000
  -2144191.077 9  -1659913.18846  23135756.503    23135755.5604   23135765.4234
        -0.000          -0.000
 99  5 24 16  3 45.0000000  0  9 16  2  5 26  4  7 24  9  8         -0.000000077
  -1209270.892 8   -811337.59045  24890352.512    24890351.4484   24890363.9344
        -0.000          -0.000
    418201.519 9    318881.38347  22933885.869    22933884.9524   22933896.3194
        -0.000          -0.000
  -1859420.153 9  -1412777.35646  23323688.045    23323687.1174   23323696.8294
        -0.000          -0.000
    321764.689 8    240462.21545  24987845.350    24987845.1644   24987858.1954
        -0.000          -0.000
  -1162754.481 9   -897602.99549  20389648.999    20389648.8304   20389656.7474
        -0.000          -0.000
    436092.008 9    333312.79447  22222025.006    22222024.1134   22222033.6134
        -0.000          -0.000
  -2097904.282 9  -1621619.81948  21831458.679    21831458.2064   21831468.6614
        -0.000          -0.000
   -990656.726 9   -675867.96349  21137850.930    21137850.4604   21137858.5794
        -0.000          -0.000
  -2189929.508 9  -1695553.50646  23127052.810    23127051.8454   23127061.6924
        -0.000          -0.000
 99  5 24 16  4  0.0000000  0  9 16  2  5 26  4  7 24  9  8         -0.000000074
  -1225912.977 8   -824305.44245  24887185.614    24887184.5904   24887196.9634
        -0.000          -0.000
    449998.764 9    343658.40246  22939936.747    22939935.8334   22939947.1884
        -0.000          -0.000
  -1900588.265 9  -1444856.37946  23315853.993    23315853.0914   23315862.8154
        -0.000          -0.000
    357227.169 8    268095.23145  24994593.722    24994593.4344   24994606.4384
        -0.000          -0.000
  -1176357.678 9   -908202.87749  20387060.441    20387060.2724   20387068.1584
        -0.000          -0.000
    467656.237 9    357908.27947  22228031.553    22228030.6344   22228040.1334
        -0.000          -0.000
  -2141961.587 9  -1655950.16048  21823074.873    21823074.4004   21823084.8094
        -0.000          -0.000
   -999165.787 9   -682498.40349  21136231.780    21136231.3014   21136239.4044
        -0.000          -0.000
  -2235585.385 9  -1731129.50646  23118364.834    23118363.8704   23118373.6254
        -0.000          -0.000
 99  5 24 16  4 15.0000000  0  9 16  2  5 26  4  7 24  9  8         -0.000000078
  -1242460.785 8   -837199.83445  24884036.711    24884035.6514   24884047.9934
        -0.000          -0.000
    481854.296 9    368480.83346  22945998.737    22945997.8164   22946009.1264
        -0.000          -0.000
  -1941750.082 9  -1476930.49946  23308021.157    23308020.2544   23308029.9164
        -0.000          -0.000
    392675.312 8    295717.10645  25001339.384    25001339.1724   25001352.2154
        -0.000          -0.000
  -1189813.015 9   -918687.54549  20384500.009    20384499.8144   20384507.6964
        -0.000          -0.000
    499240.162 9    382519.10547  22234041.846    22234040.9344   22234050.4154
        -0.000          -0.000
  -2185935.188 9  -1690215.27448  21814706.979    21814706.4934   21814716.8724
        -0.000          -0.000
  -1007536.160 9   -689020.77749  21134638.995    21134638.4844   21134646.5784
        -0.000          -0.000
  -2281167.027 9  -1766647.65646  23109690.949    23109689.9354   23109699.6014
        -0.000          -0.000
 99  5 24 16  4 30.0000000  0  9 16  2  5 26  4  7 24  9  8         -0.000000082
  -1258909.610 8   -850017.10645  24880906.652    24880905.5874   24880917.9944
        -0.000          -0.000
    513774.107 9    393353.35446  22952072.963    22952072.0214   22952083.3494
        -0.000          -0.000
  -1982899.302 9  -1508994.79946  23300190.719    23300189.7944   23300199.4814
        -0.000          -0.000
    428115.714 8    323332.94445  25008083.543    25008083.4254   25008096.4024
        -0.000          -0.000
  -1203117.447 9   -929054.62349  20381968.225    20381968.0374   20381975.9054
        -0.000          -0.000
    530845.253 9    407146.43147  22240056.155    22240055.2204   22240064.6924
        -0.000          -0.000
  -2229820.031 9  -1724411.22447  21806355.969    21806355.4644   21806365.8554
        -0.000          -0.000
  -1015762.797 9   -695431.14949  21133073.554    21133073.0484   21133081.1044
        -0.000          -0.000
  -2326665.767 9  -1802101.20446  23101032.774    23101031.8184   23101041.4264
        -0.000          -0.000
 99  5 24 16  4 45.0000000  0  9 16  2  5 26  4  7 24  9  8         -0.000000089
  -1275260.687 8   -862758.18645  24877795.137    24877794.0814   24877806.4964
        -0.000          -0.000
    545756.949 9    418274.98646  22958159.122    22958158.2174   22958169.5594
        -0.000          -0.000
  -2024038.661 9  -1541051.41446  23292362.127    23292361.1744   23292370.8654
        -0.000          -0.000
    463547.067 8    350941.73545  25014825.965    25014825.6574   25014838.7454
        -0.000          -0.000
  -1216272.458 9   -939305.27149  20379464.893    20379464.7204   20379472.6024
        -0.000          -0.000
    562466.581 9    431786.40547  22246073.553    22246072.6144   22246082.0704
        -0.000          -0.000
  -2273617.513 9  -1758539.10248  21798021.572    21798021.0344   21798031.4434
        -0.000          -0.000
  -1023845.201 9   -701729.13249  21131535.509    21131535.0134   21131543.0484
        -0.000          -0.000
  -2372081.806 9  -1837490.30946  23092390.363    23092389.4714   23092399.0664
        -0.000          -0.000
 99  5 24 16  5  0.0000000  0  9 16  2  5 26  4  7 24  9  8         -0.000000093
  -1291510.782 8   -875420.58745  24874702.754    24874701.7534   24874714.2244
        -0.000          -0.000
    577808.321 9    443250.01746  22964258.374    22964257.4654   22964268.8494
        -0.000          -0.000
  -2065163.380 9  -1573096.62746  23284536.299    23284535.3524   23284545.1124
        -0.000          -0.000
    498971.714 8    378545.30345  25021567.151    25021566.8694   25021579.7954
        -0.000          -0.000
  -1229273.830 9   -949436.19749  20376990.797    20376990.6334   20376998.5234
        -0.000          -0.000
    594105.264 9    456439.89847  22252094.274    22252093.3364   22252102.7464
        -0.000          -0.000
  -2317322.030 9  -1792594.54048  21789704.870    21789704.3524   21789714.7064
        -0.000          -0.000
  -1031779.096 9   -707911.39249  21130025.769    21130025.2684   21130033.3084
        -0.000          -0.000
  -2417407.594 9  -1872809.08546  23083765.138    23083764.2534   23083773.8904
        -0.000          -0.000
 99  5 24 16  5 15.0000000  0  9 16  2  5 26  4  7 24  9  8         -0.000000094
  -1307666.302 8   -888009.28445  24871628.301    24871627.2914   24871639.9344
        -0.000          -0.000
    609925.720 9    468276.50346  22970370.157    22970369.2444   22970380.6554
        -0.000          -0.000
  -2106277.724 9  -1605133.75446  23276712.477    23276711.5294   23276721.3424
        -0.000          -0.000
    534383.755 8    406139.05145  25028305.937    25028305.8734   25028318.6584
        -0.000          -0.000
  -1242126.533 9   -959451.27949  20374545.008    20374544.8364   20374552.7174
        -0.000          -0.000
    625754.969 9    481101.98847  22258117.069    22258116.1074   22258125.5004
        -0.000          -0.000
  -2360939.635 9  -1826582.25748  21781404.710    21781404.1884   21781414.5194
        -0.000          -0.000
  -1039570.262 9   -713982.43649  21128543.145    21128542.6344   21128550.6814
        -0.000          -0.000
  -2462643.964 9  -1908058.20146  23075156.910    23075156.0624   23075165.6774
        -0.000          -0.000
 99  5 24 16  5 30.0000000  0  9 16  2  5 26  4  7 24  9  8         -0.000000090
  -1323728.987 8   -900525.64045  24868571.605    24868570.6474   24868583.2224
        -0.000          -0.000
    642112.284 9    493356.88646  22976495.106    22976494.1744   22976505.6494
        -0.000          -0.000
  -2147383.282 9  -1637164.03846  23268890.264    23268889.3234   23268899.2384
        -0.000          -0.000
    569780.999 8    433721.26845  25035041.870    25035041.7624   25035054.6924
        -0.000          -0.000
  -1254832.018 9   -969351.64449  20372127.254    20372127.0704   20372134.9814
        -0.000          -0.000
    657412.194 9    505769.92447  22264141.273    22264140.2964   22264149.6644
        -0.000          -0.000
  -2404472.710 9  -1860504.10748  21773120.626    21773120.0934   21773130.3974
        -0.000          -0.000
  -1047219.299 9   -719942.73349  21127087.597    21127087.0924   21127095.1504
        -0.000          -0.000
  -2507788.326 9  -1943235.62346  23066566.212    23066565.3494   23066574.9284
        -0.000          -0.000
 99  5 24 16  5 45.0000000  0  9 16  2  5 26  4  7 24  9  8         -0.000000083
  -1339698.166 8   -912969.12745  24865532.705    24865531.8304   24865544.3064
        -0.000          -0.000
    674367.909 9    518491.08046  22982633.218    22982632.2554   22982643.7594
        -0.000          -0.000
  -2188483.157 9  -1669189.89046  23261069.137    23261068.2584   23261078.1274
        -0.000          -0.000
    605157.885 8    461287.62545  25041773.981    25041773.8114   25041786.9654
        -0.000          -0.000
  -1267391.832 9   -979138.49849  20369737.170    20369736.9854   20369744.9014
        -0.000          -0.000
    689074.289 9    530441.66947  22270166.390    22270165.4254   22270174.7774
        -0.000          -0.000
  -2447922.647 9  -1894361.16948  21764852.359    21764851.8374   21764862.1214
        -0.000          -0.000
  -1054728.274 9   -725793.88949  21125658.708    21125658.1914   21125666.2734
        -0.000          -0.000
  -2552842.330 9  -1978342.63346  23057992.699    23057991.8544   23058001.4354
        -0.000          -0.000
 99  5 24 16  6  0.0000000  0  9 16  2  5 26  4  7 24  9  8         -0.000000079
  -1355580.840 8   -925345.20245  24862510.284    24862509.4234   24862521.9254
        -0.000          -0.000
    706681.495 9    543670.43846  22988782.340    22988781.3584   22988792.8484
        -0.000          -0.000
  -2229588.142 9  -1701219.72846  23253247.121    23253246.3134   23253256.0834
        -0.000          -0.000
    640500.505 8    488827.28645  25048499.520    25048499.3044   25048512.7614
        -0.000          -0.000
  -1279814.545 9   -988818.52149  20367373.157    20367372.9814   20367380.9054
        -0.000          -0.000
    720736.755 9    555113.69547  22276191.591    22276190.6444   22276199.9844
        -0.000          -0.000
  -2491301.508 9  -1928162.84648  21756597.598    21756597.0714   21756607.3614
        -0.000          -0.000
  -1062107.865 9   -731544.22649  21124254.433    21124253.9234   21124262.0114
        -0.000          -0.000
  -2597814.363 9  -2013385.75846  23049434.770    23049433.9004   23049443.5184
        -0.000          -0.000
 99  5 24 16  6 15.0000000  0  9 16  2  5 26  4  7 24  9  8         -0.000000074
  -1371364.929 8   -937644.44545  24859506.689    24859505.8324   24859518.2964
        -0.000          -0.000
    739064.002 9    568903.51146  22994944.493    22994943.5724   22994955.1024
        -0.000          -0.000
  -2270689.129 9  -1733246.44146  23245425.845    23245425.0274   23245434.8204
        -0.000          -0.000
    675816.378 8    516346.08345  25055219.832    25055219.7934   25055233.2464
        -0.000          -0.000
  -1292089.086 9   -998383.08749  20365037.380    20365037.2284   20365045.1574
        -0.000          -0.000
    752411.588 9    579795.36347  22282219.109    22282218.1614   22282227.5154
        -0.000          -0.000
  -2534600.859 9  -1961902.56648  21748357.977    21748357.4764   21748367.7684
        -0.000          -0.000
  -1069348.498 9   -737186.28449  21122876.605    21122876.0974   21122884.1934
        -0.000          -0.000
  -2642690.462 9  -2048354.13246  23040895.064    23040894.1914   23040903.8724
        -0.000          -0.000
 99  5 24 16  6 30.0000000  0  9 16  2  5 26  4  7 24  9  8         -0.000000067
  -1387055.232 8   -949870.62645  24856520.997    24856520.1504   24856532.5234
        -0.000          -0.000
    771513.178 9    594188.52546  23001119.348    23001118.4474   23001129.9944
        -0.000          -0.000
  -2311791.148 9  -1765273.96746  23237604.381    23237603.6014   23237613.3314
        -0.000          -0.000
    711099.675 8    543839.50645  25061934.013    25061933.8144   25061947.1864
        -0.000          -0.000
  -1304219.559 9  -1007835.39249  20362729.034    20362728.8864   20362736.8044
        -0.000          -0.000
    784094.828 9    604483.57647  22288248.273    22288247.3074   22288256.6544
        -0.000          -0.000
  -2577824.289 9  -1995583.12948  21740132.816    21740132.3104   21740142.5964
        -0.000          -0.000
  -1076455.800 9   -742724.44849  21121524.126    21121523.6334   21121531.7314
        -0.000          -0.000
  -2687473.810 9  -2083250.24646  23032373.045    23032372.2004   23032381.8274
        -0.000          -0.000
 99  5 24 16  6 45.0000000  0  9 16  2  5 26  4  7 24  9  8         -0.000000058
  -1402649.998 8   -962022.34145  24853553.473    24853552.5244   24853564.9874
        -0.000          -0.000
    804033.020 9    619528.60346  23007307.701    23007306.8234   23007318.3324
        -0.000          -0.000
  -2352894.393 9  -1797302.44146  23229782.679    23229781.9174   23229791.6304
        -0.000          -0.000
    746351.502 8    571308.42245  25068642.278    25068642.1584   25068655.2674
        -0.000          -0.000
  -1316203.448 9  -1017173.47749  20360448.598    20360448.4354   20360456.3644
        -0.000          -0.000
    815790.644 9    629181.59347  22294279.814    22294278.8524   22294288.1784
        -0.000          -0.000
  -2620967.073 9  -2029200.84948  21731923.013    21731922.4934   21731932.7764
        -0.000          -0.000
  -1083424.572 9   -748154.66649  21120198.025    21120197.5314   21120205.6434
        -0.000          -0.000
  -2732162.150 9  -2118072.32846  23023869.209    23023868.2984   23023877.9094
        -0.000          -0.000
 99  5 24 16  7  0.0000000  0  9 16  2  5 26  4  7 24  9  8         -0.000000050
  -1418152.008 8   -974101.77045  24850603.516    24850602.4774   24850615.1634
        -0.000          -0.000
    836621.997 9    644922.55746  23013509.227    23013508.3704   23013519.8594
        -0.000          -0.000
  -2394000.998 9  -1829333.53646  23221960.373    23221959.6024   23221969.2994
        -0.000          -0.000
    781565.802 8    598748.06845  25075343.355    25075343.5314   25075356.5314
        -0.000          -0.000
  -1328041.579 9  -1026397.97849  20358195.870    20358195.7244   20358203.6694
        -0.000          -0.000
    847498.860 9    653889.27447  22300313.680    22300312.7344   22300322.0534
        -0.000          -0.000
  -2664033.377 9  -2062758.96748  21723727.734    21723727.2074   21723737.5094
        -0.000          -0.000
  -1090257.525 9   -753479.04749  21118897.778    21118897.2814   21118905.4084
        -0.000          -0.000
  -2776760.783 9  -2152824.49646  23015382.375    23015381.4234   23015391.0314
        -0.000          -0.000
 99  5 24 16  7 15.0000000  0  9 16  2  5 26  4  7 24  9  8         -0.000000042
  -1433556.287 8   -986105.05145  24847672.217    24847671.1244   24847683.8304
        -0.000          -0.000
    869284.387 9    670373.72046  23019724.729    23019723.8564   23019735.3664
        -0.000          -0.000
  -2435106.989 9  -1861364.14446  23214138.181    23214137.3574   23214147.0824
        -0.000          -0.000
    816745.046 8    626160.41745  25082037.906    25082037.8764   25082050.9484
        -0.000          -0.000
  -1339729.803 9  -1035505.67549  20355971.653    20355971.5144   20355979.4484
        -0.000          -0.000
    879224.295 9    678610.36847  22306350.832    22306349.8954   22306359.2024
        -0.000          -0.000
  -2707020.627 9  -2096255.49148  21715547.522    21715547.0094   21715557.2954
        -0.000          -0.000
  -1096951.910 9   -758695.45649  21117623.909    21117623.3934   21117631.5254
        -0.000          -0.000
  -2821269.292 9  -2187506.44346  23006912.661    23006911.7074   23006921.4054
        -0.000          -0.000
 99  5 24 16  7 30.0000000  0  9 16  2  5 26  4  7 24  9  8         -0.000000042
  -1448866.998 8   -998035.41245  24844758.765    24844757.7324   24844770.4004
        -0.000          -0.000
    902010.717 9    695874.70046  23025952.360    23025951.4854   23025963.0224
        -0.000          -0.000
  -2476217.374 9  -1893398.18346  23206315.121    23206314.3234   23206324.0234
        -0.000          -0.000
    851883.868 8    653541.28745  25088724.672    25088724.7284   25088737.7564
        -0.000          -0.000
  -1351272.011 9  -1044499.59649  20353775.255    20353775.1154   20353783.0224
        -0.000          -0.000
    910962.020 9    703341.03747  22312390.328    22312389.4044   22312398.6964
        -0.000          -0.000
  -2749932.666 9  -2129693.41248  21707381.592    21707381.0934   21707391.3584
        -0.000          -0.000
  -1103512.200 9   -763807.37749  21116375.540    21116375.0284   21116383.1294
        -0.000          -0.000
  -2865697.334 9  -2222125.69446  22998458.271    22998457.3394   22998467.0244
        -0.000          -0.000
 99  5 24 16  7 45.0000000  0  9 16  2  5 26  4  7 24  9  8         -0.000000037
  -1464061.982 8  -1009875.59245  24841867.238    24841866.1444   24841878.9124
        -0.000          -0.000
    934816.637 9    721437.69046  23032195.196    23032194.3244   23032205.8534
        -0.000          -0.000
  -2517314.127 9  -1925421.60246  23198494.704    23198493.9064   23198503.5994
        -0.000          -0.000
    887000.517 8    680904.86345  25095407.150    25095406.9714   25095420.2824
        -0.000          -0.000
  -1362650.045 9  -1053365.58749  20351610.110    20351609.9644   20351617.8614
        -0.000          -0.000
    942731.654 9    728096.56947  22318435.913    22318434.9794   22318444.2834
        -0.000          -0.000
  -2792745.917 9  -2163054.35048  21699234.504    21699233.9834   21699244.2464
        -0.000          -0.000
  -1109917.545 9   -768798.55949  21115156.659    21115156.1614   21115164.2474
        -0.000          -0.000
  -2910028.069 9  -2256669.13246  22990022.405    22990021.4494   22990031.1614
        -0.000          -0.000
 99  5 24 16  8  0.0000000  0  9 16  2  5 26  4  7 24  9  8         -0.000000035
  -1479149.286 8  -1021631.87545  24838996.252    24838995.2014   24839007.8654
        -0.000          -0.000
    967694.123 9    747056.45146  23038451.640    23038450.7724   23038462.2944
        -0.000          -0.000
  -2558401.564 9  -1957437.76646  23190676.050    23190675.2404   23190684.9144
        -0.000          -0.000
    922092.329 8    708249.05945  25102084.883    25102084.6694   25102098.1754
        -0.000          -0.000
  -1373869.271 9  -1062107.82949  20349475.146    20349474.9824   20349482.8774
        -0.000          -0.000
    974530.379 9    752874.77747  22324487.040    22324486.0804   22324495.3884
        -0.000          -0.000
  -2835464.505 9  -2196341.52748  21691105.380    21691104.8614   21691115.1274
        -0.000          -0.000
  -1116174.695 9   -773674.26449  21113966.008    21113965.5064   21113973.5474
        -0.000          -0.000
  -2954269.123 9  -2291142.68346  22981603.589    22981602.7174   22981612.3574
        -0.000          -0.000
 99  5 24 16  8 15.0000000  0  9 16  2  5 26  4  7 24  9  8         -0.000000035
  -1494134.628 8  -1033308.70145  24836144.673    24836143.6464   24836156.2574
        -0.000          -0.000
   1000642.118 9    772730.15946  23044721.537    23044720.6614   23044732.1884
        -0.000          -0.000
  -2599483.385 9  -1989449.55246  23182858.456    23182857.6514   23182867.2484
        -0.000          -0.000
    957160.027 8    735574.47845  25108758.073    25108757.8574   25108771.3304
        -0.000          -0.000
  -1384933.110 9  -1070728.99049  20347369.751    20347369.5994   20347377.4944
        -0.000          -0.000
   1006353.676 9    777672.12747  22330542.878    22330541.9374   22330551.2004
        -0.000          -0.000
  -2878091.694 9  -2229557.48248  21682993.671    21682993.1674   21683003.4174
        -0.000          -0.000
  -1122288.029 9   -778437.90049  21112802.738    21112802.2314   21112810.2574
        -0.000          -0.000
  -2998423.388 9  -2325548.59646  22973201.322    22973200.4944   22973210.0954
        -0.000          -0.000
 99  5 24 16  8 30.0000000  0  9 16  2  5 26  4  7 24  9  8         -0.000000033
  -1509013.970 8  -1044902.92945  24833313.216    24833312.2164   24833324.8754
        -0.000          -0.000
   1033664.156 9    798461.55846  23051005.499    23051004.6314   23051016.1964
        -0.000          -0.000
  -2640554.524 9  -2021453.00846  23175042.911    23175042.1424   23175051.6684
        -0.000          -0.000
    992208.119 8    762884.64545  25115427.588    25115427.2934   25115440.7224
        -0.000          -0.000
  -1395842.177 9  -1079229.54949  20345293.831    20345293.6964   20345301.5874
        -0.000          -0.000
   1038198.471 9    802486.23147  22336602.760    22336601.8224   22336611.0944
        -0.000          -0.000
  -2920621.366 9  -2262697.44948  21674900.567    21674900.0594   21674910.2744
        -0.000          -0.000
  -1128254.683 9   -783087.24549  21111667.348    21111666.8374   21111674.8734
        -0.000          -0.000
  -3042489.480 9  -2359885.81546  22964815.849    22964815.0094   22964824.5864
        -0.000          -0.000
 99  5 24 16  8 45.0000000  0  9 16  2  5 26  4  7 24  9  8         -0.000000028
  -1523786.264 8  -1056413.75945  24830502.087    24830501.1814   24830513.7944
        -0.000          -0.000
   1066757.859 9    824248.80046  23057303.097    23057302.2114   23057313.7914
        -0.000          -0.000
  -2681611.487 9  -2053445.41546  23167230.045    23167229.2314   23167238.7994
        -0.000          -0.000
   1027237.121 8    790179.93745  25122093.413    25122092.9494   25122106.6374
        -0.000          -0.000
  -1406595.993 9  -1087609.13349  20343247.471    20343247.3334   20343255.2044
        -0.000          -0.000
   1070062.448 9    827315.28347  22342666.279    22342665.3754   22342674.6324
        -0.000          -0.000
  -2963051.924 9  -2295760.18948  21666826.305    21666825.7894   21666835.9594
        -0.000          -0.000
  -1134074.918 9   -787622.49649  21110559.775    21110559.2644   21110567.3044
        -0.000          -0.000
  -3086468.679 9  -2394155.32646  22956446.909    22956446.0534   22956455.5534
        -0.000          -0.000
 99  5 24 16  9  0.0000000  0  9 16  2  5 26  4  7 24  9  8         -0.000000018
  -1538447.433 8  -1067837.98245  24827712.170    24827711.3634   24827724.0184
        -0.000          -0.000
   1099924.180 9    850092.62346  23063614.435    23063613.5834   23063625.2334
        -0.000          -0.000
  -2722648.865 9  -2085422.56346  23159420.875    23159420.1074   23159429.5734
        -0.000          -0.000
   1062251.323 8    817463.70545  25128756.477    25128755.6154   25128769.7834
        -0.000          -0.000
  -1417192.833 9  -1095866.40349  20341230.998    20341230.8394   20341238.6914
        -0.000          -0.000
   1101946.623 9    852160.06947  22348733.657    22348732.7444   22348742.0204
        -0.000          -0.000
  -3005380.411 9  -2328743.38748  21658771.439    21658770.9154   21658781.0584
        -0.000          -0.000
  -1139747.031 9   -792042.33149  21109480.408    21109479.9014   21109487.9194
        -0.000          -0.000
  -3130358.510 9  -2428355.18646  22948095.011    22948094.1254   22948103.5874
        -0.000          -0.000
 99  5 24 16  9 15.0000000  0  9 16  2  5 26  4  7 24  9  8         -0.000000013
  -1553014.123 8  -1079188.59945  24824940.240    24824939.4524   24824952.0264
        -0.000          -0.000
   1133146.952 9    875980.43046  23069936.563    23069935.6764   23069947.3754
        -0.000          -0.000
  -2763680.697 9  -2117395.40546  23151612.757    23151611.9834   23151621.4354
        -0.000          -0.000
   1097237.515 8    844725.61244  25135414.172    25135413.1564   25135427.4804
        -0.000          -0.000
  -1427647.004 9  -1104012.49849  20339241.646    20339241.4964   20339249.3324
        -0.000          -0.000
   1133834.608 9    877007.82647  22354801.823    22354800.8734   22354810.1584
        -0.000          -0.000
  -3047622.166 9  -2361659.00348  21650733.075    21650732.5304   21650742.6814
        -0.000          -0.000
  -1145287.676 9   -796359.71849  21108426.061    21108425.5714   21108433.5844
        -0.000          -0.000
  -3174174.370 9  -2462497.41646  22939757.134    22939756.2774   22939765.7334
        -0.000          -0.000
 99  5 24 16  9 30.0000000  0  9 16  2  5 26  4  7 24  9  8         -0.000000011
  -1567481.695 8  -1090461.97845  24822187.112    24822186.2284   24822198.7494
        -0.000          -0.000
   1166426.924 9    901912.81146  23076269.543    23076268.6624   23076280.4404
        -0.000          -0.000
  -2804702.592 9  -2149360.49046  23143806.525    23143805.7574   23143815.2304
        -0.000          -0.000
   1132200.847 8    871969.70944  25142067.460    25142066.4314   25142080.6314
        -0.000          -0.000
  -1437954.354 9  -1112044.18849  20337280.218    20337280.0744   20337287.9164
        -0.000          -0.000
   1165731.411 9    901862.45647  22360871.626    22360870.6514   22360879.9224
        -0.000          -0.000
  -3089769.238 9  -2394500.84348  21642712.722    21642712.2024   21642722.3394
        -0.000          -0.000
  -1150693.503 9   -800572.05649  21107397.366    21107396.8834   21107404.9184
        -0.000          -0.000
  -3217909.153 9  -2496576.45946  22931434.720    22931433.8494   22931443.2824
        -0.000          -0.000
 99  5 24 16  9 45.0000000  0  9 16  2  5 26  4  7 24  9  8         -0.000000001
  -1581840.648 8  -1101650.72145  24819454.568    24819453.9604   24819466.2184
        -0.000          -0.000
   1199777.602 9    927900.28746  23082616.002    23082615.1484   23082626.9284
        -0.000          -0.000
  -2845703.853 9  -2181309.50346  23136004.208    23136003.4284   23136012.9304
        -0.000          -0.000
   1167152.312 7    899204.57345  25148718.538    25148717.4744   25148731.7304
        -0.000          -0.000
  -1448103.924 9  -1119952.93349  20335348.837    20335348.6914   20335356.5564
        -0.000          -0.000
   1197648.194 9    926732.65247  22366945.194    22366944.2474   22366953.4814
        -0.000          -0.000
  -3131809.265 9  -2427259.26848  21634712.752    21634712.2414   21634722.3494
        -0.000          -0.000
  -1155952.090 9   -804669.66149  21106396.689    21106396.1964   21106404.2654
        -0.000          -0.000
  -3261546.611 9  -2530579.66646  22923130.790    22923129.9084   22923139.2894
        -0.000          -0.000
 99  5 24 16 10  0.0000000  0  9 16  2  5 26  4  7 24  9  8          0.000000009
  -1596102.146 8  -1112763.51545  24816740.626    24816739.9494   24816752.3084
        -0.000          -0.000
   1233190.075 9    953935.90746  23088974.270    23088973.3964   23088985.2024
        -0.000          -0.000
  -2886697.364 9  -2213252.46846  23128203.407    23128202.6184   23128212.1624
        -0.000          -0.000
   1202078.981 8    926420.09545  25155364.962    25155364.1144   25155378.1524
        -0.000          -0.000
  -1458106.829 9  -1127747.39849  20333445.349    20333445.1894   20333453.0544
        -0.000          -0.000
   1229573.422 9    951609.42747  22373020.343    22373019.4114   22373028.6824
        -0.000          -0.000
  -3173755.797 9  -2459944.84748  21626730.604    21626730.1064   21626740.1714
        -0.000          -0.000
  -1161076.937 9   -808663.05749  21105421.451    21105420.9514   21105429.0484
        -0.000          -0.000
  -3305096.180 9  -2564514.39346  22914843.577    22914842.6954   22914852.0934
        -0.000          -0.000
 99  5 24 16 10 15.0000000  0  9 16  2  5 26  4  7 24  9  8          0.000000020
  -1610269.499 8  -1123802.95445  24814044.582    24814043.8154   24814056.4654
        -0.000          -0.000
   1266663.409 9    980018.96846  23095344.077    23095343.1964   23095355.0264
        -0.000          -0.000
  -2927685.860 9  -2245191.53346  23120403.542    23120402.7284   23120412.2974
        -0.000          -0.000
   1236974.762 8    953611.53545  25162005.535    25162004.7164   25162018.6834
        -0.000          -0.000
  -1467966.065 9  -1135429.90649  20331569.201    20331569.0484   20331576.8924
        -0.000          -0.000
   1261504.734 9    976490.94447  22379096.706    22379095.7644   22379105.0214
        -0.000          -0.000
  -3215615.025 9  -2492562.39148  21618765.028    21618764.5114   21618774.5684
        -0.000          -0.000
  -1166072.919 9   -812556.03449  21104470.766    21104470.2794   21104478.3684
        -0.000          -0.000
  -3348560.909 9  -2598383.01046  22906572.489    22906571.6304   22906580.9934
        -0.000          -0.000
 99  5 24 16 10 30.0000000  0  9 16  2  5 26  4  7 24  9  8          0.000000032
  -1624333.782 8  -1134762.07645  24811368.054    24811367.3594   24811380.0734
        -0.000          -0.000
   1300199.991 9   1006151.29246  23101725.925    23101725.0694   23101736.8764
        -0.000          -0.000
  -2968666.234 9  -2277124.26146  23112605.201    23112604.3884   23112613.9774
        -0.000          -0.000
   1271837.314 8    980777.11845  25168639.722    25168639.0124   25168652.9394
        -0.000          -0.000
  -1477680.124 9  -1142999.29249  20329720.672    20329720.5174   20329728.3544
        -0.000          -0.000
   1293443.339 9   1001378.14447  22385174.491    22385173.5574   22385182.7864
        -0.000          -0.000
  -3257383.121 9  -2525108.92148  21610816.809    21610816.2934   21610826.3254
        -0.000          -0.000
  -1170932.977 9   -816343.10049  21103545.910    21103545.4194   21103553.5134
        -0.000          -0.000
  -3391934.870 9  -2632180.89346  22898318.674    22898317.8244   22898327.2954
        -0.000          -0.000
 99  5 24 16 10 45.0000000  0  9 16  2  5 26  4  7 24  9  8          0.000000037
  -1638301.150 8  -1145645.68445  24808709.911    24808709.1994   24808722.0804
        -0.000          -0.000
   1333788.610 9   1032324.18146  23108117.623    23108116.8134   23108128.6324
        -0.000          -0.000
  -3009644.529 9  -2309055.37946  23104807.216    23104806.3964   23104815.9794
        -0.000          -0.000
   1306657.081 8   1007909.38544  25175265.808    25175264.9974   25175279.0514
        -0.000          -0.000
  -1487251.238 9  -1150457.29349  20327899.335    20327899.1784   20327906.9804
        -0.000          -0.000
   1325383.485 9   1026266.54247  22391252.558    22391251.6194   22391260.8314
        -0.000          -0.000
  -3299066.257 9  -2557589.24948  21602884.764    21602884.2654   21602894.2534
        -0.000          -0.000
  -1175664.498 9   -820030.00849  21102645.549    21102645.0534   21102653.1454
        -0.000          -0.000
  -3435223.433 9  -2665912.22846  22890081.123    22890080.2874   22890089.8044
        -0.000          -0.000
 99  5 24 16 11  0.0000000  0  9 16  2  5 26  4  7 24  9  8          0.000000037
  -1652172.000 8  -1156454.09945  24806070.305    24806069.5064   24806082.5044
        -0.000          -0.000
   1367433.324 9   1058540.77546  23114520.077    23114519.2814   23114531.0704
        -0.000          -0.000
  -3050618.339 9  -2340983.00446  23097010.101    23097009.3234   23097018.8714
        -0.000          -0.000
   1341436.992 8   1035010.57344  25181884.230    25181883.8424   25181897.1104
        -0.000          -0.000
  -1496671.530 9  -1157797.77149  20326106.715    20326106.5494   20326114.3454
        -0.000          -0.000
   1357332.920 9   1051162.18347  22397332.397    22397331.4504   22397340.6264
        -0.000          -0.000
  -3340661.029 9  -2590000.71648  21594969.530    21594969.0344   21594979.0204
        -0.000          -0.000
  -1180263.222 9   -823613.43149  21101770.473    21101769.9694   21101778.0534
        -0.000          -0.000
  -3478421.281 9  -2699572.87146  22881860.858    22881859.9884   22881869.5244
        -0.000          -0.000
 99  5 24 16 11 15.0000000  0  9 16  2  5 26  4  7 24  9  8          0.000000033
  -1665943.755 8  -1167185.27245  24803449.586    24803448.7994   24803461.8544
        -0.000          -0.000
   1401137.969 9   1084804.06546  23120933.951    23120933.1304   23120944.8914
        -0.000          -0.000
  -3091585.414 9  -2372905.37146  23089214.284    23089213.5114   23089223.0624
        -0.000          -0.000
   1376181.234 8   1062083.98144  25188495.836    25188495.5184   25188508.9304
        -0.000          -0.000
  -1505937.573 9  -1165018.05649  20324343.446    20324343.3004   20324351.0804
        -0.000          -0.000
   1389298.175 9   1076070.14347  22403415.224    22403414.2494   22403423.4514
        -0.000          -0.000
  -3382162.653 9  -2622339.60748  21587072.011    21587071.5114   21587081.5154
        -0.000          -0.000
  -1184722.360 9   -827088.09249  21100921.972    21100921.4564   21100929.5484
        -0.000          -0.000
  -3521521.797 9  -2733157.67546  22873659.064    22873658.1954   22873667.7494
        -0.000          -0.000
 99  5 24 16 11 30.0000000  0  9 16  2  5 26  4  7 24  9  8          0.000000026
  -1679611.769 8  -1177835.63345  24800848.629    24800847.8604   24800860.8614
        -0.000          -0.000
   1434904.058 9   1111115.24246  23127359.529    23127358.7024   23127370.4364
        -0.000          -0.000
  -3132544.977 9  -2404821.89846  23081419.946    23081419.1864   23081428.7404
        -0.000          -0.000
   1410890.505 8   1089130.11944  25195100.788    25195100.6544   25195113.9824
        -0.000          -0.000
  -1515046.424 9  -1172115.85149  20322610.062    20322609.9204   20322617.7004
        -0.000          -0.000
   1421284.015 9   1100994.14547  22409501.937    22409500.9654   22409510.1824
        -0.000          -0.000
  -3423567.327 9  -2654602.94848  21579192.937    21579192.4364   21579202.4474
        -0.000          -0.000
  -1189036.678 9   -830449.90949  21100100.975    21100100.4744   21100108.5584
        -0.000          -0.000
  -3564519.988 9  -2766662.74746  22865476.805    22865475.9504   22865485.5214
        -0.000          -0.000
 99  5 24 16 11 45.0000000  0  9 16  2  5 26  4  7 24  9  8          0.000000016
  -1693171.924 8  -1188401.95445  24798268.197    24798267.3974   24798280.4424
        -0.000          -0.000
   1468734.533 9   1137476.58346  23133797.377    23133796.4854   23133808.2324
        -0.000          -0.000
  -3173495.370 9  -2436731.26746  23073627.388    23073626.6504   23073636.1454
        -0.000          -0.000
   1445566.101 8   1116150.02044  25201699.316    25201699.3274   25201712.5684
        -0.000          -0.000
  -1523998.187 9  -1179091.24249  20320906.622    20320906.4794   20320914.2564
        -0.000          -0.000
   1453291.535 9   1125935.04547  22415592.807    22415591.8494   22415601.0934
        -0.000          -0.000
  -3464875.012 9  -2686790.71848  21571332.307    21571331.8084   21571341.8214
        -0.000          -0.000
  -1193203.750 9   -833696.98749  21099308.014    21099307.5334   21099315.6204
        -0.000          -0.000
  -3607414.217 9  -2800086.81446  22857314.339    22857313.4914   22857323.0094
        -0.000          -0.000
 99  5 24 16 12  0.0000000  0  9 16  2  5 26  4  7 24  9  8          0.000000002
  -1706624.234 8  -1198884.21145  24795708.243    24795707.4494   24795720.5134
        -0.000          -0.000
   1502629.646 9   1163888.30146  23140247.465    23140246.5714   23140258.3464
        -0.000          -0.000
  -3214438.487 9  -2468634.97646  23065836.195    23065835.4444   23065844.9384
        -0.000          -0.000
   1480207.574 8   1143143.35144  25208291.432    25208291.3544   25208304.4344
        -0.000          -0.000
  -1532794.113 9  -1185945.20249  20319232.808    20319232.6684   20319240.4094
        -0.000          -0.000
   1485319.214 9   1150891.65247  22421687.458    22421686.5094   22421695.7764
        -0.000          -0.000
  -3506089.161 9  -2718905.60448  21563489.520    21563489.0174   21563499.0044
        -0.000          -0.000
  -1197223.046 9   -836828.91149  21098543.183    21098542.7034   21098550.7934
        -0.000          -0.000
  -3650207.578 9  -2833432.27046  22849171.041    22849170.1494   22849179.6544
        -0.000          -0.000
 99  5 24 16 12 15.0000000  0  9 16  2  5 26  4  7 24  9  8         -0.000000017
  -1719964.997 8  -1209279.56245  24793169.589    24793168.8264   24793181.7264
        -0.000          -0.000
   1536590.538 9   1190351.26946  23146710.091    23146709.1664   23146720.9914
        -0.000          -0.000
  -3255371.669 9  -2500530.94046  23058046.852    23058046.1074   23058055.6304
        -0.000          -0.000
   1514818.633 8   1170112.95844  25214877.810    25214877.7424   25214890.8344
        -0.000          -0.000
  -1541431.291 9  -1192675.46149  20317589.216    20317589.0764   20317596.7954
        -0.000          -0.000
   1517369.844 9   1175866.14447  22427786.493    22427785.5574   22427794.8534
        -0.000          -0.000
  -3547207.632 9  -2750945.93948  21555664.908    21555664.4144   21555674.3814
        -0.000          -0.000
  -1201091.792 9   -839843.52649  21097806.998    21097806.5124   21097814.6024
        -0.000          -0.000
  -3692898.451 9  -2866697.86946  22841047.248    22841046.3624   22841055.8614
        -0.000          -0.000
 99  5 24 16 12 30.0000000  0  9 16  2  5 26  4  7 24  9  8         -0.000000033
  -1733186.904 8  -1219582.31245  24790653.582    24790652.8694   24790665.5714
        -0.000          -0.000
   1570623.721 9   1216870.57046  23153186.403    23153185.4734   23153197.3144
        -0.000          -0.000
  -3296287.112 9  -2532413.07646  23050260.891    23050260.1174   23050269.6694
        -0.000          -0.000
   1549407.840 8   1197065.56244  25221459.996    25221459.8984   25221473.5024
        -0.000          -0.000
  -1549904.289 9  -1199277.78949  20315976.881    20315976.7324   20315984.4714
        -0.000          -0.000
   1549447.688 9   1200861.83647  22433890.735    22433889.8114   22433899.1474
        -0.000          -0.000
  -3588222.589 9  -2782905.61248  21547859.985    21547859.4984   21547869.4374
        -0.000          -0.000
  -1204802.737 9   -842735.17949  21097100.846    21097100.3614   21097108.4554
        -0.000          -0.000
  -3735477.089 9  -2899876.01746  22832944.786    22832943.9024   22832953.4434
        -0.000          -0.000
 99  5 24 16 12 45.0000000  0  9 16  2  5 26  4  7 24  9  8         -0.000000054
  -1746297.375 8  -1229798.23745  24788158.921    24788158.0054   24788170.5084
        -0.000          -0.000
   1604721.308 9   1243440.05246  23159674.989    23159674.0814   23159685.9464
        -0.000          -0.000
  -3337190.888 9  -2564286.11546  23042477.164    23042476.3854   23042485.9624
        -0.000          -0.000
   1583972.009 8   1223998.64644  25228037.356    25228037.1934   25228051.1164
        -0.000          -0.000
  -1558215.316 9  -1205753.90049  20314395.316    20314395.1674   20314402.9164
        -0.000          -0.000
   1581544.861 9   1225872.59647  22439998.633    22439997.6734   22440007.0434
        -0.000          -0.000
  -3629137.749 9  -2814787.51648  21540074.066    21540073.5774   21540083.5214
        -0.000          -0.000
  -1208360.641 9   -845507.57849  21096423.821    21096423.3304   21096431.4154
        -0.000          -0.000
  -3777950.072 9  -2932971.82546  22824862.412    22824861.5174   22824871.1094
        -0.000          -0.000
 99  5 24 16 13  0.0000000  0  9 16  2  5 26  4  7 24  9  8         -0.000000072
  -1759291.635 8  -1239923.58745  24785686.196    24785685.1884   24785697.6344
        -0.000          -0.000
   1638894.511 9   1270068.47446  23166177.971    23166177.0994   23166188.9774
        -0.000          -0.000
  -3378072.786 9  -2596142.11846  23034697.624    23034696.8514   23034706.3764
        -0.000          -0.000
   1618522.472 8   1250921.05244  25234612.009    25234611.8334   25234625.6304
        -0.000          -0.000
  -1566354.553 9  -1212096.15549  20312846.435    20312846.2994   20312854.0664
        -0.000          -0.000
   1613671.991 9   1250906.70847  22446112.245    22446111.2814   22446120.7094
        -0.000          -0.000
  -3669944.360 9  -2846584.83748  21532308.822    21532308.3234   21532318.2634
        -0.000          -0.000
  -1211758.776 9   -848155.48249  21095777.189    21095776.7084   21095784.7854
        -0.000          -0.000
  -3820310.963 9  -2965980.29446  22816801.329    22816800.5174   22816810.1054
        -0.000          -0.000
 99  5 24 16 13 15.0000000  0  9 16  2  5 26  4  7 24  9  8         -0.000000090
  -1772176.009 8  -1249963.31645  24783234.385    24783233.3944   24783245.7774
        -0.000          -0.000
   1673137.981 9   1296751.63046  23172694.320    23172693.4484   23172705.4044
        -0.000          -0.000
  -3418941.058 9  -2627987.50946  23026920.638    23026919.8554   23026929.3324
        -0.000          -0.000
   1653051.429 8   1277826.67344  25241182.663    25241182.3844   25241196.1284
        -0.000          -0.000
  -1574336.620 9  -1218315.93749  20311327.493    20311327.3814   20311335.1244
        -0.000          -0.000
   1645819.776 9   1275956.90247  22452229.744    22452228.7964   22452238.2774
        -0.000          -0.000
  -3710651.202 9  -2878304.41948  21524562.536    21524562.0264   21524571.9724
        -0.000          -0.000
  -1215004.330 9   -850684.49049  21095159.588    21095159.1154   21095167.1784
        -0.000          -0.000
  -3862568.958 9  -2998908.59646  22808759.878    22808759.1054   22808768.6684
        -0.000          -0.000
 99  5 24 16 13 30.0000000  0  9 16  2  5 26  4  7 24  9  8         -0.000000104
  -1784943.278 8  -1259911.79645  24780804.947    24780803.9264   24780816.1134
        -0.000          -0.000
   1707457.709 9   1323494.22546  23179225.200    23179224.2774   23179236.3154
        -0.000          -0.000
  -3459791.856 9  -2659819.27446  23019147.014    23019146.2374   23019155.6844
        -0.000          -0.000
   1687563.515 8   1304719.16244  25247750.213    25247749.9454   25247763.8004
        -0.000          -0.000
  -1582158.887 9  -1224411.20049  20309838.973    20309838.8614   20309846.5734
        -0.000          -0.000
   1677989.951 9   1301024.54647  22458351.516    22458350.5974   22458360.1264
        -0.000          -0.000
  -3751253.728 9  -2909942.71248  21516836.110    21516835.5954   21516845.5504
        -0.000          -0.000
  -1218094.218 9   -853092.19949  21094571.624    21094571.1624   21094579.1964
        -0.000          -0.000
  -3904721.205 9  -3031754.47746  22800738.573    22800737.7884   22800747.3264
        -0.000          -0.000
 99  5 24 16 13 45.0000000  0  9 16  2  5 26  4  7 24  9  8         -0.000000113
  -1797597.948 8  -1269772.53545  24778396.781    24778395.8044   24778407.8464
        -0.000          -0.000
   1741853.730 9   1350296.25146  23185770.561    23185769.6554   23185781.7954
        -0.000          -0.000
  -3500627.098 9  -2691638.92546  23011376.308    23011375.5164   23011384.9414
        -0.000          -0.000
   1722054.235 8   1331595.02945  25254313.603    25254313.2134   25254327.2704
        -0.000          -0.000
  -1589825.565 9  -1230385.22549  20308380.102    20308379.9714   20308387.6754
        -0.000          -0.000
   1710177.237 9   1326105.52547  22464476.551    22464475.6174   22464485.2114
        -0.000          -0.000
  -3791759.228 9  -2941505.40948  21509128.180    21509127.6714   21509137.5964
        -0.000          -0.000
  -1221036.653 9   -855385.00549  21094011.727    21094011.2404   21094019.2744
        -0.000          -0.000
  -3946772.836 9  -3064521.97346  22792736.423    22792735.6374   22792745.1404
        -0.000          -0.000
 99  5 24 16 14  0.0000000  0  9 16  2  5 26  4  7 24  9  8         -0.000000118
  -1810147.931 8  -1279551.70045  24776008.438    24776007.5284   24776019.6594
        -0.000          -0.000
   1776323.036 9   1377155.38746  23192329.902    23192329.0244   23192341.1394
        -0.000          -0.000
  -3541452.237 9  -2723450.69246  23003607.524    23003606.6954   23003616.1694
        -0.000          -0.000
   1756517.315 8   1358449.36744  25260871.781    25260871.6114   25260885.0624
        -0.000          -0.000
  -1597343.183 9  -1236243.09949  20306949.540    20306949.4024   20306957.0914
        -0.000          -0.000
   1742374.285 9   1351194.11647  22470603.484    22470602.5454   22470612.1824
        -0.000          -0.000
  -3832173.322 9  -2972996.87748  21501437.637    21501437.1154   21501447.0224
        -0.000          -0.000
  -1223840.146 9   -857569.54949  21093478.274    21093477.7694   21093485.7964
        -0.000          -0.000
  -3988729.302 9  -3097215.30946  22784752.428    22784751.6044   22784761.1034
        -0.000          -0.000
 99  5 24 16 14 15.0000000  0  9 16  2  5 26  4  7 24  9  8         -0.000000115
  -1822589.709 8  -1289246.54545  24773640.666    24773639.8064   24773652.0544
        -0.000          -0.000
   1810868.897 9   1404074.17746  23198903.790    23198902.8844   23198915.0424
        -0.000          -0.000
  -3582263.197 9  -2755251.41346  22995841.418    22995840.5914   22995850.1394
        -0.000          -0.000
   1790955.668 8   1385284.41844  25267425.233    25267425.4454   25267438.3654
        -0.000          -0.000
  -1604707.391 9  -1241981.43249  20305548.170    20305548.0324   20305555.7184
        -0.000          -0.000
   1774582.620 9   1376291.49847  22476732.505    22476731.5924   22476741.2804
        -0.000          -0.000
  -3872489.251 9  -3004411.85148  21493765.735    21493765.2364   21493775.0924
        -0.000          -0.000
  -1226503.102 9   -859644.58149  21092971.488    21092971.0104   21092979.0404
        -0.000          -0.000
  -4030584.880 9  -3129830.03346  22776787.625    22776786.7994   22776796.2654
        -0.000          -0.000
 99  5 24 16 14 30.0000000  0  9 16  2  5 26  4  7 24  9  8         -0.000000112
  -1834936.690 8  -1298867.51245  24771291.031    24771290.2034   24771302.4684
        -0.000          -0.000
   1845477.988 9   1431042.24646  23205489.722    23205488.8644   23205501.0064
        -0.000          -0.000
  -3623071.348 9  -2787049.94546  22988075.853    22988075.0874   22988084.6064
        -0.000          -0.000
   1825354.788 8   1412088.90744  25273971.172    25273971.4434   25273984.3454
        -0.000          -0.000
  -1611930.441 9  -1247609.77749  20304173.679    20304173.5534   20304181.2164
        -0.000          -0.000
   1806786.178 9   1401385.15447  22482860.658    22482859.7804   22482869.4524
        -0.000          -0.000
  -3912720.073 9  -3035760.51648  21486110.044    21486109.5864   21486119.3804
        -0.000          -0.000
  -1229040.071 9   -861621.44449  21092488.739    21092488.2644   21092496.2944
        -0.000          -0.000
  -4072353.608 9  -3162377.07946  22768839.320    22768838.5214   22768847.9394
        -0.000          -0.000
 99  5 24 16 14 45.0000000  0  9 16  2  5 26  4  7 24  9  8         -0.000000103
  -1847179.492 8  -1308407.30445  24768961.252    24768960.5054   24768972.7714
        -0.000          -0.000
   1880160.146 9   1458067.25246  23212089.596    23212088.7554   23212100.8054
        -0.000          -0.000
  -3663864.490 9  -2818836.78046  22980313.168    22980312.4114   22980321.9044
        -0.000          -0.000
   1859723.641 8   1438869.81245  25280511.423    25280511.6964   25280524.6054
        -0.000          -0.000
  -1619003.334 9  -1253121.11049  20302827.750    20302827.6154   20302835.2664
        -0.000          -0.000
   1838993.758 9   1426481.94747  22488989.617    22488988.6974   22488998.3824
        -0.000          -0.000
  -3952854.180 9  -3067033.80648  21478472.744    21478472.2734   21478482.0704
        -0.000          -0.000
  -1231440.833 9   -863492.16749  21092031.900    21092031.4304   21092039.4564
        -0.000          -0.000
  -4114027.311 9  -3194850.08346  22760909.095    22760908.3114   22760917.6914
        -0.000          -0.000
 99  5 24 16 15  0.0000000  0  9 16  2  5 26  4  7 24  9  8         -0.000000090
  -1859325.951 8  -1317872.02945  24766649.784    24766649.1664   24766661.2874
        -0.000          -0.000
   1914910.958 9   1485145.75446  23218702.553    23218701.7374   23218713.7174
        -0.000          -0.000
  -3704647.376 9  -2850615.62146  22972552.432    22972551.6644   22972561.1764
        -0.000          -0.000
   1894057.715 8   1465623.61245  25287045.036    25287045.1734   25287058.4294
        -0.000          -0.000
  -1625932.423 9  -1258520.39149  20301509.191    20301509.0484   20301516.6834
        -0.000          -0.000
   1871202.688 9   1451579.79347  22495118.806    22495117.8944   22495127.5534
        -0.000          -0.000
  -3992897.260 9  -3098236.17348  21470852.796    21470852.3184   21470862.1184
        -0.000          -0.000
  -1233710.582 9   -865260.80649  21091599.991    21091599.5094   21091607.5314
        -0.000          -0.000
  -4155612.829 9  -3227254.35946  22752995.646    22752994.8104   22753004.2194
        -0.000          -0.000
 99  5 24 16 15 15.0000000  0  9 16  2  5 26  4  7 24  9  8         -0.000000074
  -1871382.090 8  -1327266.37045  24764355.498    24764354.8844   24764366.9894
        -0.000          -0.000
   1949726.154 9   1512274.41046  23225327.753    23225326.9114   23225338.8944
        -0.000          -0.000
  -3745425.112 9  -2882390.45946  22964792.631    22964791.8464   22964801.4134
        -0.000          -0.000
   1928351.788 8   1492346.22845  25293571.076    25293571.0754   25293584.4904
        -0.000          -0.000
  -1632727.285 9  -1263815.07749  20300216.162    20300216.0334   20300223.6664
        -0.000          -0.000
   1903408.934 9   1476675.54247  22501247.495    22501246.6014   22501256.2084
        -0.000          -0.000
  -4032856.879 9  -3129373.49848  21463248.696    21463248.1924   21463258.0124
        -0.000          -0.000
  -1235857.062 9   -866933.39249  21091191.558    21091191.0624   21091199.1144
        -0.000          -0.000
  -4197112.347 9  -3259591.64046  22745098.491    22745097.6374   22745107.0584
        -0.000          -0.000
 99  5 24 16 15 30.0000000  0  9 16  2  5 26  4  7 24  9  8         -0.000000059
  -1883350.316 8  -1336592.21245  24762077.996    24762077.4514   24762089.5104
        -0.000          -0.000
   1984600.373 9   1539449.06546  23231964.118    23231963.2964   23231975.2654
        -0.000          -0.000
  -3786202.899 9  -2914165.33146  22957032.826    22957032.0284   22957041.6744
        -0.000          -0.000
   1962601.190 8   1519034.06144  25300088.519    25300088.6634   25300102.2554
        -0.000          -0.000
  -1639391.653 9  -1269008.08249  20298947.950    20298947.8114   20298955.4804
        -0.000          -0.000
   1935608.704 9   1501766.23947  22507374.994    22507374.0994   22507383.6234
        -0.000          -0.000
  -4072735.742 9  -3160447.90548  21455659.991    21455659.5064   21455669.3104
        -0.000          -0.000
  -1237883.668 9   -868512.56949  21090805.899    21090805.4094   21090813.4884
        -0.000          -0.000
  -4238526.088 9  -3291862.08646  22737217.653    22737216.8424   22737226.2954
        -0.000          -0.000
 99  5 24 16 15 45.0000000  0  9 16  2  5 26  4  7 24  9  8         -0.000000040
  -1895223.499 8  -1345843.98945  24759818.611    24759817.8864   24759830.1734
        -0.000          -0.000
   2019538.966 9   1566673.87246  23238612.769    23238611.9734   23238623.9194
        -0.000          -0.000
  -3826972.439 9  -2945933.77146  22949274.578    22949273.7694   22949283.4314
        -0.000          -0.000
   1996812.473 8   1545692.19244  25306598.732    25306598.9644   25306612.3834
        -0.000          -0.000
  -1645914.947 9  -1274091.15649  20297706.639    20297706.5104   20297714.1664
        -0.000          -0.000
   1967811.670 9   1526859.44247  22513503.065    22513502.1874   22513511.6394
        -0.000          -0.000
  -4112527.505 9  -3191454.43648  21448087.855    21448087.3584   21448097.1764
        -0.000          -0.000
  -1239782.930 9   -869992.51549  21090444.489    21090444.0194   21090452.0894
        -0.000          -0.000
  -4279844.093 9  -3324057.91946  22729354.981    22729354.1864   22729363.7624
        -0.000          -0.000
 99  5 24 16 16  0.0000000  0  9 16  2  5 26  4  7 24  9  8         -0.000000020
  -1906997.046 8  -1355018.14845  24757578.167    24757577.3864   24757589.6634
        -0.000          -0.000
   2054540.175 9   1593947.48246  23245273.349    23245272.5034   23245284.4494
        -0.000          -0.000
  -3867730.788 9  -2977693.49346  22941518.475    22941517.6684   22941527.3864
        -0.000          -0.000
   2030986.684 8   1572321.43544  25313101.850    25313102.3344   25313115.1884
        -0.000          -0.000
  -1652292.731 9  -1279060.84449  20296493.009    20296492.8604   20296500.5044
        -0.000          -0.000
   2000021.906 9   1551958.30647  22519632.528    22519631.6234   22519641.0344
        -0.000          -0.000
  -4152227.512 9  -3222389.47848  21440533.169    21440532.6584   21440542.4674
        -0.000          -0.000
  -1241549.847 9   -871369.33149  21090108.303    21090107.8324   21090115.8724
        -0.000          -0.000
  -4321062.688 9  -3356176.29246  22721511.311    22721510.5664   22721520.1774
        -0.000          -0.000
 99  5 24 16 16 15.0000000  0  8 16  2  5  4  7 24  9  8            -0.000000005
  -1918676.023 8  -1364118.60345  24755355.729    24755354.9444   24755367.1274
        -0.000          -0.000
   2089594.005 9   1621262.08146  23251943.910    23251943.0444   23251954.9564
        -0.000          -0.000
  -3908485.329 9  -3009450.25146  22933763.086    22933762.2874   22933772.0404
        -0.000          -0.000
  -1658529.579 9  -1283920.71849  20295306.187    20295306.0424   20295313.6584
        -0.000          -0.000
   2032231.289 9   1577056.49647  22525761.812    22525760.8904   22525770.2554
        -0.000          -0.000
  -4191837.298 9  -3253254.21848  21432995.685    21432995.1864   21433004.9694
        -0.000          -0.000
  -1243189.197 9   -872646.75349  21089796.377    21089795.8984   21089803.9404
        -0.000          -0.000
  -4362189.772 9  -3388223.36846  22713685.090    22713684.3044   22713693.9444
        -0.000          -0.000
 99  5 24 16 16 30.0000000  0  8 16  2  5  4  7 24  9  8             0.000000001
  -1930257.539 8  -1373143.10345  24753151.827    24753151.0004   24753163.2634
        -0.000          -0.000
   2124699.058 9   1648616.61346  23258624.299    23258623.4104   23258635.2944
        -0.000          -0.000
  -3949232.632 9  -3041201.36846  22926009.056    22926008.2744   22926018.0634
        -0.000          -0.000
  -1664622.032 9  -1288668.06949  20294146.809    20294146.6554   20294154.2764
        -0.000          -0.000
   2064443.396 9   1602156.81647  22531891.653    22531890.7364   22531900.0294
        -0.000          -0.000
  -4231357.049 9  -3284048.79748  21425475.306    21425474.8024   21425484.5574
        -0.000          -0.000
  -1244695.822 9   -873820.74849  21089509.693    21089509.1874   21089517.2574
        -0.000          -0.000
  -4403225.970 9  -3420199.60346  22705876.166    22705875.3594   22705885.0944
        -0.000          -0.000
 99  5 24 16 16 45.0000000  0  8 16  2  5  4  7 24  9  8             0.000000006
  -1941728.420 8  -1382081.39945  24750969.061    24750968.1424   24750980.5824
        -0.000          -0.000
   2159866.100 9   1676019.44546  23265316.398    23265315.4574   23265327.3964
        -0.000          -0.000
  -3989961.552 9  -3072938.16746  22918258.608    22918257.8304   22918267.5704
        -0.000          -0.000
  -1670560.296 9  -1293295.27649  20293016.780    20293016.6274   20293024.2684
        -0.000          -0.000
   2096674.050 9   1627271.58747  22538024.979    22538024.0404   22538033.3074
        -0.000          -0.000
  -4270774.897 9  -3314763.97348  21417974.327    21417973.8154   21417983.5634
        -0.000          -0.000
  -1246057.273 9   -874881.62349  21089250.595    21089250.1064   21089258.1824
        -0.000          -0.000
  -4444158.520 9  -3452095.09346  22698086.946    22698086.1224   22698095.8934
        -0.000          -0.000
 99  5 24 16 17  0.0000000  0  8 16  2  5  4  7 24  9  8             0.000000005
  -1953090.718 8  -1390935.09045  24748806.862    24748805.7494   24748818.4064
        -0.000          -0.000
   2195090.560 9   1703467.01146  23272019.448    23272018.4864   23272030.4664
        -0.000          -0.000
  -4030677.734 9  -3104665.03846  22910510.576    22910509.7644   22910519.4934
        -0.000          -0.000
  -1676347.153 9  -1297804.50249  20291915.576    20291915.4194   20291923.0714
        -0.000          -0.000
   2128923.833 9   1652401.25847  22544161.950    22544160.9924   22544170.2234
        -0.000          -0.000
  -4310093.599 9  -3345401.89048  21410492.188    21410491.6854   21410501.4274
        -0.000          -0.000
  -1247277.771 9   -875832.66449  21089018.320    21089017.8474   21089025.9224
        -0.000          -0.000
  -4484988.361 9  -3483910.53346  22690317.273    22690316.4414   22690326.2734
        -0.000          -0.000
 99  5 24 16 17 15.0000000  0  8 16  2  5  4  7 24  9  8             0.000000004
  -1964336.131 8  -1399697.70845  24746666.829    24746665.7604   24746678.3874
        -0.000          -0.000
   2230379.120 9   1730964.51846  23278734.641    23278733.7084   23278745.8274
        -0.000          -0.000
  -4071375.263 9  -3136377.38646  22902766.122    22902765.3154   22902775.0014
        -0.000          -0.000
  -1681976.121 9  -1302190.70149  20290844.399    20290844.2514   20290851.9144
        -0.000          -0.000
   2161201.828 9   1677552.91247  22550304.271    22550303.3004   22550312.5344
        -0.000          -0.000
  -4349306.911 9  -3375957.69148  21403030.134    21403029.6414   21403039.3664
        -0.000          -0.000
  -1248351.970 9   -876669.70649  21088813.893    21088813.3994   21088821.4824
        -0.000          -0.000
  -4525704.921 9  -3515637.71846  22682569.108    22682568.3354   22682578.1294
        -0.000          -0.000
 99  5 24 16 17 30.0000000  0  8 16  2  5  4  7 24  9  8            -0.000000002
  -1975466.649 8  -1408370.79045  24744548.614    24744547.6064   24744560.2364
        -0.000          -0.000
   2265722.521 9   1758504.77246  23285460.284    23285459.4214   23285471.4894
        -0.000          -0.000
  -4112062.550 9  -3168081.74246  22895023.629    22895022.7664   22895032.4774
        -0.000          -0.000
  -1687453.271 9  -1306458.59949  20289802.110    20289801.9724   20289809.6064
        -0.000          -0.000
   2193498.740 9   1702719.31447  22556450.182    22556449.1954   22556458.4114
        -0.000          -0.000
  -4388421.178 9  -3406436.30848  21395586.923    21395586.4444   21395596.1464
        -0.000          -0.000
  -1249286.351 9   -877397.79749  21088636.087    21088635.6114   21088643.6974
        -0.000          -0.000
  -4566314.283 9  -3547281.36346  22674841.427    22674840.6444   22674850.4894
        -0.000          -0.000
 99  5 24 16 17 45.0000000  0  8 16  2  5  4  7 24  9  8            -0.000000016
  -1986479.994 8  -1416952.57245  24742452.735    24742451.7974   24742464.4574
        -0.000          -0.000
   2301121.329 9   1786088.19446  23292196.531    23292195.6984   23292207.7084
        -0.000          -0.000
  -4152736.936 9  -3199776.03946  22887283.540    22887282.6844   22887292.3794
        -0.000          -0.000
  -1692776.360 9  -1310606.45149  20288789.157    20288789.0244   20288796.6334
        -0.000          -0.000
   2225814.200 9   1727900.15847  22562599.619    22562598.6184   22562607.8334
        -0.000          -0.000
  -4427435.560 9  -3436837.09948  21388162.752    21388162.2534   21388171.9614
        -0.000          -0.000
  -1250077.050 9   -878013.93049  21088485.630    21088485.1554   21088493.2494
        -0.000          -0.000
  -4606818.333 9  -3578842.94646  22667133.785    22667133.0114   22667142.8774
        -0.000          -0.000
 99  5 24 16 18  0.0000000  0  8 16  2  5  4  7 24  9  8            -0.000000029
  -1997362.867 8  -1425432.70545  24740381.818    24740380.7814   24740393.4524
        -0.000          -0.000
   2336590.506 9   1813726.44846  23298946.164    23298945.3164   23298957.3164
        -0.000          -0.000
  -4193383.669 9  -3231448.80346  22879548.708    22879547.8294   22879557.4944
        -0.000          -0.000
  -1697931.971 9  -1314623.79949  20287808.081    20287807.9434   20287815.5424
        -0.000          -0.000
   2258160.350 9   1753104.92447  22568754.878    22568753.8974   22568763.1434
        -0.000          -0.000
  -4466336.135 9  -3467149.20948  21380760.194    21380759.6984   21380769.3894
        -0.000          -0.000
  -1250710.810 9   -878507.77349  21088365.030    21088364.5494   21088372.6344
        -0.000          -0.000
  -4647207.535 9  -3610315.03946  22659447.987    22659447.1814   22659457.0564
        -0.000          -0.000
 99  5 24 16 18 15.0000000  0  8 16  2  5  4  7 24  9  8            -0.000000040
  -2008119.816 8  -1433814.69845  24738334.861    24738333.8184   24738346.5174
        -0.000          -0.000
   2372131.196 9   1841420.43346  23305709.420    23305708.5344   23305720.5944
        -0.000          -0.000
  -4234005.697 9  -3263102.30646  22871818.558    22871817.6714   22871827.3384
        -0.000          -0.000
  -1702924.153 9  -1318513.79949  20286858.104    20286857.9704   20286865.5574
        -0.000          -0.000
   2290531.865 9   1778329.45147  22574914.939    22574913.9724   22574923.2504
        -0.000          -0.000
  -4505124.866 9  -3497374.16348  21373378.901    21373378.4084   21373388.0824
        -0.000          -0.000
  -1251192.633 9   -878883.22049  21088273.356    21088272.8824   21088280.9594
        -0.000          -0.000
  -4687485.995 9  -3641700.83546  22651783.278    22651782.5174   22651792.3204
        -0.000          -0.000
 99  5 24 16 18 30.0000000  0  8 16  2  5  4  7 24  9  8            -0.000000049
  -2018760.165 8  -1442105.83245  24736310.017    24736309.0794   24736321.5274
        -0.000          -0.000
   2407740.084 9   1869167.55446  23312485.635    23312484.7134   23312496.7724
        -0.000          -0.000
  -4274608.164 9  -3294740.57046  22864092.157    22864091.3194   22864100.9494
        -0.000          -0.000
  -1707760.755 9  -1322282.57049  20285937.754    20285937.6074   20285945.1994
        -0.000          -0.000
   2322922.886 9   1803569.19147  22581078.719    22581077.7754   22581087.0974
        -0.000          -0.000
  -4543810.737 9  -3527518.97348  21366017.197    21366016.7044   21366026.3754
        -0.000          -0.000
  -1251528.836 9   -879145.20149  21088209.412    21088208.9174   21088217.0134
        -0.000          -0.000
  -4727657.606 9  -3673003.38046  22644138.903    22644138.1094   22644147.8914
        -0.000          -0.000
 99  5 24 16 18 45.0000000  0  8 16  2  5  4  7 24  9  8            -0.000000057
  -2029287.772 8  -1450309.12745  24734306.690    24734305.6574   24734318.0994
        -0.000          -0.000
   2443414.882 9   1896966.02946  23319274.355    23319273.4134   23319285.4584
        -0.000          -0.000
  -4315192.197 9  -3326364.48746  22856369.280    22856368.4454   22856378.0714
        -0.000          -0.000
  -1712445.590 9  -1325933.08149  20285046.263    20285046.1054   20285053.6844
        -0.000          -0.000
   2355331.595 9   1828822.70047  22587245.923    22587244.9564   22587254.3354
        -0.000          -0.000
  -4582398.031 9  -3557586.96348  21358674.239    21358673.7484   21358683.4354
        -0.000          -0.000
  -1251723.567 9   -879296.94349  21088172.318    21088171.8324   21088179.9174
        -0.000          -0.000
  -4767721.980 9  -3704222.35846  22636514.931    22636514.1374   22636523.9074
        -0.000          -0.000
 99  5 24 16 19  0.0000000  0  8 16  2  5  4  7 24  9  8            -0.000000062
  -2039705.089 8  -1458426.47645  24732324.338    24732323.4284   24732335.7424
        -0.000          -0.000
   2479156.217 9   1924816.36646  23326075.746    23326074.7944   23326086.8524
        -0.000          -0.000
  -4355759.088 9  -3357975.03046  22848649.666    22848648.7894   22848658.4294
        -0.000          -0.000
  -1716978.934 9  -1329465.54049  20284183.613    20284183.4524   20284191.0504
        -0.000          -0.000
   2387754.410 9   1854087.21047  22593415.786    22593414.8444   22593424.2544
        -0.000          -0.000
  -4620885.056 9  -3587576.82548  21351350.364    21351349.8884   21351359.5684
        -0.000          -0.000
  -1251780.517 9   -879341.32449  21088161.482    21088161.0104   21088169.0904
        -0.000          -0.000
  -4807677.247 9  -3735356.33146  22628911.699    22628910.9214   22628920.6284
        -0.000          -0.000
 99  5 24 16 19 15.0000000  0  8 16  2  5  4  7 24  9  8            -0.000000065
  -2050019.083 8  -1466463.31045  24730361.668    24730360.7474   24730373.0384
        -0.000          -0.000
   2514962.543 9   1952717.32946  23332889.524    23332888.5874   23332900.6304
        -0.000          -0.000
  -4396310.741 9  -3389573.70946  22840932.962    22840932.0924   22840941.7474
        -0.000          -0.000
  -1721364.569 9  -1332882.90549  20283349.022    20283348.8804   20283356.4814
        -0.000          -0.000
   2420183.328 9   1879356.47547  22599586.802    22599585.8624   22599595.3344
        -0.000          -0.000
  -4659275.977 9  -3617491.80248  21344044.820    21344044.3464   21344054.0274
        -0.000          -0.000
  -1251702.140 9   -879280.25349  21088176.460    21088175.9794   21088184.0424
        -0.000          -0.000
  -4847528.804 9  -3766409.48646  22621328.206    22621327.4314   22621337.1224
        -0.000          -0.000
 99  5 24 16 19 30.0000000  0  8 16  2  5  4  7 24  9  8            -0.000000065
  -2060227.312 8  -1474417.73545  24728419.155    24728418.3314   24728430.3054
        -0.000          -0.000
   2550836.737 9   1980671.17446  23339716.253    23339715.3414   23339727.3264
        -0.000          -0.000
  -4436842.439 9  -3421156.84646  22833220.021    22833219.1314   22833228.7704
        -0.000          -0.000
  -1725598.973 9  -1336182.43149  20282543.217    20282543.0784   20282550.6944
        -0.000          -0.000
   2452615.896 9   1904628.58047  22605758.471    22605757.5604   22605767.0414
        -0.000          -0.000
  -4697567.133 9  -3647329.04148  21336758.212    21336757.7504   21336767.4274
        -0.000          -0.000
  -1251482.942 9   -879109.45549  21088218.194    21088217.7014   21088225.7544
        -0.000          -0.000
  -4887276.184 9  -3797381.46446  22613764.526    22613763.7274   22613773.4224
        -0.000          -0.000
 99  5 24 16 19 45.0000000  0  8 16  2  5  4  7 24  9  8            -0.000000066
  -2070338.019 8  -1482296.16945  24726495.118    24726494.2954   24726506.1854
        -0.000          -0.000
   2586773.986 9   2008674.15446  23346554.927    23346554.0674   23346566.0364
        -0.000          -0.000
  -4477361.639 9  -3452730.23146  22825509.442    22825508.5394   22825518.1614
        -0.000          -0.000
  -1729687.397 9  -1339368.20249  20281765.238    20281765.1064   20281772.7014
        -0.000          -0.000
   2485043.992 9   1929897.20747  22611929.294    22611928.4084   22611937.9964
        -0.000          -0.000
  -4735763.223 9  -3677092.19948  21329489.734    21329489.2824   21329498.9434
        -0.000          -0.000
  -1251127.113 9   -878832.19049  21088285.908    21088285.4144   21088293.4884
        -0.000          -0.000
  -4926928.178 9  -3828279.10646  22606219.002    22606218.1914   22606227.9304
        -0.000          -0.000
 99  5 24 16 20  0.0000000  0  8 16  2  5  4  7 24  9  8            -0.000000061
  -2080345.175 8  -1490093.90845  24724590.779    24724589.9434   24724601.9124
        -0.000          -0.000
   2622786.391 9   2036735.70146  23353407.905    23353407.0624   23353419.0464
        -0.000          -0.000
  -4517859.019 9  -3484286.62146  22817803.008    22817802.1244   22817811.7324
        -0.000          -0.000
  -1733619.546 9  -1342432.20449  20281016.996    20281016.8544   20281024.4434
        -0.000          -0.000
   2517478.423 9   1955170.75947  22618101.353    22618100.4944   22618110.0954
        -0.000          -0.000
  -4773851.512 9  -3706771.35748  21322241.748    21322241.3004   21322250.9714
        -0.000          -0.000
  -1250625.853 9   -878441.60849  21088381.262    21088380.7684   21088388.8534
        -0.000          -0.000
  -4966474.418 9  -3859094.36646  22598693.656    22598692.7914   22598702.4964
        -0.000          -0.000
 99  5 24 16 20 15.0000000  0  8 16  2  5  4  7 24  9  8            -0.000000057
  -2090257.883 8  -1497818.05645  24722704.324    24722703.5394   24722715.5974
        -0.000          -0.000
   2658862.547 9   2064846.92446  23360273.052    23360272.2104   23360284.2124
        -0.000          -0.000
  -4558348.668 9  -3515836.98746  22810098.089    22810097.2284   22810106.8074
        -0.000          -0.000
  -1737405.594 9  -1345382.35949  20280296.521    20280296.3734   20280303.9684
        -0.000          -0.000
   2549907.166 9   1980439.88547  22624272.372    22624271.4434   22624281.1054
        -0.000          -0.000
  -4811843.054 9  -3736375.12748  21315012.157    21315011.7054   21315021.3754
        -0.000          -0.000
  -1249991.404 9   -877947.23549  21088501.981    21088501.5144   21088509.5864
        -0.000          -0.000
  -5005922.336 9  -3889832.99246  22591186.955    22591186.0784   22591195.7544
        -0.000          -0.000
 99  5 24 16 20 30.0000000  0  8 16  2  5  4  7 24  9  8            -0.000000052
  -2100070.556 8  -1505464.25645  24720837.007    24720836.1614   24720848.1364
        -0.000          -0.000
   2695003.901 9   2093008.94746  23367150.581    23367149.7394   23367161.7154
        -0.000          -0.000
  -4598827.186 9  -3547378.67447  22802395.312    22802394.4414   22802403.9594
        -0.000          -0.000
  -1741039.510 9  -1348213.96949  20279605.004    20279604.8424   20279612.4564
        -0.000          -0.000
   2582335.194 9   2005708.45447  22630443.264    22630442.3104   22630451.9894
        -0.000          -0.000
  -4849733.111 9  -3765899.81448  21307801.915    21307801.4564   21307811.1384
        -0.000          -0.000
  -1249218.945 9   -877345.32649  21088649.016    21088648.5524   21088656.5954
        -0.000          -0.000
  -5045262.673 9  -3920487.79946  22583700.739    22583699.9094   22583709.5154
        -0.000          -0.000
 99  5 24 16 20 45.0000000  0  8 16  2  5  4  7 24  9  8            -0.000000046
  -2109772.529 8  -1513024.19145  24718990.859    24718989.9994   24719001.8124
        -0.000          -0.000
   2731212.095 9   2121223.06746  23374040.808    23374039.9684   23374051.9034
        -0.000          -0.000
  -4639288.941 9  -3578907.30947  22794695.715    22794694.8214   22794704.3294
        -0.000          -0.000
  -1744516.339 9  -1350923.17749  20278943.363    20278943.2104   20278950.8124
        -0.000          -0.000
   2614770.024 9   2030982.32647  22636615.426    22636614.4484   22636624.1944
        -0.000          -0.000
  -4887515.132 9  -3795340.32348  21300612.183    21300611.7234   21300621.4034
        -0.000          -0.000
  -1248300.597 9   -876629.73549  21088823.789    21088823.3114   21088831.3394
        -0.000          -0.000
  -5084488.310 9  -3951053.22946  22576236.314    22576235.4984   22576245.1164
        -0.000          -0.000
 99  5 24 16 21  0.0000000  0  8 16  2  5  4  7 24  9  8            -0.000000039
  -2119363.206 8  -1520497.40545  24717165.813    24717164.9634   24717176.6364
        -0.000          -0.000
   2767484.973 9   2149487.57246  23380943.380    23380942.5404   23380954.4854
        -0.000          -0.000
  -4679739.654 9  -3610427.33447  22786998.214    22786997.3204   22787006.8094
        -0.000          -0.000
  -1747838.981 9  -1353512.23549  20278311.055    20278310.9084   20278318.5284
        -0.000          -0.000
   2647207.253 9   2056258.05647  22642787.973    22642787.0254   22642796.8184
        -0.000          -0.000
  -4925188.707 9  -3824696.33248  21293443.137    21293442.6864   21293452.3534
        -0.000          -0.000
  -1247238.070 9   -875801.79749  21089026.010    21089025.5314   21089033.5474
        -0.000          -0.000
  -5123602.650 9  -3981531.92846  22568793.091    22568792.3004   22568801.8734
        -0.000          -0.000
 99  5 24 16 21 15.0000000  0  8 16  2  5  4  7 24  9  8            -0.000000034
  -2128841.148 8  -1527882.75945  24715362.126    24715361.4014   24715372.9834
        -0.000          -0.000
   2803823.436 9   2177803.19246  23387858.439    23387857.5634   23387869.5734
        -0.000          -0.000
  -4720181.671 9  -3641940.57847  22779302.312    22779301.4484   22779310.9834
        -0.000          -0.000
  -1751010.516 9  -1355983.55549  20277707.527    20277707.3854   20277714.9964
        -0.000          -0.000
   2679647.216 9   2081535.93147  22648961.104    22648960.1414   22648969.9824
        -0.000          -0.000
  -4962755.562 9  -3853969.18148  21286294.373    21286293.9154   21286303.5654
        -0.000          -0.000
  -1246028.976 9   -874859.65149  21089256.103    21089255.6324   21089263.6264
        -0.000          -0.000
  -5162608.981 9  -4011926.47546  22561370.453    22561369.6694   22561379.1504
        -0.000          -0.000
 99  5 24 16 21 30.0000000  0  8 16  2  5  4  7 24  9  8            -0.000000030
  -2138209.945 8  -1535183.07945  24713579.308    24713578.7354   24713590.1884
        -0.000          -0.000
   2840221.633 9   2206165.35146  23394784.782    23394783.9284   23394796.0214
        -0.000          -0.000
  -4760620.052 9  -3673450.97947  22771607.109    22771606.2654   22771615.8274
        -0.000          -0.000
  -1754035.944 9  -1358341.01949  20277131.774    20277131.6244   20277139.2694
        -0.000          -0.000
   2712086.370 9   2106813.16447  22655134.053    22655133.0784   22655142.9564
        -0.000          -0.000
  -5000221.895 9  -3883163.69648  21279164.740    21279164.2814   21279173.9224
        -0.000          -0.000
  -1244676.577 9   -873805.83449  21089513.510    21089513.0344   21089521.0074
        -0.000          -0.000
  -5201512.666 9  -4042241.03546  22553967.377    22553966.5644   22553976.0314
        -0.000          -0.000
 99  5 24 16 21 45.0000000  0  8 16  2  5  4  7 24  9  8            -0.000000024
  -2147451.523 8  -1542384.26345  24711820.675    24711820.2124   24711831.5324
        -0.000          -0.000
   2876695.734 9   2234586.64746  23401725.590    23401724.7534   23401736.9524
        -0.000          -0.000
  -4801040.793 9  -3704947.64947  22763915.277    22763914.4704   22763924.0094
        -0.000          -0.000
  -1756900.424 9  -1360573.07249  20276586.660    20276586.5114   20276594.1564
        -0.000          -0.000
   2744543.064 9   2132104.06947  22661310.352    22661309.4224   22661319.2714
        -0.000          -0.000
  -5037571.451 9  -3912267.22348  21272057.344    21272056.8914   21272066.5324
        -0.000          -0.000
  -1243166.809 9   -872629.39449  21089800.834    21089800.3454   21089808.3024
        -0.000          -0.000
  -5240298.281 9  -4072463.58946  22546586.753    22546585.9134   22546595.3834
        -0.000          -0.000
 99  5 24 16 22  0.0000000  0  8 16  2  5  4  7 24  9  8            -0.000000016
  -2156570.404 8  -1549489.84745  24710085.478    24710084.9644   24710096.2254
        -0.000          -0.000
   2913240.785 9   2263063.23446  23408679.926    23408679.0984   23408691.3864
        -0.000          -0.000
  -4841448.689 9  -3736434.30947  22756225.942    22756225.1334   22756234.6354
        -0.000          -0.000
  -1759611.712 9  -1362685.75649  20276070.713    20276070.5794   20276078.2334
        -0.000          -0.000
   2777015.232 9   2157407.03847  22667489.599    22667488.6944   22667498.5694
        -0.000          -0.000
  -5074811.402 9  -3941285.34248  21264970.814    21264970.3474   21264979.9674
        -0.000          -0.000
  -1241507.017 9   -871336.05549  21090116.691    21090116.1964   21090124.1674
        -0.000          -0.000
  -5278969.744 9  -4102597.19546  22539227.853    22539226.9884   22539236.4544
        -0.000          -0.000
 99  5 24 16 22 15.0000000  0  8 16  2  5  4  7 24  9  8            -0.000000011
  -2165573.294 8  -1556505.06245  24708372.332    24708371.7304   24708383.0564
        -0.000          -0.000
   2949844.247 9   2291585.32646  23415645.347    23415644.5164   23415656.8744
        -0.000          -0.000
  -4881850.036 9  -3767915.86847  22748537.836    22748537.0464   22748546.5234
        -0.000          -0.000
  -1762179.211 9  -1364686.40049  20275582.103    20275581.9874   20275589.6404
        -0.000          -0.000
   2809492.812 9   2182714.21447  22673669.928    22673668.9854   22673678.9044
        -0.000          -0.000
  -5111954.168 9  -3970227.72948  21257902.797    21257902.3304   21257911.9434
        -0.000          -0.000
  -1239708.998 9   -869935.00549  21090458.830    21090458.3594   21090466.3174
        -0.000          -0.000
  -5317535.718 9  -4132648.61246  22531888.977    22531888.1284   22531897.5804
        -0.000          -0.000
 99  5 24 16 22 30.0000000  0  8 16  2  5  4  7 24  9  8            -0.000000016
  -2174464.050 8  -1563432.88145  24706680.484    24706679.8414   24706691.1774
        -0.000          -0.000
   2986499.960 9   2320148.15746  23422620.838    23422619.9174   23422632.3324
        -0.000          -0.000
  -4922246.083 9  -3799393.28847  22740850.686    22740849.8574   22740859.3754
        -0.000          -0.000
  -1764606.550 9  -1366577.82549  20275120.201    20275120.0674   20275127.7484
        -0.000          -0.000
   2841973.857 9   2208024.10147  22679850.908    22679849.9664   22679859.8914
        -0.000          -0.000
  -5149006.566 9  -3999099.69348  21250851.941    21250851.4824   21250861.0884
        -0.000          -0.000
  -1237776.214 9   -868428.94249  21090826.642    21090826.1754   21090834.1474
        -0.000          -0.000
  -5356002.009 9  -4162622.34246  22524569.020    22524568.2164   22524577.6864
        -0.000          -0.000
 99  5 24 16 22 45.0000000  0  8 16  2  5  4  7 24  9  8            -0.000000011
  -2183220.044 8  -1570255.68845  24705014.207    24705013.4564   24705024.9084
        -0.000          -0.000
   3023233.001 9   2348771.24046  23429610.987    23429610.0384   23429622.5064
        -0.000          -0.000
  -4962610.151 9  -3830845.79447  22733169.645    22733168.8354   22733178.3574
        -0.000          -0.000
  -1766872.697 9  -1368343.64549  20274688.982    20274688.8354   20274696.5224
        -0.000          -0.000
   2874482.499 9   2233355.48747  22686037.122    22686036.1944   22686046.0984
        -0.000          -0.000
  -5185941.939 9  -4027880.47948  21243823.397    21243822.9174   21243832.5014
        -0.000          -0.000
  -1235684.016 9   -866798.66049  21091224.761    21091224.2794   21091232.2894
        -0.000          -0.000
  -5394346.802 9  -4192501.39946  22517272.224    22517271.4484   22517280.9484
        -0.000          -0.000
 99  5 24 16 23  0.0000000  0  8 16  2  5  4  7 24  9  8            -0.000000008
  -2191859.239 8  -1576987.48145  24703370.160    24703369.3044   24703380.9794
        -0.000          -0.000
   3060029.929 9   2377444.10946  23436613.270    23436612.3504   23436624.8074
        -0.000          -0.000
  -5002958.638 9  -3862286.15547  22725491.563    22725490.7404   22725500.2924
        -0.000          -0.000
  -1768994.298 9  -1369996.83249  20274285.224    20274285.0854   20274292.7634
        -0.000          -0.000
   2907001.121 9   2258694.64747  22692225.282    22692224.3504   22692234.2254
        -0.000          -0.000
  -5222777.282 9  -4056583.31448  21236813.845    21236813.3604   21236822.9414
        -0.000          -0.000
  -1233449.718 9   -865057.65149  21091649.960    21091649.4754   21091657.5164
        -0.000          -0.000
  -5432590.788 9  -4222301.90246  22509994.596    22509993.7964   22510003.3574
        -0.000          -0.000
 99  5 24 16 23 15.0000000  0  8 16  2  5  4  7 24  9  8            -0.000000004
  -2200383.273 8  -1583629.56245  24701748.021    24701747.0774   24701758.8634
        -0.000          -0.000
   3096895.444 9   2406170.41146  23443628.607    23443627.6844   23443640.1594
        -0.000          -0.000
  -5043286.863 9  -3893710.72647  22717817.338    22717816.5534   22717826.0974
        -0.000          -0.000
  -1770965.883 9  -1371533.13049  20273910.043    20273909.9044   20273917.5684
        -0.000          -0.000
   2939531.709 9   2284043.13847  22698415.691    22698414.7254   22698424.5644
        -0.000          -0.000
  -5259509.287 9  -4085205.63048  21229823.923    21229823.4494   21229833.0324
        -0.000          -0.000
  -1231071.929 9   -863204.83649  21092102.415    21092101.9324   21092109.9934
        -0.000          -0.000
  -5470732.113 9  -4252022.41747  22502736.522    22502735.7504   22502745.3064
        -0.000          -0.000
 99  5 24 16 23 30.0000000  0  8 16  2  5  4  7 24  9  8            -0.000000000
  -2208796.496 8  -1590185.29245  24700146.961    24700145.9654   24700157.8964
        -0.000          -0.000
   3133825.291 9   2434946.83646  23450656.208    23450655.2794   23450667.7034
        -0.000          -0.000
  -5083593.203 9  -3925118.24347  22710147.254    22710146.4734   22710156.0414
        -0.000          -0.000
  -1772787.725 9  -1372952.74149  20273563.366    20273563.2344   20273570.8834
        -0.000          -0.000
   2972072.995 9   2309399.95847  22704608.100    22704607.1674   22704616.9774
        -0.000          -0.000
  -5296138.856 9  -4113748.12648  21222853.530    21222853.0554   21222862.6394
        -0.000          -0.000
  -1228554.548 9   -861243.24549  21092581.429    21092580.9504   21092589.0254
        -0.000          -0.000
  -5508770.630 9  -4281662.81747  22495498.064    22495497.3114   22495506.8484
        -0.000          -0.000
 99  5 24 16 23 45.0000000  0  8 16  2  5  4  7 24  9  8             0.000000006
  -2217091.445 8  -1596648.84445  24698568.391    24698567.3974   24698579.5184
        -0.000          -0.000
   3170827.203 9   2463779.42446  23457697.488    23457696.5554   23457708.9994
        -0.000          -0.000
  -5123869.305 9  -3956502.19847  22702482.962    22702482.2084   22702491.7694
        -0.000          -0.000
  -1774448.522 9  -1374246.86649  20273247.329    20273247.1934   20273254.8304
        -0.000          -0.000
   3004634.177 9   2334772.28047  22710804.314    22710803.3784   22710813.1764
        -0.000          -0.000
  -5332658.450 9  -4142204.92548  21215904.097    21215903.6064   21215913.1764
        -0.000          -0.000
  -1225889.836 9   -859166.85349  21093088.474    21093087.9894   21093096.0794
        -0.000          -0.000
  -5546695.766 9  -4311214.87947  22488281.132    22488280.3874   22488289.8704
        -0.000          -0.000
 99  5 24 16 24  0.0000000  0  8 16  2  5  4  7 24  9  8             0.000000012
  -2225274.179 8  -1603024.97245  24697011.094    24697010.3154   24697022.4214
        -0.000          -0.000
   3207894.190 9   2492662.70646  23464751.128    23464750.2114   23464762.7244
        -0.000          -0.000
  -5164122.344 9  -3987868.17847  22694823.107    22694822.3024   22694831.8304
        -0.000          -0.000
  -1775952.992 9  -1375419.17449  20272961.052    20272960.9014   20272968.5474
        -0.000          -0.000
   3037209.257 9   2360155.43847  22717003.211    22717002.2764   22717012.0734
        -0.000          -0.000
  -5369072.997 9  -4170579.87048  21208974.602    21208974.1134   21208983.6744
        -0.000          -0.000
  -1223084.628 9   -856980.98049  21093622.268    21093621.7904   21093629.8874
        -0.000          -0.000
  -5584509.475 9  -4340680.09047  22481085.439    22481084.6894   22481094.2094
        -0.000          -0.000
 99  5 24 16 24 15.0000000  0  8 16  2  5  4  7 24  9  8             0.000000009
  -2233354.229 8  -1609321.09745  24695473.503    24695472.7804   24695484.7274
        -0.000          -0.000
   3245015.240 9   2521588.12246  23471815.070    23471814.1414   23471826.7514
        -0.000          -0.000
  -5204361.259 9  -4019223.16347  22687165.912    22687165.0724   22687174.5754
        -0.000          -0.000
  -1777308.177 9  -1376475.15649  20272703.170    20272703.0104   20272710.6774
        -0.000          -0.000
   3069789.744 9   2385542.80247  22723203.124    22723202.1744   22723211.9374
        -0.000          -0.000
  -5405390.768 9  -4198879.40748  21202063.558    21202063.0774   21202072.5944
        -0.000          -0.000
  -1220148.557 9   -854693.14049  21094180.976    21094180.5034   21094188.5974
        -0.000          -0.000
  -5622219.081 9  -4370064.19847  22473909.601    22473908.8174   22473918.3494
        -0.000          -0.000
 99  5 24 16 24 30.0000000  0  8 16  2  5  4  7 24  9  8             0.000000006
  -2241319.464 8  -1615527.75545  24693957.751    24693957.0804   24693968.9804
        -0.000          -0.000
   3282203.194 9   2550565.66446  23478891.747    23478890.8224   23478903.4444
        -0.000          -0.000
  -5244575.483 9  -4050558.89647  22679513.346    22679512.5104   22679522.0014
        -0.000          -0.000
  -1778502.062 9  -1377405.45149  20272475.976    20272475.8174   20272483.4954
        -0.000          -0.000
   3102388.152 9   2410944.12747  22729406.460    22729405.5004   22729415.2984
        -0.000          -0.000
  -5441597.453 9  -4227092.38848  21195173.659    21195173.1774   21195182.6684
        -0.000          -0.000
  -1217066.681 9   -852291.68549  21094767.448    21094766.9774   21094775.0614
        -0.000          -0.000
  -5659812.383 9  -4399357.67347  22466755.822    22466755.0094   22466764.5894
        -0.000          -0.000
 99  5 24 16 24 45.0000000  0  8 16  2  5  4  7 24  9  8             0.000000009
  -2249163.999 8  -1621640.36745  24692465.000    24692464.2134   24692476.2934
        -0.000          -0.000
   3319466.665 9   2579602.06346  23485982.788    23485981.8834   23485994.5474
        -0.000          -0.000
  -5284760.308 9  -4081871.71547  22671866.417    22671865.5744   22671875.0374
        -0.000          -0.000
  -1779529.769 9  -1378206.25849  20272280.386    20272280.2424   20272287.9184
        -0.000          -0.000
   3135011.053 9   2436364.54147  22735614.399    22735613.4624   22735623.2604
        -0.000          -0.000
  -5477683.826 9  -4255211.61448  21188306.633    21188306.1414   21188315.6114
        -0.000          -0.000
  -1213831.006 9   -849770.38149  21095383.222    21095382.7504   21095390.8374
        -0.000          -0.000
  -5697281.603 9  -4428554.44147  22459625.659    22459624.8564   22459634.4514
        -0.000          -0.000
 99  5 24 16 25  0.0000000  0  8 16  2  5  4  7 24  9  8             0.000000012
  -2256895.288 8  -1627664.74845  24690993.911    24690993.0604   24691005.1264
        -0.000          -0.000
   3356796.728 9   2608690.34846  23493086.528    23493085.6554   23493098.3754
        -0.000          -0.000
  -5324927.526 9  -4113170.82947  22664222.852    22664222.0054   22664231.4544
        -0.000          -0.000
  -1780403.408 9  -1378887.01449  20272114.135    20272113.9884   20272121.6444
        -0.000          -0.000
   3167646.380 9   2461794.64147  22741824.772    22741823.8234   22741833.6384
        -0.000          -0.000
  -5513659.753 9  -4283244.78048  21181460.601    21181460.1204   21181469.5934
        -0.000          -0.000
  -1210452.978 9   -847138.15749  21096026.053    21096025.5654   21096033.6614
        -0.000          -0.000
  -5734635.310 9  -4457661.22147  22452517.460    22452516.6264   22452526.2654
        -0.000          -0.000
 99  5 24 16 25 15.0000000  0  8 16  2  5  4  7 24  9  8             0.000000012
  -2264518.030 8  -1633604.53945  24689543.411    24689542.6554   24689554.5884
        -0.000          -0.000
   3394186.074 9   2637824.83246  23500201.552    23500200.6694   23500213.3874
        -0.000          -0.000
  -5365081.968 9  -4144459.97747  22656581.725    22656580.8754   22656590.3144
        -0.000          -0.000
  -1781126.582 9  -1379450.52549  20271976.490    20271976.3434   20271983.9954
        -0.000          -0.000
   3200290.902 9   2487231.90247  22748036.852    22748035.9124   22748045.6974
        -0.000          -0.000
  -5549529.889 9  -4311195.50848  21174634.718    21174634.2464   21174643.6924
        -0.000          -0.000
  -1206937.025 9   -844398.46149  21096695.106    21096694.6424   21096702.7234
        -0.000          -0.000
  -5771877.468 9  -4486681.07247  22445430.520    22445429.7324   22445439.3394
        -0.000          -0.000
 99  5 24 16 25 30.0000000  0  8 16  2  5  4  7 24  9  8             0.000000015
  -2272019.765 8  -1639450.03345  24688115.856    24688115.1934   24688127.1184
        -0.000          -0.000
   3431643.297 9   2667012.20946  23507329.539    23507328.5844   23507341.2774
        -0.000          -0.000
  -5405212.138 9  -4175730.20947  22648945.135    22648944.3024   22648953.7354
        -0.000          -0.000
  -1781690.524 9  -1379889.95949  20271869.202    20271869.0674   20271876.6874
        -0.000          -0.000
   3232956.470 9   2512685.57047  22754252.912    22754251.9994   22754261.7524
        -0.000          -0.000
  -5585283.737 9  -4339055.63148  21167830.982    21167830.5164   21167839.9574
        -0.000          -0.000
  -1203272.119 9   -841542.69849  21097392.540    21097392.0794   21097400.1614
        -0.000          -0.000
  -5808995.056 9  -4515603.86147  22438367.282    22438366.5024   22438376.0404
        -0.000          -0.000
 99  5 24 16 25 45.0000000  0  8 16  2  5  4  7 24  9  8             0.000000017
  -2279404.612 8  -1645204.45945  24686710.615    24686709.8164   24686721.6814
        -0.000          -0.000
   3469162.481 9   2696247.86746  23514469.255    23514468.3024   23514480.9924
        -0.000          -0.000
  -5445325.645 9  -4206987.46347  22641311.734    22641310.9664   22641320.3354
        -0.000          -0.000
  -1782103.137 9  -1380211.47649  20271790.653    20271790.5024   20271798.1234
        -0.000          -0.000
   3265636.657 9   2538150.62147  22760471.794    22760470.8844   22760480.6034
        -0.000          -0.000
  -5620929.576 9  -4366831.58348  21161047.757    21161047.2824   21161056.7184
        -0.000          -0.000
  -1199465.228 9   -838576.29649  21098116.975    21098116.5184   21098124.5854
        -0.000          -0.000
  -5845994.540 9  -4544434.61047  22431326.511    22431325.7164   22431335.2324
        -0.000          -0.000
 99  5 24 16 26  0.0000000  0  8 16  2  5  4  7 24  9  8             0.000000019
  -2286672.482 8  -1650867.73845  24685327.609    24685326.7634   24685338.6064
        -0.000          -0.000
   3506743.709 9   2725531.86646  23521620.788    23521619.8714   23521632.5064
        -0.000          -0.000
  -5485425.935 9  -4238234.42247  22633680.908    22633680.1604   22633689.4794
        -0.000          -0.000
  -1782367.833 9  -1380417.73149  20271740.291    20271740.1564   20271747.7884
        -0.000          -0.000
   3298328.763 9   2563624.96847  22766692.914    22766691.9784   22766701.6764
        -0.000          -0.000
  -5656467.834 9  -4394523.71248  21154285.056    21154284.5934   21154294.0124
        -0.000          -0.000
  -1195518.673 9   -835501.06449  21098867.984    21098867.5184   21098875.6004
        -0.000          -0.000
  -5882878.141 9  -4573175.06147  22424307.815    22424307.0054   22424316.5044
        -0.000          -0.000
 99  5 24 16 26 15.0000000  0  8 16  2  5  4  7 24  9  8             0.000000019
  -2293825.314 8  -1656441.36745  24683966.457    24683965.7464   24683977.4154
        -0.000          -0.000
   3544383.027 9   2754861.12046  23528783.383    23528782.4924   23528795.1304
        -0.000          -0.000
  -5525513.728 9  -4269471.64547  22626052.499    22626051.7404   22626060.9934
        -0.000          -0.000
  -1782489.948 9  -1380512.88749  20271717.031    20271716.8934   20271724.5204
        -0.000          -0.000
   3331027.675 9   2589104.61047  22772915.315    22772914.3994   22772924.0634
        -0.000          -0.000
  -5691899.397 9  -4422132.70048  21147542.656    21147542.1814   21147551.6104
        -0.000          -0.000
  -1191435.759 9   -832319.58349  21099644.950    21099644.4904   21099652.5884
        -0.000          -0.000
  -5919651.282 9  -4601829.44347  22417310.086    22417309.2504   22417318.7754
        -0.000          -0.000
 99  5 24 16 26 30.0000000  0  8 16  2  5  4  7 24  9  8             0.000000018
  -2300864.758 8  -1661926.65045  24682626.881    24682626.2344   24682637.9624
        -0.000          -0.000
   3582078.084 9   2784233.81146  23535956.594    23535955.6674   23535968.3514
        -0.000          -0.000
  -5565589.331 9  -4300699.36047  22618426.367    22618425.5794   22618434.8204
        -0.000          -0.000
  -1782475.107 9  -1380501.32149  20271719.864    20271719.7204   20271727.3364
        -0.000          -0.000
   3363727.948 9   2614585.31547  22779138.008    22779137.1024   22779146.7644
        -0.000          -0.000
  -5727228.797 9  -4449662.07548  21140819.658    21140819.1664   21140828.6114
        -0.000          -0.000
  -1187216.887 9   -829032.15749  21100447.788    21100447.3344   21100455.4104
        -0.000          -0.000
  -5956317.171 9  -4630400.25147  22410332.749    22410331.9104   22410341.4794
        -0.000          -0.000
 99  5 24 16 26 45.0000000  0  8 16  2  5  4  7 24  9  8             0.000000021
  -2307779.635 8  -1667314.87345  24681311.084    24681310.2554   24681322.2074
        -0.000          -0.000
   3619838.498 9   2813657.44146  23543142.194    23543141.2624   23543154.0464
        -0.000          -0.000
  -5605644.089 9  -4331910.82747  22610804.181    22610803.4064   22610812.6654
        -0.000          -0.000
  -1782312.565 9  -1380374.66749  20271750.796    20271750.6694   20271758.2674
        -0.000          -0.000
   3396436.301 9   2640072.32547  22785362.240    22785361.2934   22785371.0094
        -0.000          -0.000
  -5762447.151 9  -4477104.92748  21134117.830    21134117.3354   21134126.7894
        -0.000          -0.000
  -1182852.859 9   -825631.62449  21101278.252    21101277.7894   21101285.8724
        -0.000          -0.000
  -5992864.808 9  -4658878.91447  22403377.923    22403377.1054   22403386.6644
        -0.000          -0.000
 99  5 24 16 27  0.0000000  0  8 16  2  5  4  7 24  9  8             0.000000025
  -2314573.027 8  -1672608.42945  24680018.224    24680017.4004   24680029.4124
        -0.000          -0.000
   3657661.405 9   2843129.74646  23550339.666    23550338.7694   23550351.5374
        -0.000          -0.000
  -5645681.098 9  -4363108.47547  22603185.318    22603184.5414   22603193.8494
        -0.000          -0.000
  -1782004.248 9  -1380134.41849  20271809.459    20271809.3284   20271816.9214
        -0.000          -0.000
   3429146.685 9   2665560.89747  22791586.897    22791585.9034   22791595.6644
        -0.000          -0.000
  -5797556.890 9  -4504463.14148  21127436.620    21127436.1204   21127445.5634
        -0.000          -0.000
  -1178350.830 9   -822123.55749  21102135.015    21102134.5364   21102142.5914
        -0.000          -0.000
  -6029297.654 9  -4687268.13747  22396444.991    22396444.1944   22396453.6804
        -0.000          -0.000
 99  5 24 16 27 15.0000000  0  8 16  2  5  4  7 24  9  8             0.000000030
  -2321244.521 8  -1677807.00345  24678748.568    24678747.8184   24678759.8484
        -0.000          -0.000
   3695545.328 9   2872649.59846  23557548.752    23557547.8594   23557560.6384
        -0.000          -0.000
  -5685699.075 9  -4394291.28347  22595570.101    22595569.3434   22595578.6724
        -0.000          -0.000
  -1781546.595 9  -1379777.80649  20271896.563    20271896.4184   20271904.0424
        -0.000          -0.000
   3461860.072 9   2691051.82547  22797812.061    22797811.0644   22797820.8694
        -0.000          -0.000
  -5832555.213 9  -4531734.54048  21120776.637    21120776.1314   21120785.5774
        -0.000          -0.000
  -1173710.533 9   -818507.75149  21103018.029    21103017.5554   21103025.5764
        -0.000          -0.000
  -6065615.093 9  -4715567.42047  22389534.042    22389533.2394   22389542.6604
        -0.000          -0.000
 99  5 24 16 27 30.0000000  0  8 16  2  5  4  7 24  9  8             0.000000030
  -2327803.016 8  -1682917.50845  24677500.501    24677499.8124   24677511.8364
        -0.000          -0.000
   3733483.636 9   2902211.82846  23564768.171    23564767.3014   23564780.1054
        -0.000          -0.000
  -5725703.405 9  -4425463.45547  22587957.518    22587956.7334   22587966.1204
        -0.000          -0.000
  -1780943.856 9  -1379308.13649  20272011.259    20272011.1294   20272018.7484
        -0.000          -0.000
   3494568.856 9   2716539.17247  22804036.303    22804035.3554   22804045.1674
        -0.000          -0.000
  -5867448.079 9  -4558923.76348  21114136.727    21114136.2284   21114145.6644
        -0.000          -0.000
  -1168936.821 9   -814787.98449  21103926.442    21103925.9764   21103934.0094
        -0.000          -0.000
  -6101823.400 9  -4743781.67247  22382643.865    22382643.0094   22382652.4574
        -0.000          -0.000
 99  5 24 16 27 45.0000000  0  8 16  2  5  4  7 24  9  8             0.000000028
  -2334243.763 8  -1687936.28545  24676274.950    24676274.2704   24676286.2194
        -0.000          -0.000
   3771482.024 9   2931820.90046  23571999.032    23571998.1554   23572010.9704
        -0.000          -0.000
  -5765691.206 9  -4456622.75347  22580348.037    22580347.2714   22580356.6274
        -0.000          -0.000
  -1780192.130 9  -1378722.37449  20272154.309    20272154.1904   20272161.8124
        -0.000          -0.000
   3527274.905 9   2742024.37747  22810260.064    22810259.0964   22810268.9704
        -0.000          -0.000
  -5902232.426 9  -4586028.42448  21107517.457    21107516.9804   21107526.3894
        -0.000          -0.000
  -1164027.784 9   -810962.76949  21104860.613    21104860.1494   21104868.1794
        -0.000          -0.000
  -6137918.899 9  -4771908.02047  22375775.125    22375774.2444   22375783.6674
        -0.000          -0.000
 99  5 24 16 28  0.0000000  0  8 16  2  5  4  7 24  9  8             0.000000026
  -2340562.445 8  -1692859.93845  24675072.517    24675071.9634   24675083.7444
        -0.000          -0.000
   3809544.620 9   2961479.98545  23579242.186    23579241.3314   23579254.0614
        -0.000          -0.000
  -5805657.731 9  -4487765.47847  22572742.693    22572741.9064   22572751.2804
        -0.000          -0.000
  -1779286.470 9  -1378016.66449  20272326.674    20272326.5404   20272334.1574
        -0.000          -0.000
   3559983.109 9   2767511.24747  22816484.234    22816483.2584   22816493.1554
        -0.000          -0.000
  -5936902.984 9  -4613044.42148  21100919.854    21100919.3774   21100928.7914
        -0.000          -0.000
  -1158976.137 9   -807026.42949  21105821.902    21105821.4544   21105829.4854
        -0.000          -0.000
  -6173897.198 9  -4799943.04347  22368928.677    22368927.7744   22368937.1784
        -0.000          -0.000
 99  5 24 16 28 15.0000000  0  8 16  2  5  4  7 24  9  8             0.000000022
  -2346761.319 8  -1697690.23145  24673892.864    24673892.3694   24673903.9794
        -0.000          -0.000
   3847668.374 9   2991186.74445  23586496.976    23586496.0684   23586508.9034
        -0.000          -0.000
  -5845602.835 9  -4518891.51047  22565141.384    22565140.5794   22565149.9644
        -0.000          -0.000
  -1778229.397 9  -1377192.97549  20272527.853    20272527.7114   20272535.3034
        -0.000          -0.000
   3592691.888 9   2792998.58947  22822708.539    22822707.5684   22822717.4654
        -0.000          -0.000
  -5971459.626 9  -4639971.65048  21094343.924    21094343.4304   21094352.8574
        -0.000          -0.000
  -1153784.208 9   -802980.78349  21106809.907    21106809.4704   21106817.4864
        -0.000          -0.000
  -6209761.726 9  -4827889.41247  22362103.818    22362102.9584   22362112.3834
        -0.000          -0.000
 99  5 24 16 28 30.0000000  0  8 16  2  5  4  7 24  9  8             0.000000019
  -2352838.433 8  -1702425.66445  24672736.425    24672735.9614   24672747.5344
        -0.000          -0.000
   3885855.804 8   3020943.10445  23593763.870    23593762.9874   23593775.7384
        -0.000          -0.000
  -5885522.257 9  -4549997.52047  22557544.954    22557544.1574   22557553.5564
        -0.000          -0.000
  -1777018.586 9  -1376249.48149  20272758.293    20272758.1424   20272765.7254
        -0.000          -0.000
   3625404.303 9   2818488.75647  22828933.499    22828932.5694   22828942.3934
        -0.000          -0.000
  -6005900.058 9  -4666808.32748  21087790.091    21087789.5974   21087799.0234
        -0.000          -0.000
  -1148448.188 9   -798822.85349  21107825.326    21107824.8574   21107832.9044
        -0.000          -0.000
  -6245509.429 9  -4855744.75347  22355301.204    22355300.3784   22355309.8304
        -0.000          -0.000
 99  5 24 16 28 45.0000000  0  8 16  2  5  4  7 24  9  8             0.000000015
  -2358795.181 8  -1707067.27545  24671602.813    24671602.3264   24671613.9534
        -0.000          -0.000
   3924107.780 9   3050749.77445  23601043.057    23601042.1684   23601054.8774
        -0.000          -0.000
  -5925417.817 9  -4581084.94647  22549953.069    22549952.2834   22549961.6824
        -0.000          -0.000
  -1775651.471 9  -1375184.19449  20273018.423    20273018.2824   20273025.8794
        -0.000          -0.000
   3658123.187 9   2843983.96747  22835159.716    22835158.7694   22835168.6064
        -0.000          -0.000
  -6040222.315 9  -4693552.91848  21081258.757    21081258.2794   21081267.7014
        -0.000          -0.000
  -1142969.839 9   -794554.02049  21108867.842    21108867.3654   21108875.4254
        -0.000          -0.000
  -6281139.824 9  -4883508.68347  22348520.965    22348520.1724   22348529.6254
        -0.000          -0.000
 99  5 24 16 29  0.0000000  0  8 16  2  5  4  7 24  9  8             0.000000014
  -2364629.896 8  -1711613.81245  24670492.664    24670491.9834   24670503.5634
        -0.000          -0.000
   3962429.249 9   3080610.57945  23608335.438    23608334.5804   23608347.2634
        -0.000          -0.000
  -5965284.126 9  -4612149.58347  22542366.751    22542365.9454   22542375.3444
        -0.000          -0.000
  -1774123.692 9  -1373993.71849  20273309.151    20273309.0204   20273316.6134
        -0.000          -0.000
   3690855.541 9   2869489.66446  22841388.488    22841387.5764   22841397.3664
        -0.000          -0.000
  -6074418.482 9  -4720199.26348  21074751.426    21074750.9444   21074760.3634
        -0.000          -0.000
  -1137346.360 9   -790172.10349  21109937.941    21109937.4844   21109945.5544
        -0.000          -0.000
  -6316651.215 9  -4911179.88147  22341763.367    22341762.5704   22341772.0304
        -0.000          -0.000
 99  5 24 16 29 15.0000000  0  8 16  2  5  4  7 24  9  8             0.000000007
  -2370357.544 8  -1716076.92745  24669402.885    24669402.1284   24669413.6504
        -0.000          -0.000
   4000805.748 9   3110514.25545  23615638.328    23615637.3754   23615650.1394
        -0.000          -0.000
  -6005129.950 9  -4643198.24947  22534784.374    22534783.5544   22534792.9204
        -0.000          -0.000
  -1772450.858 9  -1372690.21049  20273627.501    20273627.3704   20273634.9464
        -0.000          -0.000
   3723591.407 9   2894998.11247  22847617.942    22847617.0244   22847626.8254
        -0.000          -0.000
  -6108500.172 9  -4746756.39748  21068265.919    21068265.4434   21068274.8244
        -0.000          -0.000
  -1131589.263 9   -785686.06449  21111033.466    21111033.0064   21111041.0944
        -0.000          -0.000
  -6352056.209 9  -4938768.17647  22335026.025    22335025.2044   22335034.6384
        -0.000          -0.000
 99  5 24 16 29 30.0000000  0  8 16  2  5  4  7 24  9  8            -0.000000001
  -2375972.038 8  -1720451.85345  24668334.283    24668333.6994   24668345.3844
        -0.000          -0.000
   4039243.202 9   3140465.45545  23622952.842    23622951.8704   23622964.5614
        -0.000          -0.000
  -6044947.646 9  -4674224.99747  22527207.313    22527206.4704   22527215.8374
        -0.000          -0.000
  -1770627.924 9  -1371269.73949  20273974.428    20273974.2604   20273981.8574
        -0.000          -0.000
   3756339.328 9   2920515.94246  22853849.720    22853848.7894   22853858.5514
        -0.000          -0.000
  -6142462.575 9  -4773220.58548  21061803.111    21061802.6184   21061812.0004
        -0.000          -0.000
  -1125688.798 9   -781088.30949  21112156.298    21112155.8394   21112163.9284
        -0.000          -0.000
  -6387346.357 9  -4966266.98047  22328310.548    22328309.7034   22328319.1554
        -0.000          -0.000
 99  5 24 16 29 45.0000000  0  8 16  2  5  4  7 24  9  8            -0.000000010
  -2381480.266 8  -1724743.97345  24667286.107    24667285.5734   24667297.2844
        -0.000          -0.000
   4077739.044 9   3170462.13945  23630278.444    23630277.4194   23630290.1454
        -0.000          -0.000
  -6084743.608 9  -4705234.80247  22519634.367    22519633.5424   22519642.9034
        -0.000          -0.000
  -1768663.302 9  -1369738.85949  20274348.253    20274348.0914   20274355.6804
        -0.000          -0.000
   3789092.531 9   2946037.88846  22860082.502    22860081.5554   22860091.2904
        -0.000          -0.000
  -6176315.001 9  -4799599.07248  21055361.175    21055360.6774   21055370.0624
        -0.000          -0.000
  -1119653.153 9   -776385.21549  21113304.856    21113304.3844   21113312.4814
        -0.000          -0.000
  -6422528.317 9  -4993681.47947  22321615.642    22321614.7984   22321624.2704
        -0.000          -0.000
 99  5 24 16 30  0.0000000  0  8 16  2  5  4  7 24  9  8            -0.000000016
  -2386875.763 8  -1728948.26145  24666259.525    24666258.9344   24666270.6254
        -0.000          -0.000
   4116298.237 9   3200508.19245  23637616.078    23637615.0994   23637627.8614
        -0.000          -0.000
  -6124512.628 9  -4736223.64147  22512066.544    22512065.7514   22512075.0794
        -0.000          -0.000
  -1766554.797 9  -1368095.86749  20274749.459    20274749.3134   20274756.9164
        -0.000          -0.000
   3821856.518 9   2971568.24546  22866317.329    22866316.4184   22866326.1244
        -0.000          -0.000
  -6210053.115 9  -4825888.49148  21048941.001    21048940.5224   21048949.9124
        -0.000          -0.000
  -1113478.423 9   -771573.75049  21114479.838    21114479.3704   21114487.4574
        -0.000          -0.000
  -6457595.735 9  -5021006.72547  22314942.528    22314941.6784   22314951.1644
        -0.000          -0.000
 99  5 24 16 30 15.0000000  0  8 16  2  5  4  7 24  9  8            -0.000000025
  -2392170.695 8  -1733074.18545  24665251.864    24665251.3124   24665262.9474
        -0.000          -0.000
   4154910.474 9   3230595.56545  23644963.830    23644962.7934   23644975.5834
        -0.000          -0.000
  -6164264.400 9  -4767199.01847  22504502.025    22504501.2394   22504510.5594
        -0.000          -0.000
  -1764312.421 9  -1366348.55849  20275176.194    20275176.0684   20275183.6364
        -0.000          -0.000
   3854619.836 9   2997098.07246  22872552.039    22872551.1024   22872560.7614
        -0.000          -0.000
  -6243687.959 9  -4852097.43548  21042540.473    21042540.0134   21042549.3834
        -0.000          -0.000
  -1107176.500 9   -766663.16649  21115679.092    21115678.6304   21115686.6984
        -0.000          -0.000
  -6492556.837 9  -5048249.12847  22308289.587    22308288.7234   22308298.3224
        -0.000          -0.000
 99  5 24 16 30 30.0000000  0  8 16  2  5  4  7 24  9  8            -0.000000029
  -2397354.491 8  -1737113.50945  24664265.432    24664264.7954   24664276.4164
        -0.000          -0.000
   4193587.442 9   3260733.38945  23652323.871    23652322.8974   23652335.6124
        -0.000          -0.000
  -6203988.491 9  -4798152.84247  22496942.741    22496941.9714   22496951.2744
        -0.000          -0.000
  -1761925.198 9  -1364488.38149  20275630.482    20275630.3434   20275637.8884
        -0.000          -0.000
   3887390.515 9   3022633.63846  22878788.169    22878787.2154   22878796.8054
        -0.000          -0.000
  -6277209.951 9  -4878218.44848  21036161.427    21036160.9594   21036170.3074
        -0.000          -0.000
  -1100737.829 9   -761646.02749  21116904.341    21116903.8814   21116911.9244
        -0.000          -0.000
  -6527397.886 9  -5075397.98547  22301659.515    22301658.7134   22301668.3324
        -0.000          -0.000
 99  5 24 16 30 45.0000000  0  8 16  2  5  4  7 24  9  8            -0.000000038
  -2402439.458 8  -1741075.82245  24663297.794    24663297.1844   24663308.7034
        -0.000          -0.000
   4232315.201 9   3290910.78845  23659693.592    23659692.6654   23659705.2824
        -0.000          -0.000
  -6243699.934 9  -4829096.80547  22489385.860    22489385.1224   22489394.3924
        -0.000          -0.000
  -1759403.856 9  -1362523.69849  20276110.294    20276110.1514   20276117.6894
        -0.000          -0.000
   3920155.678 9   3048164.91046  22885023.205    22885022.2194   22885031.7814
        -0.000          -0.000
  -6310636.083 9  -4904264.76548  21029800.643    21029800.1924   21029809.5024
        -0.000          -0.000
  -1094174.090 9   -756531.43449  21118153.450    21118152.9774   21118160.9924
        -0.000          -0.000
  -6562130.186 9  -5102462.10147  22295050.150    22295049.3394   22295058.9944
        -0.000          -0.000
 99  5 24 16 31  0.0000000  0  8 16  2  5  4  7 24  9  8            -0.000000050
  -2407418.117 8  -1744955.29345  24662350.447    24662349.8704   24662361.2514
        -0.000          -0.000
   4271099.141 9   3321131.95745  23667073.973    23667073.1064   23667085.7544
        -0.000          -0.000
  -6283391.815 9  -4860025.52147  22481832.751    22481832.0024   22481841.2544
        -0.000          -0.000
  -1756741.124 9  -1360448.83749  20276616.976    20276616.8204   20276624.3644
        -0.000          -0.000
   3952921.697 9   3073696.85146  22891258.403    22891257.4524   22891266.9804
        -0.000          -0.000
  -6343962.556 9  -4930233.42348  21023458.834    21023458.3734   21023467.6614
        -0.000          -0.000
  -1087479.107 9   -751314.57149  21119427.492    21119426.9954   21119435.0214
        -0.000          -0.000
  -6596746.133 9  -5129435.54847  22288462.943    22288462.1594   22288471.7924
        -0.000          -0.000
 99  5 24 16 31 15.0000000  0  8 16  2  5  4  7 24  9  8            -0.000000055
  -2412274.622 8  -1748739.58345  24661426.296    24661425.7394   24661437.0544
        -0.000          -0.000
   4309952.505 9   3351407.21445  23674467.595    23674466.6974   23674479.3124
        -0.000          -0.000
  -6323050.490 9  -4890928.36147  22474285.977    22474285.1774   22474294.4544
        -0.000          -0.000
  -1753925.306 9  -1358254.68849  20277152.815    20277152.6594   20277160.2034
        -0.000          -0.000
   3985700.218 9   3099238.52946  22897495.978    22897495.0244   22897504.5354
        -0.000          -0.000
  -6377178.408 9  -4956115.88348  21017138.048    21017137.5694   21017146.8754
        -0.000          -0.000
  -1080639.964 9   -745985.37849  21120728.972    21120728.4744   21120736.4924
        -0.000          -0.000
  -6631232.472 9  -5156308.01447  22281900.457    22281899.6524   22281909.2454
        -0.000          -0.000
 99  5 24 16 31 30.0000000  0  8 16  2  5  4  7 24  9  8            -0.000000055
  -2417009.028 8  -1752428.73745  24660525.439    24660524.9334   24660535.9564
        -0.000          -0.000
   4348872.972 9   3381734.76946  23681873.924    23681873.0704   23681885.7434
        -0.000          -0.000
  -6362682.267 9  -4921810.24147  22466744.284    22466743.4674   22466752.7814
        -0.000          -0.000
  -1750959.120 9  -1355943.37049  20277717.243    20277717.1184   20277724.6384
        -0.000          -0.000
   4018484.700 9   3124784.85246  22903734.669    22903733.7154   22903743.2444
        -0.000          -0.000
  -6410292.255 9  -4981918.85548  21010836.665    21010836.1914   21010845.5254
        -0.000          -0.000
  -1073661.197 9   -740547.38649  21122056.994    21122056.4854   21122064.5114
        -0.000          -0.000
  -6665592.880 9  -5183082.35047  22275361.949    22275361.1084   22275370.6424
        -0.000          -0.000
 99  5 24 16 31 45.0000000  0  8 16  2  5  4  7 24  9  8            -0.000000054
  -2421621.254 8  -1756022.68345  24659647.832    24659647.3124   24659658.1454
        -0.000          -0.000
   4387859.655 9   3412113.91846  23689292.855    23689292.0244   23689304.7734
        -0.000          -0.000
  -6402293.117 9  -4952675.81447  22459206.568    22459205.7454   22459215.0554
        -0.000          -0.000
  -1747843.856 9  -1353515.88749  20278310.064    20278309.9384   20278317.4364
        -0.000          -0.000
   4051270.542 9   3150332.24246  22909973.593    22909972.6664   22909982.2284
        -0.000          -0.000
  -6443308.751 9  -5007645.97248  21004553.791    21004553.3104   21004562.6504
        -0.000          -0.000
  -1066545.596 9   -735002.77249  21123411.036    21123410.5574   21123418.5674
        -0.000          -0.000
  -6699831.700 9  -5209761.93847  22268846.550    22268845.6894   22268855.1804
        -0.000          -0.000
 99  5 24 16 32  0.0000000  0  8 16  2  5  4  7 24  9  8            -0.000000047
  -2426100.171 8  -1759512.74945  24658795.533    24658794.9224   24658805.7564
        -0.000          -0.000
   4426920.169 9   3442550.60446  23696725.834    23696725.0384   23696737.8634
        -0.000          -0.000
  -6441872.724 9  -4983517.04947  22451674.807    22451673.9804   22451683.2624
        -0.000          -0.000
  -1744570.860 9  -1350965.49849  20278932.928    20278932.7974   20278940.2974
        -0.000          -0.000
   4084065.996 9   3175887.10746  22916214.355    22916213.4454   22916222.9854
        -0.000          -0.000
  -6476218.621 9  -5033290.01048  20998291.242    20998290.7764   20998300.0824
        -0.000          -0.000
  -1059285.056 9   -729345.21549  21124792.675    21124792.2014   21124800.1994
        -0.000          -0.000
  -6733940.060 9  -5236339.86147  22262355.912    22262355.0624   22262364.6034
        -0.000          -0.000
 99  5 24 16 32 15.0000000  0  8 16  2  5  4  7 24  9  8            -0.000000039
  -2430452.880 8  -1762904.44845  24657967.295    24657966.5544   24657977.4074
        -0.000          -0.000
   4466044.955 9   3473037.35946  23704171.063    23704170.2444   23704183.1204
        -0.000          -0.000
  -6481425.975 9  -5014337.74747  22444148.018    22444147.2004   22444156.4414
        -0.000          -0.000
  -1741143.208 9  -1348294.59649  20279585.206    20279585.0654   20279592.5544
        -0.000          -0.000
   4116866.932 9   3201446.25846  22922456.191    22922455.3034   22922464.7974
        -0.000          -0.000
  -6509026.158 9  -5058854.30548  20992048.206    20992047.7384   20992056.9934
        -0.000          -0.000
  -1051881.980 9   -723576.59149  21126201.437    21126200.9454   21126208.9704
        -0.000          -0.000
  -6767921.965 9  -5262819.26447  22255889.368    22255888.5494   22255898.0824
        -0.000          -0.000
 99  5 24 16 32 30.0000000  0  8 16  2  5  4  7 24  9  8            -0.000000033
  -2434677.981 8  -1766196.72945  24657163.324    24657162.5614   24657173.4954
        -0.000          -0.000
   4505233.255 9   3503573.62046  23711628.474    23711627.6214   23711640.4854
        -0.000          -0.000
  -6520952.888 9  -5045137.91747  22436626.306    22436625.5174   22436634.7314
        -0.000          -0.000
  -1737558.112 9  -1345501.00849  20280267.431    20280267.2934   20280274.7864
        -0.000          -0.000
   4149676.408 9   3227012.06246  22928699.667    22928698.7924   22928708.2724
        -0.000          -0.000
  -6541728.541 9  -5084336.65948  20985825.165    20985824.6764   20985833.9224
        -0.000          -0.000
  -1044333.847 9   -717694.93949  21127637.800    21127637.3114   21127645.3614
        -0.000          -0.000
  -6801778.593 9  -5289201.04247  22249446.656    22249445.8594   22249455.3684
        -0.000          -0.000
 99  5 24 16 32 45.0000000  0  8 16  2  5  4  7 24  9  8            -0.000000027
  -2438768.922 8  -1769384.47445  24656384.853    24656384.1904   24656395.1224
        -0.000          -0.000
   4544488.670 9   3534162.17346  23719098.603    23719097.7904   23719110.6274
        -0.000          -0.000
  -6560450.409 9  -5075915.18147  22429110.173    22429109.3914   22429118.5544
        -0.000          -0.000
  -1733812.681 9  -1342582.48749  20280980.171    20280980.0404   20280987.5144
        -0.000          -0.000
   4182500.853 9   3252589.52246  22934945.987    22934945.0974   22934954.5984
        -0.000          -0.000
  -6574319.711 9  -5109732.35448  20979623.240    20979622.7394   20979631.9954
        -0.000          -0.000
  -1036634.774 9   -711695.67349  21129102.853    21129102.3974   21129110.4514
        -0.000          -0.000
  -6835506.859 9  -5315482.79447  22243028.432    22243027.6324   22243037.1084
        -0.000          -0.000
 99  5 24 16 33  0.0000000  0  8 16  2  5  4  7 24  9  8            -0.000000021
  -2442727.811 8  -1772469.31245  24655631.534    24655630.8024   24655641.7894
        -0.000          -0.000
   4583808.746 9   3564801.10346  23726581.025    23726580.1904   23726593.1594
        -0.000          -0.000
  -6599922.384 9  -5106672.54147  22421598.892    22421598.1204   22421607.2894
        -0.000          -0.000
  -1729912.995 9  -1339543.76649  20281722.267    20281722.1364   20281729.6034
        -0.000          -0.000
   4215335.834 9   3278175.20846  22941194.325    22941193.4024   22941202.9344
        -0.000          -0.000
  -6606798.531 9  -5135040.50348  20973442.699    20973442.2184   20973451.4934
        -0.000          -0.000
  -1028791.657 9   -705584.16449  21130595.371    21130594.9144   21130602.9574
        -0.000          -0.000
  -6869111.767 9  -5341668.43447  22236633.711    22236632.8794   22236642.3234
        -0.000          -0.000
 99  5 24 16 33 15.0000000  0  8 16  2  5  4  7 24  9  8            -0.000000014
  -2446557.046 8  -1775453.11345  24654902.858    24654902.0474   24654913.1584
        -0.000          -0.000
   4623193.523 9   3595490.45846  23734075.739    23734074.8124   23734087.9164
        -0.000          -0.000
  -6639371.795 9  -5137412.32047  22414091.913    22414091.1474   22414100.2894
        -0.000          -0.000
  -1725864.073 9  -1336388.75749  20282492.790    20282492.6424   20282500.1114
        -0.000          -0.000
   4248180.067 9   3303768.09246  22947444.426    22947443.4864   22947452.9894
        -0.000          -0.000
  -6639162.451 9  -5160259.11748  20967284.013    20967283.5424   20967292.8264
        -0.000          -0.000
  -1020807.916 9   -699363.07549  21132114.659    21132114.1724   21132122.2424
        -0.000          -0.000
  -6902595.115 9  -5367759.34847  22230262.051    22230261.2014   22230270.6354
        -0.000          -0.000
 99  5 24 16 33 30.0000000  0  8 16  2  5  4  7 24  9  8            -0.000000003
  -2450251.701 8  -1778332.04945  24654199.748    24654198.8434   24654210.1054
        -0.000          -0.000
   4662649.287 9   3626235.10646  23741583.936    23741583.0344   23741596.1604
        -0.000          -0.000
  -6678794.082 9  -5168130.96947  22406590.087    22406589.3314   22406598.4004
        -0.000          -0.000
  -1721660.335 9  -1333113.11249  20283292.742    20283292.5894   20283300.0574
        -0.000          -0.000
   4281036.951 9   3329370.82646  22953696.926    22953695.9774   22953705.5054
        -0.000          -0.000
  -6671405.573 9  -5185383.60748  20961148.395    20961147.9194   20961157.1954
        -0.000          -0.000
  -1012677.230 9   -693027.49049  21133661.867    21133661.3614   21133669.4414
        -0.000          -0.000
  -6935952.098 9  -5393751.79847  22223914.400    22223913.5454   22223922.9944
        -0.000          -0.000
 99  5 24 16 33 45.0000000  0  8 16  2  5  4  7 24  9  8             0.000000007
  -2453822.956 8  -1781114.83645  24653520.148    24653519.3034   24653530.6044
        -0.000          -0.000
   4702164.844 9   3657026.35546  23749103.520    23749102.6384   23749115.9344
        -0.000          -0.000
  -6718198.618 9  -5198835.78847  22399091.672    22399090.9324   22399099.9494
        -0.000          -0.000
  -1717311.822 9  -1329724.65149  20284120.189    20284120.0364   20284127.5414
        -0.000          -0.000
   4313898.393 9   3354977.12446  22959950.258    22959949.3284   22959958.8614
        -0.000          -0.000
  -6703533.812 9  -5210418.58048  20955034.601    20955034.1224   20955043.3814
        -0.000          -0.000
  -1004406.317 9   -686582.63249  21135235.752    21135235.2814   21135243.3704
        -0.000          -0.000
  -6969189.952 9  -5419651.42547  22217589.417    22217588.5644   22217598.0014
        -0.000          -0.000
 99  5 24 16 34  0.0000000  0  8 16  2  5  4  7 24  9  8             0.000000019
  -2457268.453 8  -1783799.63045  24652864.580    24652863.6584   24652874.9634
        -0.000          -0.000
   4741743.953 9   3687867.12546  23756635.227    23756634.3544   23756647.7464
        -0.000          -0.000
  -6757578.174 9  -5229521.14347  22391598.006    22391597.2404   22391606.2184
        -0.000          -0.000
  -1712812.855 9  -1326218.95649  20284976.292    20284976.1434   20284983.6654
        -0.000          -0.000
   4346771.759 9   3380592.70946  22966205.859    22966204.9374   22966214.5264
        -0.000          -0.000
  -6735536.148 9  -5235355.44048  20948944.752    20948944.2584   20948953.5054
        -0.000          -0.000
   -995990.202 9   -680024.63349  21136837.277    21136836.8124   21136844.9094
        -0.000          -0.000
  -7002301.189 9  -5445452.37247  22211288.515    22211287.6764   22211297.1034
        -0.000          -0.000
 99  5 24 16 34 15.0000000  0  8 16  2  5  4  7 24  9  8             0.000000030
  -2460592.734 8  -1786389.96345  24652231.938    24652231.1954   24652242.4104
        -0.000          -0.000
   4781383.120 9   3718754.68646  23764178.348    23764177.4814   23764190.8954
        -0.000          -0.000
  -6796934.552 9  -5260188.42647  22384108.751    22384107.9344   22384116.9584
        -0.000          -0.000
  -1708164.986 9  -1322597.23749  20285860.753    20285860.6114   20285868.1384
        -0.000          -0.000
   4379655.177 9   3406216.11946  22972463.387    22972462.4754   22972472.1124
        -0.000          -0.000
  -6767413.619 9  -5260195.00848  20942878.620    20942878.1374   20942887.3674
        -0.000          -0.000
   -987432.069 9   -673355.96949  21138465.843    21138465.3754   21138473.4794
        -0.000          -0.000
  -7035287.356 9  -5471155.88647  22205011.425    22205010.5814   22205020.0094
        -0.000          -0.000
 99  5 24 16 34 30.0000000  0  8 16  2  5  4  7 24  9  8             0.000000039
  -2463797.214 8  -1788886.95045  24651622.069    24651621.4484   24651632.7664
        -0.000          -0.000
   4821082.059 9   3749688.83446  23771732.887    23771732.0924   23771745.4934
        -0.000          -0.000
  -6836273.207 9  -5290841.90647  22376622.839    22376622.0274   22376631.0484
        -0.000          -0.000
  -1703369.002 9  -1318860.10049  20286773.409    20286773.2794   20286780.7834
        -0.000          -0.000
   4412545.237 9   3431844.71646  22978722.170    22978721.2624   22978730.9574
        -0.000          -0.000
  -6799167.026 9  -5284937.90148  20936836.118    20936835.6604   20936844.8924
        -0.000          -0.000
   -978735.490 9   -666579.42649  21140120.771    21140120.2894   21140128.4104
        -0.000          -0.000
  -7068152.083 9  -5496764.75347  22198757.431    22198756.5914   22198765.9914
        -0.000          -0.000
 99  5 24 16 34 45.0000000  0  8 16  2  5  4  7 24  9  8             0.000000045
  -2466882.635 8  -1791291.16045  24651034.876    24651034.1444   24651045.7294
        -0.000          -0.000
   4860838.532 9   3780667.81846  23779298.314    23779297.4854   23779310.9914
        -0.000          -0.000
  -6875599.997 9  -5321486.14547  22369139.192    22369138.3384   22369147.3634
        -0.000          -0.000
  -1698433.633 9  -1315014.35749  20287712.597    20287712.4394   20287719.9474
        -0.000          -0.000
   4445434.554 9   3457472.73146  22984980.814    22984979.9194   22984989.6344
        -0.000          -0.000
  -6830799.587 9  -5309586.62948  20930816.632    20930816.1784   20930825.4224
        -0.000          -0.000
   -969908.158 9   -659701.00149  21141800.560    21141800.0764   21141808.2014
        -0.000          -0.000
  -7100899.737 9  -5522282.40147  22192525.745    22192524.8854   22192534.2804
        -0.000          -0.000
 99  5 24 16 35  0.0000000  0  8 16  2  5  4  7 24  9  8             0.000000047
  -2469854.436 8  -1793606.84845  24650469.412    24650468.6064   24650480.1934
        -0.000          -0.000
   4900648.367 9   3811688.36746  23786873.921    23786873.1004   23786886.6514
        -0.000          -0.000
  -6914920.003 9  -5352125.09547  22361656.838    22361655.9884   22361665.0064
        -0.000          -0.000
  -1693364.663 9  -1311064.49949  20288677.167    20288677.0214   20288684.5364
        -0.000          -0.000
   4478315.900 9   3483094.53346  22991237.931    22991237.0084   22991246.7814
        -0.000          -0.000
  -6862317.349 9  -5334145.90148  20924819.001    20924818.5404   20924827.7744
        -0.000          -0.000
   -960957.598 9   -652726.54749  21143503.783    21143503.3074   21143511.4044
        -0.000          -0.000
  -7133533.722 9  -5547711.47747  22186315.708    22186314.8444   22186324.2554
        -0.000          -0.000
 99  5 24 16 35 15.0000000  0  8 16  2  5  4  7 24  9  8             0.000000049
  -2472703.979 8  -1795827.25345  24649927.107    24649926.3914   24649937.9814
        -0.000          -0.000
   4940521.897 8   3842758.57046  23794461.657    23794460.8974   23794474.3954
        -0.000          -0.000
  -6954221.078 9  -5382749.28547  22354177.991    22354177.1854   22354186.2224
        -0.000          -0.000
  -1688148.242 9  -1306999.74749  20289669.789    20289669.6644   20289677.1974
        -0.000          -0.000
   4511203.391 9   3508721.12446  22997496.257    22997495.3064   22997505.1064
        -0.000          -0.000
  -6893710.115 9  -5358607.77048  20918845.137    20918844.6654   20918853.9184
        -0.000          -0.000
   -951871.589 9   -645646.54649  21145232.805    21145232.3404   21145240.4244
        -0.000          -0.000
  -7166042.695 9  -5573043.14447  22180129.483    22180128.6164   22180137.9814
        -0.000          -0.000
 99  5 24 16 35 30.0000000  0  8 16  2  5  4  7 24  9  8             0.000000052
  -2475426.936 8  -1797949.03845  24649408.860    24649408.2204   24649419.7634
        -0.000          -0.000
   4980461.366 8   3873880.14346  23802061.922    23802061.1754   23802074.7304
        -0.000          -0.000
  -6993497.223 9  -5413354.06247  22346703.899    22346703.1294   22346712.2164
        -0.000          -0.000
  -1682776.288 9  -1302813.80549  20290692.021    20290691.8964   20290699.4154
        -0.000          -0.000
   4544104.269 9   3534358.14046  23003757.083    23003756.1114   23003765.9034
        -0.000          -0.000
  -6924976.866 9  -5382971.45248  20912895.270    20912894.7944   20912904.0504
        -0.000          -0.000
   -942642.110 9   -638454.75949  21146989.137    21146988.6544   21146996.7334
        -0.000          -0.000
  -7198421.685 9  -5598273.52247  22173967.941    22173967.0724   22173976.4544
        -0.000          -0.000
 99  5 24 16 35 45.0000000  0  8 16  2  5  4  7 24  9  8             0.000000045
  -2478038.187 8  -1799983.77645  24648911.966    24648911.2844   24648922.7474
        -0.000          -0.000
   5020448.843 9   3905039.11746  23809671.369    23809670.5884   23809684.1704
        -0.000          -0.000
  -7032761.189 9  -5443949.33847  22339232.181    22339231.4424   22339240.5384
        -0.000          -0.000
  -1677263.019 9  -1298517.74849  20291741.202    20291741.0604   20291748.5554
        -0.000          -0.000
   4577002.319 9   3559992.95746  23010017.342    23010016.3774   23010026.2034
        -0.000          -0.000
  -6956132.209 9  -5407248.32048  20906966.567    20906966.0894   20906975.3294
        -0.000          -0.000
   -933285.463 9   -631163.87349  21148769.676    21148769.2024   21148777.2834
        -0.000          -0.000
  -7230683.995 9  -5623412.98247  22167828.606    22167827.7724   22167837.1444
        -0.000          -0.000
 99  5 24 16 36  0.0000000  0  8 16  2  5  4  7 24  9  8             0.000000035
  -2480523.509 8  -1801920.38745  24648439.083    24648438.3414   24648449.8514
        -0.000          -0.000
   5060496.087 9   3936244.66346  23817292.182    23817291.4214   23817305.0144
        -0.000          -0.000
  -7071999.787 9  -5474524.85447  22331765.264    22331764.5114   22331773.6444
        -0.000          -0.000
  -1671594.893 9  -1294101.02149  20292819.810    20292819.6534   20292827.1474
        -0.000          -0.000
   4609913.418 9   3585637.93846  23016280.103    23016279.1324   23016288.9954
        -0.000          -0.000
  -6987162.452 9  -5431427.70848  20901061.670    20901061.1974   20901070.4224
        -0.000          -0.000
   -923792.866 9   -623767.05649  21150576.089    21150575.6114   21150583.7034
        -0.000          -0.000
  -7262815.087 9  -5648450.19847  22161714.232    22161713.4154   22161722.7934
        -0.000          -0.000
 99  5 24 16 36 15.0000000  0  8 16  2  5  4  7 24  9  8             0.000000026
  -2482880.695 8  -1803757.15445  24647990.547    24647989.7224   24648001.2984
        -0.000          -0.000
   5100609.604 9   3967501.86246  23824925.612    23824924.8774   23824938.4664
        -0.000          -0.000
  -7111208.340 9  -5505076.95647  22324304.081    22324303.3264   22324312.4994
        -0.000          -0.000
  -1665767.942 9  -1289560.53549  20293928.625    20293928.4764   20293935.9684
        -0.000          -0.000
   4642840.348 9   3611295.26346  23022545.850    23022544.8844   23022554.7914
        -0.000          -0.000
  -7018067.146 9  -5455509.26648  20895180.702    20895180.2184   20895189.4424
        -0.000          -0.000
   -914162.862 9   -616263.16949  21152408.627    21152408.1424   21152416.2454
        -0.000          -0.000
  -7294812.201 9  -5673383.01447  22155625.386    22155624.5904   22155634.0114
        -0.000          -0.000
 99  5 24 16 36 30.0000000  0  8 16  2  5  4  7 24  9  8             0.000000017
  -2485109.939 8  -1805494.22345  24647566.290    24647565.4764   24647577.0664
        -0.000          -0.000
   5140785.833 8   3998807.91946  23832571.016    23832570.2854   23832583.8284
        -0.000          -0.000
  -7150391.745 9  -5535609.45447  22316847.731    22316846.9794   22316856.1654
        -0.000          -0.000
  -1659787.432 9  -1284900.39049  20295066.674    20295066.5484   20295074.0324
        -0.000          -0.000
   4675779.671 9   3636962.24546  23028813.979    23028813.0354   23028822.9964
        -0.000          -0.000
  -7048852.387 9  -5479497.74248  20889322.455    20889321.9834   20889331.1994
        -0.000          -0.000
   -904397.912 9   -608654.12849  21154266.865    21154266.3864   21154274.4794
        -0.000          -0.000
  -7326679.507 9  -5698214.67947  22149561.220    22149560.4784   22149569.8654
        -0.000          -0.000
 99  5 24 16 36 45.0000000  0  8 16  2  5  4  7 24  9  8             0.000000009
  -2487210.984 8  -1807131.39445  24647166.333    24647165.5924   24647177.2964
        -0.000          -0.000
   5181025.111 8   4030163.10446  23840228.424    23840227.5944   23840241.1244
        -0.000          -0.000
  -7189548.076 9  -5566120.86647  22309396.486    22309395.7274   22309404.9494
        -0.000          -0.000
  -1653655.974 9  -1280122.62949  20296233.458    20296233.3304   20296240.8094
        -0.000          -0.000
   4708732.880 9   3662640.04246  23035084.768    23035083.8334   23035093.8284
        -0.000          -0.000
  -7079515.019 9  -5503390.67748  20883487.516    20883487.0334   20883496.2694
        -0.000          -0.000
   -894497.633 9   -600939.63949  21156150.854    21156150.3524   21156158.4484
        -0.000          -0.000
  -7358413.016 9  -5722942.08247  22143522.598    22143521.8484   22143531.2134
        -0.000          -0.000
 99  5 24 16 37  0.0000000  0  8 16  2  5  4  7 24  9  8             0.000000000
  -2489192.880 8  -1808675.73145  24646789.280    24646788.5134   24646800.1534
        -0.000          -0.000
   5221320.990 8   4061562.39745  23847896.542    23847895.7254   23847909.2004
        -0.000          -0.000
  -7228677.083 9  -5596610.98347  22301950.466    22301949.6914   22301958.9624
        -0.000          -0.000
  -1647378.253 9  -1275230.89349  20297428.097    20297427.9534   20297435.4244
        -0.000          -0.000
   4741696.099 9   3688325.64146  23041357.500    23041356.5714   23041366.5424
        -0.000          -0.000
  -7110062.070 9  -5527193.55348  20877674.592    20877674.1174   20877683.3744
        -0.000          -0.000
   -884467.154 9   -593123.68949  21158059.578    21158059.0714   21158067.1934
        -0.000          -0.000
  -7390018.179 9  -5747569.47747  22137508.413    22137507.6224   22137516.9384
        -0.000          -0.000
 99  5 24 16 37 15.0000000  0  8 16  2  5  4  7 24  9  8            -0.000000013
  -2491058.830 8  -1810129.72445  24646434.216    24646433.3494   24646445.0344
        -0.000          -0.000
   5261671.889 8   4093004.56045  23855575.150    23855574.2694   23855587.8044
        -0.000          -0.000
  -7267776.736 9  -5627078.23547  22294510.087    22294509.2824   22294518.5344
        -0.000          -0.000
  -1640949.951 9  -1270221.82249  20298651.352    20298651.2064   20298658.6844
        -0.000          -0.000
   4774671.856 9   3714021.01546  23047632.638    23047631.7074   23047641.6594
        -0.000          -0.000
  -7140492.942 9  -5550905.89748  20871883.769    20871883.2964   20871892.5554
        -0.000          -0.000
   -874304.093 9   -585204.43349  21159993.535    21159993.0524   21160001.1844
        -0.000          -0.000
  -7421494.950 9  -5772096.82247  22131518.679    22131517.8394   22131527.1114
        -0.000          -0.000
 99  5 24 16 37 30.0000000  0  8 16  2  5  4  7 24  9  8            -0.000000027
  -2492804.949 8  -1811490.32945  24646101.872    24646101.1194   24646112.7964
        -0.000          -0.000
   5302081.212 8   4124492.24645  23863264.930    23863263.9464   23863277.5394
        -0.000          -0.000
  -7306840.496 9  -5657517.50347  22287076.496    22287075.6894   22287084.9544
        -0.000          -0.000
  -1634365.950 9  -1265091.42749  20299904.237    20299904.0894   20299911.5924
        -0.000          -0.000
   4807660.936 9   3739726.76346  23053910.299    23053909.3704   23053919.3224
        -0.000          -0.000
  -7170803.968 9  -5574524.85948  20866115.761    20866115.2894   20866124.5264
        -0.000          -0.000
   -864003.453 9   -577177.97649  21161953.719    21161953.2444   21161961.3794
        -0.000          -0.000
  -7452838.461 9  -5796520.32747  22125554.250    22125553.3884   22125562.6534
        -0.000          -0.000
 99  5 24 16 37 45.0000000  0  8 16  2  5  4  7 24  9  8            -0.000000042
  -2494427.865 8  -1812754.93545  24645792.952    24645792.2034   24645804.0484
        -0.000          -0.000
   5342550.406 8   4156026.58645  23870966.064    23870965.0644   23870978.6394
        -0.000          -0.000
  -7345863.214 9  -5687924.79847  22279650.706    22279649.9194   22279659.1864
        -0.000          -0.000
  -1627624.961 9  -1259838.70349  20301186.963    20301186.8214   20301194.3144
        -0.000          -0.000
   4840658.724 9   3765439.29746  23060189.592    23060188.6344   23060198.5794
        -0.000          -0.000
  -7200991.686 9  -5598047.73448  20860371.200    20860370.7364   20860379.9574
        -0.000          -0.000
   -853562.230 9   -569041.96649  21163940.642    21163940.1494   21163948.2804
        -0.000          -0.000
  -7484046.470 9  -5820838.24547  22119615.571    22119614.7194   22119623.9864
        -0.000          -0.000
 99  5 24 16 38  0.0000000  0  8 16  2  5  4  7 24  9  8            -0.000000056
  -2495928.737 8  -1813924.44345  24645507.381    24645506.6214   24645518.3584
        -0.000          -0.000
   5383080.679 8   4187608.53045  23878678.759    23878677.7954   23878691.4134
        -0.000          -0.000
  -7384844.872 9  -5718300.09547  22272232.779    22272232.0044   22272241.2314
        -0.000          -0.000
  -1620729.017 9  -1254465.23549  20302499.206    20302499.0924   20302506.5764
        -0.000          -0.000
   4873663.359 9   3791157.16946  23066470.187    23066469.2264   23066479.1554
        -0.000          -0.000
  -7231056.712 9  -5621475.00748  20854650.038    20854649.5674   20854658.7864
        -0.000          -0.000
   -842982.132 9   -560797.74349  21165953.992    21165953.5054   21165961.6344
        -0.000          -0.000
  -7515120.865 9  -5845052.05047  22113702.280    22113701.4734   22113710.6864
        -0.000          -0.000
 99  5 24 16 38 15.0000000  0  8 16  2  5  4  7 24  9  8            -0.000000063
  -2497304.222 8  -1814996.25345  24645245.533    24645244.8824   24645256.5504
        -0.000          -0.000
   5423680.520 8   4219244.66145  23886404.700    23886403.6384   23886417.2904
        -0.000          -0.000
  -7423777.673 9  -5748637.32747  22264824.120    22264823.3044   22264832.5664
        -0.000          -0.000
  -1613672.725 9  -1248966.82249  20303841.978    20303841.8734   20303849.3644
        -0.000          -0.000
   4906680.513 9   3816884.78946  23072753.147    23072752.2464   23072762.1164
        -0.000          -0.000
  -7260994.293 9  -5644802.96948  20848953.091    20848952.6114   20848961.8324
        -0.000          -0.000
   -832252.934 9   -552437.34348  21167995.670    21167995.2024   21168003.3414
        -0.000          -0.000
  -7546058.412 9  -5869159.22047  22107815.071    22107814.2894   22107823.4284
        -0.000          -0.000
 99  5 24 16 38 30.0000000  0  8 16  2  5  4  7 24  9  8            -0.000000071
  -2498559.648 8  -1815974.50045  24645006.616    24645005.9184   24645017.5884
        -0.000          -0.000
   5464341.560 8   4250928.47445  23894142.198    23894141.1704   23894154.9084
        -0.000          -0.000
  -7462667.370 9  -5778940.97047  22257423.655    22257422.8574   22257432.0854
        -0.000          -0.000
  -1606462.451 9  -1243348.42749  20305214.063    20305213.9434   20305221.4324
        -0.000          -0.000
   4939702.471 9   3842616.15946  23079036.994    23079036.1154   23079045.9724
        -0.000          -0.000
  -7290809.606 9  -5668035.66248  20843279.401    20843278.9284   20843288.1664
        -0.000          -0.000
   -821376.228 9   -543962.00248  21170065.439    21170064.9594   21170073.0994
        -0.000          -0.000
  -7576866.600 9  -5893165.58647  22101952.461    22101951.6584   22101960.7724
        -0.000          -0.000
 99  5 24 16 38 45.0000000  0  8 16  2  5  4  7 24  9  8            -0.000000077
  -2499692.411 8  -1816857.16445  24644791.153    24644790.3174   24644801.9104
        -0.000          -0.000
   5505063.709 8   4282659.91245  23901891.377    23901890.4354   23901904.1344
        -0.000          -0.000
  -7501510.820 9  -5809208.57547  22250032.024    22250031.2244   22250040.3984
        -0.000          -0.000
  -1599096.064 9  -1237608.37749  20306615.818    20306615.7034   20306623.1984
        -0.000          -0.000
   4972728.897 9   3868351.01346  23085321.719    23085320.8854   23085330.6994
        -0.000          -0.000
  -7320499.747 9  -5691170.81248  20837629.560    20837629.0804   20837638.3264
        -0.000          -0.000
   -810350.365 9   -535370.43548  21172163.576    21172163.0874   21172171.2264
        -0.000          -0.000
  -7607542.254 9  -5917068.69047  22096115.113    22096114.2484   22096123.3474
        -0.000          -0.000
 99  5 24 16 39  0.0000000  0  8 16  2  5  4  7 24  9  8            -0.000000084
  -2500704.536 8  -1817645.82645  24644598.551    24644597.8494   24644609.3614
        -0.000          -0.000
   5545845.069 8   4314437.48145  23909651.903    23909651.0224   23909664.7894
        -0.000          -0.000
  -7540308.087 9  -5839440.19547  22242649.182    22242648.3354   22242657.5144
        -0.000          -0.000
  -1591574.346 9  -1231747.29649  20308047.152    20308047.0324   20308054.5244
        -0.000          -0.000
   5005756.481 9   3894086.76646  23091606.725    23091605.8744   23091615.6904
        -0.000          -0.000
  -7350067.548 9  -5714210.63648  20832002.967    20832002.4954   20832011.7264
        -0.000          -0.000
   -799179.954 9   -526666.23248  21174289.248    21174288.7654   21174296.8944
        -0.000          -0.000
  -7638089.625 9  -5940871.82947  22090302.180    22090301.2934   22090310.3864
        -0.000          -0.000
 99  5 24 16 39 15.0000000  0  8 16  2  5  4  7 24  9  8            -0.000000095
  -2501593.639 8  -1818338.63045  24644429.414    24644428.7374   24644440.1184
        -0.000          -0.000
   5586685.024 8   4346260.70645  23917423.546    23917422.7424   23917436.4924
        -0.000          -0.000
  -7579062.716 9  -5869638.57947  22235274.370    22235273.5314   22235282.7424
        -0.000          -0.000
  -1583896.694 9  -1225764.70849  20309508.158    20309508.0304   20309515.5264
        -0.000          -0.000
   5038785.061 9   3919823.28646  23097891.923    23097891.0434   23097900.8394
        -0.000          -0.000
  -7379515.744 9  -5737157.26448  20826399.164    20826398.6944   20826407.8994
        -0.000          -0.000
   -787863.640 9   -517848.33548  21176442.656    21176442.1644   21176450.2934
        -0.000          -0.000
  -7668512.873 9  -5964578.23747  22084512.783    22084511.8714   22084521.0474
        -0.000          -0.000
 99  5 24 16 39 30.0000000  0  8 16  2  5  4  7 24  9  8            -0.000000101
  -2502341.396 8  -1818921.27945  24644287.191    24644286.4564   24644297.8234
        -0.000          -0.000
   5627596.426 8   4378139.59545  23925208.824    23925207.9924   23925221.7144
        -0.000          -0.000
  -7617764.729 9  -5899795.97047  22227909.617    22227908.8094   22227917.9964
        -0.000          -0.000
  -1576051.207 9  -1219651.33749  20311001.122    20311000.9874   20311008.5014
        -0.000          -0.000
   5071825.854 9   3945569.32846  23104179.379    23104178.4704   23104188.3394
        -0.000          -0.000
  -7408830.753 9  -5760000.10648  20820820.713    20820820.2264   20820829.4534
        -0.000          -0.000
   -776387.593 9   -508905.97448  21178626.492    21178626.0224   21178634.1464
        -0.000          -0.000
  -7698796.861 9  -5988176.14447  22078749.850    22078749.0004   22078758.1994
        -0.000          -0.000
 99  5 24 16 39 45.0000000  0  8 16  2  5  4  7 24  9  8            -0.000000107
  -2502958.621 8  -1819402.22745  24644169.800    24644168.9574   24644180.2344
        -0.000          -0.000
   5668568.059 8   4410065.43845  23933005.607    23933004.7454   23933018.5514
        -0.000          -0.000
  -7656425.782 9  -5929921.45747  22220552.664    22220551.8424   22220561.0104
        -0.000          -0.000
  -1568056.407 9  -1213421.62049  20312522.479    20312522.3434   20312529.8864
        -0.000          -0.000
   5104865.860 9   3971314.76046  23110466.689    23110465.8274   23110475.6544
        -0.000          -0.000
  -7438026.127 9  -5782749.73048  20815264.973    20815264.4824   20815273.7364
        -0.000          -0.000
   -764767.480 9   -499851.35648  21180837.745    21180837.2714   21180845.3924
        -0.000          -0.000
  -7728954.185 9  -6011675.34347  22073011.068    22073010.2634   22073019.4654
        -0.000          -0.000
 99  5 24 16 40  0.0000000  0  8 16  2  5  4  7 24  9  8            -0.000000108
  -2503439.971 8  -1819777.28245  24644078.225    24644077.2614   24644088.6114
        -0.000          -0.000
   5709605.933 8   4442042.89645  23940814.908    23940814.1394   23940827.9474
        -0.000          -0.000
  -7695044.237 9  -5960013.74047  22213203.805    22213202.9804   22213212.1284
        -0.000          -0.000
  -1559910.631 9  -1207074.25849  20314072.556    20314072.4104   20314079.9844
        -0.000          -0.000
   5137915.347 9   3997067.58046  23116755.808    23116754.9434   23116764.7864
        -0.000          -0.000
  -7467097.098 9  -5805402.41348  20809732.944    20809732.4624   20809741.7194
        -0.000          -0.000
   -753002.897 9   -490684.16048  21183076.510    21183076.0324   21183084.1494
        -0.000          -0.000
  -7758980.741 9  -6035072.65047  22067297.197    22067296.3984   22067305.5874
        -0.000          -0.000
 99  5 24 16 40 15.0000000  0  8 16  2  5  4  7 24  9  8            -0.000000102
  -2503783.708 8  -1820045.09445  24644012.778    24644011.8754   24644023.2824
        -0.000          -0.000
   5750712.848 8   4474074.15245  23948637.428    23948636.6134   23948650.4564
        -0.000          -0.000
  -7733623.741 9  -5990075.67247  22205862.322    22205861.5124   22205870.6514
        -0.000          -0.000
  -1551615.506 9  -1200610.52149  20315651.047    20315650.9184   20315658.4924
        -0.000          -0.000
   5170979.179 9   4022831.58246  23123047.609    23123046.7684   23123056.6284
        -0.000          -0.000
  -7496042.910 9  -5827957.57148  20804224.688    20804224.2254   20804233.4704
        -0.000          -0.000
   -741095.399 9   -481405.60548  21185342.429    21185341.9534   21185350.0774
        -0.000          -0.000
  -7788873.825 9  -6058365.95747  22061608.757    22061607.9574   22061617.1164
        -0.000          -0.000
 99  5 24 16 40 30.0000000  0  8 16  2  5  4  7 24  9  8            -0.000000090
  -2503991.747 8  -1820207.18345  24643973.203    24643972.2744   24643983.6684
        -0.000          -0.000
   5791886.972 8   4506157.78645  23956472.734    23956471.8694   23956485.8234
        -0.000          -0.000
  -7772168.874 9  -6020110.82947  22198527.430    22198526.6004   22198535.7344
        -0.000          -0.000
  -1543173.354 9  -1194032.21849  20317257.556    20317257.4354   20317265.0034
        -0.000          -0.000
   5204052.912 9   4048603.29346  23129341.333    23129340.5014   23129350.3804
        -0.000          -0.000
  -7524863.122 9  -5850414.86048  20798740.393    20798739.9324   20798749.1544
        -0.000          -0.000
   -729046.823 9   -472017.11648  21187635.235    21187634.7664   21187642.8814
        -0.000          -0.000
  -7818633.196 9  -6081555.07147  22055945.712    22055944.9074   22055954.0654
        -0.000          -0.000
 99  5 24 16 40 45.0000000  0  8 16  2  5  4  7 24  9  8            -0.000000080
  -2504073.388 8  -1820270.76345  24643957.741    24643956.8044   24643968.1384
        -0.000          -0.000
   5833116.466 8   4538284.57445  23964318.516    23964317.6784   23964331.6114
        -0.000          -0.000
  -7810692.746 9  -6050129.41447  22191196.571    22191195.7644   22191204.8304
        -0.000          -0.000
  -1534595.482 9  -1187348.15749  20318889.875    20318889.7354   20318897.2894
        -0.000          -0.000
   5237124.349 9   4074373.21346  23135634.700    23135633.8444   23135643.6904
        -0.000          -0.000
  -7553568.503 9  -5872782.67148  20793277.898    20793277.4244   20793286.6534
        -0.000          -0.000
   -716872.228 9   -462530.42948  21189952.016    21189951.5324   21189959.6544
        -0.000          -0.000
  -7848267.362 9  -6104646.62347  22050306.504    22050305.6914   22050314.8544
        -0.000          -0.000
 99  5 24 16 41  0.0000000  0  8 16  2  5  4  7 24  9  8            -0.000000069
  -2504026.855 8  -1820234.49245  24643966.548    24643965.6384   24643976.9054
        -0.000          -0.000
   5874405.454 8   4570457.71245  23972175.612    23972174.6994   23972188.6704
        -0.000          -0.000
  -7849195.759 9  -6080131.74747  22183869.713    22183868.8874   22183877.9244
        -0.000          -0.000
  -1525882.313 9  -1180558.67449  20320547.934    20320547.7974   20320555.3294
        -0.000          -0.000
   5270194.690 9   4100142.29246  23141927.841    23141926.9574   23141936.7844
        -0.000          -0.000
  -7582156.884 9  -5895059.31048  20787837.699    20787837.2104   20787846.4174
        -0.000          -0.000
   -704572.106 9   -452945.93248  21192292.660    21192292.1714   21192300.3114
        -0.000          -0.000
  -7877775.552 9  -6127640.01047  22044691.290    22044690.4394   22044699.6544
        -0.000          -0.000
 99  5 24 16 41 15.0000000  0  8 16  2  5  4  7 24  9  8            -0.000000055
  -2503852.496 8  -1820098.58745  24643999.571    24643998.7254   24644010.0084
        -0.000          -0.000
   5915755.311 8   4602678.27445  23980044.293    23980043.3814   23980057.4594
        -0.000          -0.000
  -7887678.772 9  -6110118.49147  22176546.578    22176545.7574   22176554.8024
        -0.000          -0.000
  -1517033.582 9  -1173663.55849  20322231.803    20322231.6624   20322239.1894
        -0.000          -0.000
   5303266.396 9   4125912.41946  23148221.227    23148220.3404   23148230.1504
        -0.000          -0.000
  -7610625.299 9  -5917242.47448  20782420.307    20782419.8304   20782429.0204
        -0.000          -0.000
   -692143.529 9   -443261.34048  21194657.741    21194657.2544   21194665.4074
        -0.000          -0.000
  -7907154.672 9  -6150532.82347  22039100.614    22039099.7594   22039109.0354
        -0.000          -0.000
 99  5 24 16 41 30.0000000  0  8 16  2  5  4  7 24  9  8            -0.000000039
  -2503555.523 8  -1819867.14745  24644056.009    24644055.1164   24644066.5254
        -0.000          -0.000
   5957163.757 8   4634944.48245  23987924.112    23987923.2964   23987937.2704
        -0.000          -0.000
  -7926143.680 9  -6140091.12847  22169226.935    22169226.1244   22169235.1344
        -0.000          -0.000
  -1508052.060 9  -1166664.96549  20323940.927    20323940.7894   20323948.3124
        -0.000          -0.000
   5336336.767 9   4151681.51146  23154514.245    23154513.3744   23154523.2094
        -0.000          -0.000
  -7638973.828 9  -5939332.21948  20777025.767    20777025.2854   20777034.4514
        -0.000          -0.000
   -679587.105 9   -433477.12648  21197047.151    21197046.6804   21197054.8324
        -0.000          -0.000
  -7936402.222 9  -6173323.12047  22033534.954    22033534.1224   22033543.4174
        -0.000          -0.000
 99  5 24 16 41 45.0000000  0  8 16  2  5  4  7 24  9  8            -0.000000023
  -2503146.939 8  -1819548.72945  24644133.722    24644132.8724   24644144.2624
        -0.000          -0.000
   5998624.716 8   4667251.62145  23995813.978    23995813.1444   23995827.0684
        -0.000          -0.000
  -7964594.855 9  -6170053.06647  22161909.958    22161909.1104   22161918.0884
        -0.000          -0.000
  -1498946.222 9  -1159569.50849  20325673.710    20325673.5794   20325681.1004
        -0.000          -0.000
   5369396.354 9   4177442.20346  23160805.262    23160804.4284   23160814.2354
        -0.000          -0.000
  -7667208.519 9  -5961333.26248  20771652.879    20771652.4144   20771661.5324
        -0.000          -0.000
   -666913.903 9   -423601.91748  21199458.804    21199458.3104   21199466.4614
        -0.000          -0.000
  -7965522.223 9  -6196014.02647  22027993.548    22027992.7484   22028002.0784
        -0.000          -0.000
 99  5 24 16 42  0.0000000  0  8 16  2  5  4  7 24  9  8            -0.000000013
  -2502637.746 8  -1819151.93145  24644230.588    24644229.7264   24644241.0464
        -0.000          -0.000
   6040129.849 9   4699593.17945  24003712.235    24003711.4064   24003725.3354
        -0.000          -0.000
  -8003040.152 9  -6200010.42947  22154594.059    22154593.2044   22154602.1044
        -0.000          -0.000
  -1489722.452 9  -1152382.15049  20327428.929    20327428.7944   20327436.2924
        -0.000          -0.000
   5402438.770 9   4203189.50846  23167093.074    23167092.2164   23167102.0334
        -0.000          -0.000
  -7695334.228 9  -5983249.37948  20766300.765    20766300.2794   20766309.3884
        -0.000          -0.000
   -654131.779 9   -413641.83048  21201891.198    21201890.7074   21201898.8694
        -0.000          -0.000
  -7994523.179 9  -6218612.18147  22022474.840    22022474.0684   22022483.3494
        -0.000          -0.000
 99  5 24 16 42 15.0000000  0  8 16  2  5  4  7 24  9  8            -0.000000002
  -2502013.337 8  -1818665.33645  24644349.316    24644348.3934   24644359.8194
        -0.000          -0.000
   6081692.861 9   4731979.83945  24011621.547    24011620.7504   24011634.5304
        -0.000          -0.000
  -8041466.906 9  -6229953.34347  22147281.695    22147280.8664   22147289.7254
        -0.000          -0.000
  -1480361.279 9  -1145087.72849  20329210.302    20329210.1714   20329217.6724
        -0.000          -0.000
   5435477.799 9   4228934.17246  23173380.190    23173379.3634   23173389.1944
        -0.000          -0.000
  -7723335.544 9  -6005068.57048  20760972.293    20760971.8084   20760980.8974
        -0.000          -0.000
   -641220.551 9   -403581.14648  21204348.114    21204347.6354   21204355.7994
        -0.000          -0.000
  -8023389.372 9  -6241105.30847  22016981.839    22016981.0114   22016990.3184
        -0.000          -0.000
 99  5 24 16 42 30.0000000  0  8 16  2  5  4  7 24  9  8             0.000000004
  -2501277.500 8  -1818091.91745  24644489.214    24644488.3574   24644499.7334
        -0.000          -0.000
   6123307.602 8   4764406.80345  24019540.669    24019539.8094   24019553.5634
        -0.000          -0.000
  -8079876.561 9  -6259882.92547  22139972.618    22139971.7764   22139980.6274
        -0.000          -0.000
  -1470863.695 9  -1137687.00849  20331017.625    20331017.4994   20331024.9944
        -0.000          -0.000
   5468506.939 9   4254671.13946  23179665.499    23179664.6614   23179674.4844
        -0.000          -0.000
  -7751215.938 9  -6026793.53049  20755666.796    20755666.3014   20755675.3924
        -0.000          -0.000
   -628180.691 9   -393420.22548  21206829.554    21206829.0684   21206837.2224
        -0.000          -0.000
  -8052124.658 9  -6263496.43747  22011513.731    22011512.8774   22011522.2284
        -0.000          -0.000
 99  5 24 16 42 45.0000000  0  8 16  2  5  4  7 24  9  8             0.000000005
  -2500425.370 8  -1817427.87645  24644651.268    24644650.4434   24644661.9464
        -0.000          -0.000
   6164975.389 8   4796875.11745  24027469.878    24027468.9494   24027482.8164
        -0.000          -0.000
  -8118263.150 9  -6289794.53747  22132667.884    22132667.0434   22132675.8624
        -0.000          -0.000
  -1461224.502 9  -1130175.94649  20332851.915    20332851.7804   20332859.2824
        -0.000          -0.000
   5501532.593 9   4280405.38346  23185950.154    23185949.3014   23185959.1234
        -0.000          -0.000
  -7778971.414 9  -6048421.15649  20750385.082    20750384.5984   20750393.6784
        -0.000          -0.000
   -615007.233 9   -383155.20548  21209336.388    21209335.8924   21209344.0564
        -0.000          -0.000
  -8080725.096 9  -6285782.48647  22006071.231    22006070.3644   22006079.7154
        -0.000          -0.000
 99  5 24 16 43  0.0000000  0  8 16  2  5  4  7 24  9  8             0.000000005
  -2499454.050 8  -1816670.96945  24644836.140    24644835.3054   24644846.8384
        -0.000          -0.000
   6206695.871 9   4829384.48945  24035409.078    24035408.1634   24035422.0464
        -0.000          -0.000
  -8156624.157 9  -6319686.21847  22125368.010    22125367.1774   22125375.9714
        -0.000          -0.000
  -1451443.731 9  -1122554.56349  20334713.134    20334713.0114   20334720.4984
        -0.000          -0.000
   5534559.771 9   4306140.81946  23192235.063    23192234.2014   23192244.0284
        -0.000          -0.000
  -7806601.810 9  -6069951.31249  20745127.193    20745126.7184   20745135.7954
        -0.000          -0.000
   -601697.928 9   -372784.33148  21211869.062    21211868.5694   21211876.7414
        -0.000          -0.000
  -8109188.325 9  -6307961.62347  22000654.874    22000654.0144   22000663.3744
        -0.000          -0.000
 99  5 24 16 43 15.0000000  0  8 16  2  5  4  7 24  9  8             0.000000003
  -2498362.748 8  -1815820.58545  24645043.873    24645043.0024   24645054.4414
        -0.000          -0.000
   6248470.890 9   4861936.37645  24043358.702    24043357.7594   24043371.7584
        -0.000          -0.000
  -8194956.593 9  -6349555.62647  22118073.608    22118072.7874   22118081.5594
        -0.000          -0.000
  -1441520.612 9  -1114822.25949  20336601.451    20336601.3344   20336608.8064
        -0.000          -0.000
   5567592.247 9   4331880.38046  23198520.957    23198520.0784   23198529.9384
        -0.000          -0.000
  -7834106.418 9  -6091383.45348  20739893.220    20739892.7514   20739901.8374
        -0.000          -0.000
   -588249.767 9   -362305.25848  21214428.161    21214427.6674   21214435.8574
        -0.000          -0.000
  -8137515.057 9  -6330034.40047  21995264.465    21995263.6064   21995272.9764
        -0.000          -0.000
 99  5 24 16 43 30.0000000  0  8 16  2  5  4  7 24  9  8             0.000000002
  -2497148.584 8  -1814874.44545  24645274.812    24645274.0324   24645285.4864
        -0.000          -0.000
   6290302.173 9   4894532.08445  24051319.065    24051318.1484   24051332.1024
        -0.000          -0.000
  -8233253.397 9  -6379397.28147  22110785.967    22110785.1224   22110793.9144
        -0.000          -0.000
  -1431449.068 9  -1106974.30249  20338517.991    20338517.8674   20338525.3404
        -0.000          -0.000
   5600632.319 9   4357625.85546  23204808.260    23204807.3664   23204817.2624
        -0.000          -0.000
  -7861484.447 9  -6112716.96248  20734683.330    20734682.8484   20734691.9334
        -0.000          -0.000
   -574659.735 9   -351715.63948  21217014.284    21217013.8074   21217021.9884
        -0.000          -0.000
  -8165701.310 9  -6351997.70947  21989900.793    21989899.9494   21989909.2954
        -0.000          -0.000
 99  5 24 16 43 45.0000000  0  8 16  2  5  4  7 24  9  8            -0.000000006
  -2495815.370 8  -1813835.53645  24645528.520    24645527.7664   24645539.1484
        -0.000          -0.000
   6332183.320 9   4927166.65045  24059288.828    24059287.9414   24059302.0234
        -0.000          -0.000
  -8271520.264 9  -6409215.60147  22103504.028    22103503.1834   22103511.9404
        -0.000          -0.000
  -1421236.474 9  -1099016.43549  20340461.376    20340461.2624   20340468.7074
        -0.000          -0.000
   5633671.643 9   4383370.75146  23211095.447    23211094.5734   23211104.4624
        -0.000          -0.000
  -7888744.748 9  -6133958.73748  20729495.845    20729495.3694   20729504.4524
        -0.000          -0.000
   -560937.880 9   -341023.29648  21219625.449    21219624.9794   21219633.1734
        -0.000          -0.000
  -8193757.792 9  -6373859.89847  21984561.837    21984560.9954   21984570.3434
        -0.000          -0.000
 99  5 24 16 44  0.0000000  0  8 16  2  5  4  7 24  9  8            -0.000000014
  -2494350.723 8  -1812694.23145  24645807.347    24645806.5244   24645817.8934
        -0.000          -0.000
   6374122.350 9   4959846.31545  24067269.640    24067268.7464   24067282.8074
        -0.000          -0.000
  -8309750.086 9  -6439005.05847  22096229.172    22096228.3304   22096237.0534
        -0.000          -0.000
  -1410875.383 9  -1090942.85949  20342433.042    20342432.9374   20342440.3544
        -0.000          -0.000
   5666719.031 9   4409121.93446  23217384.212    23217383.3304   23217393.2224
        -0.000          -0.000
  -7915880.141 9  -6155103.18248  20724332.110    20724331.6244   20724340.7034
        -0.000          -0.000
   -547075.913 9   -330221.77848  21222263.331    21222262.8634   21222271.0564
        -0.000          -0.000
  -8221679.126 9  -6395616.78147  21979248.589    21979247.7334   21979257.0624
        -0.000          -0.000
 99  5 24 16 44 15.0000000  0  8 16  2  5  4  7 24  9  8            -0.000000021
  -2492746.906 8  -1811444.48245  24646112.467    24646111.6424   24646123.0734
        -0.000          -0.000
   6416124.775 9   4992575.38645  24075262.549    24075261.6624   24075275.6524
        -0.000          -0.000
  -8347937.880 9  -6468761.76647  22088962.214    22088961.3904   22088970.1574
        -0.000          -0.000
  -1400358.384 9  -1082747.79649  20344434.372    20344434.2414   20344441.6834
        -0.000          -0.000
   5699782.175 9   4434885.39146  23223675.968    23223675.1044   23223684.9514
        -0.000          -0.000
  -7942888.022 9  -6176148.26548  20719192.654    20719192.2024   20719201.2534
        -0.000          -0.000
   -533065.872 9   -319304.87748  21224929.352    21224928.8774   21224937.0904
        -0.000          -0.000
  -8249462.174 9  -6417265.90947  21973961.655    21973960.8044   21973970.1514
        -0.000          -0.000
 99  5 24 16 44 30.0000000  0  8 16  2  5  4  7 24  9  8            -0.000000030
  -2491009.914 8  -1810090.95445  24646443.004    24646442.2824   24646453.6944
        -0.000          -0.000
   6458182.906 9   5025347.87245  24083266.021    24083265.2224   24083279.0924
        -0.000          -0.000
  -8386090.898 9  -6498491.37847  22081701.883    22081701.1164   22081709.8934
        -0.000          -0.000
  -1389696.503 9  -1074439.83349  20346463.257    20346463.1174   20346470.5564
        -0.000          -0.000
   5732852.428 9   4460654.38946  23229969.044    23229968.1684   23229978.0574
        -0.000          -0.000
  -7969779.775 9  -6197102.85648  20714075.319    20714074.8544   20714083.9154
        -0.000          -0.000
   -518918.014 9   -308280.58148  21227621.641    21227621.1544   21227629.3674
        -0.000          -0.000
  -8277115.531 9  -6438813.97847  21968699.372    21968698.5364   21968707.8424
        -0.000          -0.000
 99  5 24 16 44 45.0000000  0  8 16  2  5  4  7 24  9  8            -0.000000037
  -2489135.799 8  -1808630.57945  24646799.741    24646799.0354   24646810.3354
        -0.000          -0.000
   6500303.605 9   5058169.11545  24091281.385    24091280.6134   24091294.4574
        -0.000          -0.000
  -8424201.728 9  -6528188.11547  22074449.626    22074448.8674   22074457.6614
        -0.000          -0.000
  -1378886.174 9  -1066016.19949  20348520.386    20348520.2634   20348527.7154
        -0.000          -0.000
   5765934.140 9   4486432.32046  23236264.284    23236263.4204   23236273.3324
        -0.000          -0.000
  -7996548.468 9  -6217961.55748  20708981.407    20708980.9414   20708990.0084
        -0.000          -0.000
   -504631.167 9   -297147.98648  21230340.340    21230339.8424   21230348.0614
        -0.000          -0.000
  -8304634.223 9  -6460257.11647  21963462.729    21963461.9124   21963471.1944
        -0.000          -0.000
 99  5 24 16 45  0.0000000  0  8 16  2  5  4  7 24  9  8            -0.000000037
  -2487122.171 8  -1807061.49445  24647183.004    24647182.3114   24647193.4464
        -0.000          -0.000
   6542491.759 9   5091042.90545  24099309.629    24099308.8554   24099322.7614
        -0.000          -0.000
  -8462265.806 9  -6557848.41947  22067206.257    22067205.4824   22067214.2834
        -0.000          -0.000
  -1367924.837 9  -1057474.90049  20350606.224    20350606.1094   20350613.5964
        -0.000          -0.000
   5799031.519 9   4512222.44046  23242562.514    23242561.6704   23242571.6234
        -0.000          -0.000
  -8023190.091 9  -6238721.24948  20703911.671    20703911.1814   20703920.2334
        -0.000          -0.000
   -490203.742 9   -285905.85548  21233085.795    21233085.3114   21233093.5234
        -0.000          -0.000
  -8332013.621 9  -6481591.71147  21958252.603    21958251.7984   21958261.0144
        -0.000          -0.000
 99  5 24 16 45 15.0000000  0  8 16  2  5  4  7 24  9  8            -0.000000036
  -2484978.275 8  -1805390.89545  24647590.998    24647590.2984   24647601.2694
        -0.000          -0.000
   6584741.982 9   5123965.06045  24107349.692    24107348.8104   24107362.7684
        -0.000          -0.000
  -8500289.164 9  -6587476.99847  22059970.651    22059969.8804   22059978.6644
        -0.000          -0.000
  -1356818.563 9  -1048820.66049  20352719.660    20352719.5454   20352727.0514
        -0.000          -0.000
   5832132.524 9   4538015.40246  23248861.453    23248860.5794   23248870.5894
        -0.000          -0.000
  -8049713.168 9  -6259388.56248  20698864.454    20698863.9754   20698873.0154
        -0.000          -0.000
   -475648.475 9   -274564.09948  21235855.585    21235855.1234   21235863.3124
        -0.000          -0.000
  -8359263.489 9  -6502825.37347  21953067.194    21953066.3494   21953075.5194
        -0.000          -0.000
 99  5 24 16 45 30.0000000  0  8 16  2  5  4  7 24  9  8            -0.000000040
  -2482712.377 8  -1803625.22845  24648022.041    24648021.3804   24648032.4034
        -0.000          -0.000
   6627047.232 9   5156930.09445  24115400.158    24115399.2764   24115413.3614
        -0.000          -0.000
  -8538278.569 9  -6617079.11847  22052741.495    22052740.6864   22052749.5244
        -0.000          -0.000
  -1345572.982 9  -1040057.87049  20354859.622    20354859.5144   20354867.0104
        -0.000          -0.000
   5865226.368 9   4563802.78346  23255158.993    23255158.1594   23255168.2194
        -0.000          -0.000
  -8076124.980 9  -6279969.17449  20693838.440    20693837.9744   20693846.9984
        -0.000          -0.000
   -460977.546 9   -263132.21848  21238647.389    21238646.9014   21238655.0934
        -0.000          -0.000
  -8386390.908 9  -6523963.61247  21947905.034    21947904.1824   21947913.3214
        -0.000          -0.000
 99  5 24 16 45 45.0000000  0  8 16  2  5  4  7 24  9  8            -0.000000037
  -2480305.702 8  -1801749.86845  24648480.039    24648479.2834   24648490.3864
        -0.000          -0.000
   6669424.183 9   5189951.01445  24123464.295    24123463.4144   24123477.5444
        -0.000          -0.000
  -8576219.298 9  -6646643.31447  22045521.637    22045520.8244   22045529.6584
        -0.000          -0.000
  -1334171.782 9  -1031173.81849  20357029.215    20357029.0924   20357036.5884
        -0.000          -0.000
   5898330.729 9   4589598.35346  23261458.592    23261457.7484   23261467.8734
        -0.000          -0.000
  -8102406.979 9  -6300448.63349  20688837.136    20688836.6564   20688845.6934
        -0.000          -0.000
   -446175.383 9   -251598.08248  21241464.161    21241463.6614   21241471.8764
        -0.000          -0.000
  -8413374.747 9  -6544989.98047  21942770.207    21942769.3774   21942778.4864
        -0.000          -0.000
 99  5 24 16 46  0.0000000  0  8 16  2  5  4  7 24  9  8            -0.000000030
  -2477764.490 8  -1799769.68045  24648963.526    24648962.8784   24648974.0314
        -0.000          -0.000
   6711867.984 9   5223024.00445  24131541.195    24131540.2624   24131554.4004
        -0.000          -0.000
  -8614119.052 9  -6676175.57547  22038309.539    22038308.7164   22038317.5614
        -0.000          -0.000
  -1322623.595 9  -1022175.23349  20359226.784    20359226.6814   20359234.1624
        -0.000          -0.000
   5931443.365 9   4615400.37546  23267759.757    23267758.8954   23267769.0864
        -0.000          -0.000
  -8128562.575 9  -6320829.59649  20683859.904    20683859.4224   20683868.4704
        -0.000          -0.000
   -431244.743 9   -239963.83548  21244305.344    21244304.8544   21244313.0894
        -0.000          -0.000
  -8440218.550 9  -6565907.22447  21937661.959    21937661.1334   21937670.2354
        -0.000          -0.000
 99  5 24 16 46 15.0000000  0  8 16  2  5  4  7 24  9  8            -0.000000024
  -2475100.816 8  -1797694.07345  24649470.369    24649469.7974   24649480.9584
        -0.000          -0.000
   6754367.377 9   5256140.31945  24139628.636    24139627.7434   24139641.8194
        -0.000          -0.000
  -8651988.004 9  -6705683.83847  22031103.302    22031102.4854   22031111.3354
        -0.000          -0.000
  -1310935.697 9  -1013067.78449  20361450.937    20361450.8214   20361458.2974
        -0.000          -0.000
   5964557.501 9   4641203.57146  23274061.198    23274060.3034   23274070.4664
        -0.000          -0.000
  -8154600.013 9  -6341118.48649  20678905.112    20678904.6424   20678913.7004
        -0.000          -0.000
   -416192.350 9   -228234.71548  21247169.710    21247169.2414   21247177.4804
        -0.000          -0.000
  -8466930.174 9  -6586721.47347  21932578.866    21932578.0824   21932587.1884
        -0.000          -0.000
 99  5 24 16 46 30.0000000  0  8 16  2  5  4  7 24  9  8            -0.000000017
  -2472308.595 8  -1795518.29445  24650001.756    24650001.2094   24650012.2954
        -0.000          -0.000
   6796928.275 8   5289304.56545  24147727.739    24147726.9064   24147741.0574
        -0.000          -0.000
  -8689817.952 9  -6735161.71547  22023904.477    22023903.6794   22023912.5164
        -0.000          -0.000
  -1299102.713 9  -1003847.28249  20363702.684    20363702.5624   20363710.0254
        -0.000          -0.000
   5997680.004 9   4667013.27646  23280364.240    23280363.3804   23280373.5134
        -0.000          -0.000
  -8180512.156 9  -6361309.74949  20673974.179    20673973.7164   20673982.7714
        -0.000          -0.000
   -401012.774 9   -216406.49248  21250058.279    21250057.8114   21250066.0244
        -0.000          -0.000
  -8493503.411 9  -6607427.89347  21927522.114    21927521.3534   21927530.4824
        -0.000          -0.000
 99  5 24 16 46 45.0000000  0  8 16  2  5  4  7 24  9  8            -0.000000008
  -2469391.697 8  -1793245.34745  24650556.854    24650556.2664   24650567.3364
        -0.000          -0.000
   6839547.577 9   5322514.31745  24155838.007    24155837.1814   24155851.4014
        -0.000          -0.000
  -8727611.476 9  -6764611.20447  22016712.578    22016711.7684   22016720.6204
        -0.000          -0.000
  -1287129.911 9   -994517.82849  20365981.032    20365980.9054   20365988.3494
        -0.000          -0.000
   6030805.503 9   4692825.31946  23286667.777    23286666.8964   23286677.1144
        -0.000          -0.000
  -8206298.584 9  -6381403.05549  20669067.192    20669066.7234   20669075.7684
        -0.000          -0.000
   -385711.595 9   -204483.51648  21252970.012    21252969.5254   21252977.7564
        -0.000          -0.000
  -8519939.709 9  -6628027.59947  21922491.442    21922490.6654   21922499.8234
        -0.000          -0.000
 99  5 24 16 47  0.0000000  0  8 16  2  5  4  7 24  9  8             0.000000002
  -2466350.747 8  -1790875.73545  24651135.515    24651134.7454   24651146.1154
        -0.000          -0.000
   6882224.956 8   5355769.32345  24163959.394    24163958.5094   24163972.7664
        -0.000          -0.000
  -8765366.167 9  -6794030.42347  22009528.039    22009527.2624   22009536.1004
        -0.000          -0.000
  -1275015.242 9   -985077.82849  20368286.397    20368286.2594   20368293.6844
        -0.000          -0.000
   6063937.224 9   4718642.21346  23292972.518    23292971.5814   23292981.8274
        -0.000          -0.000
  -8231957.652 9  -6401397.10949  20664184.409    20664183.9334   20664192.9654
        -0.000          -0.000
   -370284.253 9   -192462.22348  21255905.738    21255905.2734   21255913.5004
        -0.000          -0.000
  -8546236.950 9  -6648518.95547  21917487.292    21917486.4704   21917495.6534
        -0.000          -0.000
 99  5 24 16 47 15.0000000  0  8 16  2  5  4  7 24  9  8             0.000000012
  -2463184.136 8  -1788408.22845  24651737.951    24651737.1784   24651748.7404
        -0.000          -0.000
   6924959.280 8   5389068.70645  24172091.523    24172090.6794   24172104.8684
        -0.000          -0.000
  -8803083.964 9  -6823420.90747  22002350.565    22002349.7904   22002358.6374
        -0.000          -0.000
  -1262761.690 9   -975529.60949  20370618.134    20370617.9954   20370625.4344
        -0.000          -0.000
   6097074.009 9   4744463.05446  23299278.239    23299277.3064   23299287.6024
        -0.000          -0.000
  -8257491.446 9  -6421293.55449  20659325.456    20659324.9774   20659334.0174
        -0.000          -0.000
   -354729.301 9   -180341.50348  21258865.762    21258865.3144   21258873.5314
        -0.000          -0.000
  -8572396.674 9  -6668903.15047  21912509.277    21912508.4364   21912517.6254
        -0.000          -0.000
 99  5 24 16 47 30.0000000  0  9 16  2  5  4  7 24  9  8 30          0.000000021
  -2459892.678 8  -1785843.43445  24652364.262    24652363.4154   24652375.0244
        -0.000          -0.000
   6967745.614 8   5422408.61645  24180233.573    24180232.7334   24180246.8984
        -0.000          -0.000
  -8840768.363 9  -6852785.35747  21995179.500    21995178.7154   21995187.5694
        -0.000          -0.000
  -1250373.848 9   -965876.75049  20372975.497    20372975.3734   20372982.8044
        -0.000          -0.000
   6130212.832 9   4770285.47846  23305584.301    23305583.4114   23305593.7434
        -0.000          -0.000
  -8282902.645 9  -6441094.47049  20654489.830    20654489.3754   20654498.4004
        -0.000          -0.000
   -339046.501 9   -168121.15348  21261850.133    21261849.6784   21261857.8764
        -0.000          -0.000
  -8598423.354 9  -6689183.68347  21907556.550    21907555.7154   21907564.9154
        -0.000          -0.000
  -4398138.158 8  -2086034.22545  25116461.937    25116461.5554   25116473.7744
        -0.000          -0.000
 99  5 24 16 47 45.0000000  0  9 16  2  5  4  7 24  9  8 30          0.000000027
  -2456478.853 8  -1783183.28445  24653013.866    24653013.0144   24653024.6154
        -0.000          -0.000
   7010577.435 8   5455783.96545  24188384.285    24188383.3714   24188397.5614
        -0.000          -0.000
  -8878423.253 9  -6882126.81547  21988014.056    21988013.2254   21988022.0824
        -0.000          -0.000
  -1237858.450 9   -956124.49849  20375357.099    20375356.9644   20375364.3784
        -0.000          -0.000
   6163351.697 9   4796107.93346  23311890.438    23311889.5844   23311899.9344
        -0.000          -0.000
  -8308193.658 9  -6460801.73449  20649677.080    20649676.6364   20649685.6464
        -0.000          -0.000
   -323232.558 9   -155798.61448  21264859.465    21264858.9754   21264867.1844
        -0.000          -0.000
  -8624320.602 9  -6709363.35047  21902628.437    21902627.6064   21902636.8244
        -0.000          -0.000
  -4446715.382 8  -2123886.58445  25107217.924    25107217.6954   25107229.9074
        -0.000          -0.000
 99  5 24 16 48  0.0000000  0  9 16  2  5  4  7 24  9  8 30          0.000000033
  -2452936.934 8  -1780423.31745  24653687.797    24653687.0384   24653698.5984
        -0.000          -0.000
   7053460.991 8   5489199.64545  24196544.870    24196543.9604   24196558.1794
        -0.000          -0.000
  -8916040.605 9  -6911439.02047  21980855.714    21980854.8814   21980863.7224
        -0.000          -0.000
  -1225208.635 9   -946267.50249  20377764.298    20377764.1474   20377771.5764
        -0.000          -0.000
   6196500.382 9   4821938.05246  23318198.470    23318197.6284   23318207.9744
        -0.000          -0.000
  -8333358.548 9  -6480410.72149  20644888.368    20644887.9124   20644896.9254
        -0.000          -0.000
   -307276.118 9   -143365.04148  21267895.900    21267895.4024   21267903.5894
        -0.000          -0.000
  -8650082.566 9  -6729437.60647  21897726.048    21897725.2204   21897734.4704
        -0.000          -0.000
  -4495305.621 8  -2161749.06745  25097971.521    25097971.2664   25097983.5164
        -0.000          -0.000
 99  5 24 16 48 15.0000000  0  9 16  2  5  4  7 24  9  8 30          0.000000036
  -2449270.831 8  -1777566.58645  24654385.336    24654384.7144   24654396.1534
        -0.000          -0.000
   7096392.788 8   5522652.90545  24204714.651    24204713.7454   24204727.9164
        -0.000          -0.000
  -8953622.232 9  -6940723.39547  21973704.171    21973703.3324   21973712.1824
        -0.000          -0.000
  -1212424.840 9   -936306.11149  20380196.977    20380196.8334   20380204.2374
        -0.000          -0.000
   6229652.639 9   4847770.94046  23324507.186    23324506.3404   23324516.6884
        -0.000          -0.000
  -8358400.644 9  -6499924.02649  20640123.003    20640122.5414   20640131.5694
        -0.000          -0.000
   -291183.217 9   -130825.13648  21270958.252    21270957.7924   21270965.9604
        -0.000          -0.000
  -8675715.986 9  -6749411.69647  21892848.154    21892847.3274   21892856.6114
        -0.000          -0.000
  -4543912.107 8  -2199624.20145  25088722.016    25088721.7704   25088734.0114
        -0.000          -0.000
 99  5 24 16 48 30.0000000  0  9 16  2  5  4  7 24  9  8 30          0.000000033
  -2445482.383 8  -1774614.52345  24655106.240    24655105.7164   24655117.0914
        -0.000          -0.000
   7139370.946 8   5556142.28645  24212893.232    24212892.2834   24212906.4594
        -0.000          -0.000
  -8991168.516 9  -6969980.22347  21966559.325    21966558.5084   21966567.3384
        -0.000          -0.000
  -1199510.010 9   -926242.61349  20382654.578    20382654.4424   20382661.8554
        -0.000          -0.000
   6262803.240 9   4873602.55346  23330815.571    23330814.7034   23330825.0664
        -0.000          -0.000
  -8383322.684 9  -6519343.78049  20635380.514    20635380.0544   20635389.0904
        -0.000          -0.000
   -274961.212 9   -118184.62748  21274045.213    21274044.7454   21274052.9254
        -0.000          -0.000
  -8701225.442 9  -6769289.18847  21887993.899    21887993.0884   21888002.3414
        -0.000          -0.000
  -4592538.936 8  -2237515.19145  25079468.600    25079468.3554   25079480.6724
        -0.000          -0.000
 99  5 24 16 48 45.0000000  0  9 16  2  5  4  7 24  9  8 30          0.000000031
  -2441563.309 8  -1771560.66945  24655851.989    24655851.3304   24655862.9354
        -0.000          -0.000
   7182405.814 8   5589675.84545  24221082.532    24221081.6734   24221095.8794
        -0.000          -0.000
  -9028669.653 9  -6999201.87747  21959423.068    21959422.2594   21959431.0994
        -0.000          -0.000
  -1186456.643 9   -916071.16749  20385138.544    20385138.4124   20385145.8254
        -0.000          -0.000
   6295957.511 9   4899437.01446  23337124.611    23337123.7464   23337134.1294
        -0.000          -0.000
  -8408115.542 9  -6538662.87249  20630662.609    20630662.1404   20630671.1854
        -0.000          -0.000
   -258602.396 9   -105437.51248  21277158.212    21277157.7504   21277165.9234
        -0.000          -0.000
  -8726599.042 9  -6789060.82347  21883165.473    21883164.6314   21883173.9264
        -0.000          -0.000
  -4641175.084 8  -2275413.43545  25070213.386    25070213.1624   25070225.5324
        -0.000          -0.000
 99  5 24 16 49  0.0000000  0  9 16  2  5  4  7 24  9  8 30          0.000000027
  -2437517.397 8  -1768407.99245  24656621.758    24656621.1764   24656632.8084
        -0.000          -0.000
   7225492.268 8   5623249.59945  24229281.671    24229280.8684   24229295.0714
        -0.000          -0.000
  -9066130.020 9  -7028391.75347  21952294.577    21952293.7934   21952302.6424
        -0.000          -0.000
  -1173265.789 9   -905792.58349  20387648.690    20387648.5454   20387655.9744
        -0.000          -0.000
   6329112.576 9   4925272.10146  23343433.828    23343432.9574   23343443.3834
        -0.000          -0.000
  -8432781.560 9  -6557883.12849  20625968.813    20625968.3494   20625977.3784
        -0.000          -0.000
   -242108.913 9    -92585.46848  21280296.850    21280296.3674   21280304.5564
        -0.000          -0.000
  -8751836.959 9  -6808726.72347  21878362.846    21878362.0054   21878371.2844
        -0.000          -0.000
  -4689823.642 8  -2313321.35945  25060955.899    25060955.6714   25060968.1304
        -0.000          -0.000
 99  5 24 16 49 15.0000000  0  9 16  2  5  4  7 24  9  8 30          0.000000020
  -2433345.461 8  -1765157.11045  24657415.586    24657415.0564   24657426.5664
        -0.000          -0.000
   7268629.031 8   5656862.55845  24237490.463    24237489.6544   24237503.8964
        -0.000          -0.000
  -9103551.704 9  -7057551.49047  21945173.419    21945172.6434   21945181.4884
        -0.000          -0.000
  -1159936.319 9   -895405.99349  20390185.210    20390185.0794   20390192.5314
        -0.000          -0.000
   6362266.785 9   4951106.52046  23349742.968    23349742.0504   23349752.4604
        -0.000          -0.000
  -8457322.755 9  -6577006.12249  20621298.769    20621298.3024   20621307.3184
        -0.000          -0.000
   -225481.760 9    -79629.26148  21283460.931    21283460.4574   21283468.6444
        -0.000          -0.000
  -8776941.431 9  -6828288.64347  21873585.624    21873584.7624   21873594.0614
        -0.000          -0.000
  -4738484.135 8  -2351238.58745  25051696.168    25051695.8624   25051708.3634
        -0.000          -0.000
 99  5 24 16 49 30.0000000  0  9 16  2  5  4  7 24  9  8 30          0.000000011
  -2429043.487 8  -1761804.90445  24658234.370    24658233.7604   24658245.1894
        -0.000          -0.000
   7311819.673 8   5690517.50345  24245709.513    24245708.7054   24245722.9184
        -0.000          -0.000
  -9140932.250 9  -7086679.17147  21938060.131    21938059.3584   21938068.2044
        -0.000          -0.000
  -1146465.326 9   -884909.12349  20392748.651    20392748.5344   20392755.9714
        -0.000          -0.000
   6395421.931 9   4976941.67746  23356052.262    23356051.3214   23356061.6764
        -0.000          -0.000
  -8481736.873 9  -6596030.09449  20616652.935    20616652.4594   20616661.4674
        -0.000          -0.000
   -208721.946 9    -66569.68948  21286650.211    21286649.7394   21286657.9344
        -0.000          -0.000
  -8801909.263 9  -6847744.09447  21868834.419    21868833.5724   21868842.8204
        -0.000          -0.000
  -4787154.374 8  -2389163.41945  25042434.609    25042434.2924   25042446.6104
        -0.000          -0.000
 99  5 24 16 49 45.0000000  0  9 16  2  5  4  7 24  9  8 30          0.000000002
  -2424610.405 8  -1758350.52645  24659078.082    24659077.3364   24659088.7394
        -0.000          -0.000
   7355067.654 8   5724217.12745  24253939.469    24253938.5574   24253952.7814
        -0.000          -0.000
  -9178268.736 9  -7115772.52547  21930955.258    21930954.4864   21930963.3424
        -0.000          -0.000
  -1132848.488 9   -874298.60749  20395339.850    20395339.7304   20395347.1624
        -0.000          -0.000
   6428582.387 9   5002780.96246  23362362.543    23362361.5844   23362371.9674
        -0.000          -0.000
  -8506019.340 9  -6614951.48049  20612032.110    20612031.6284   20612040.6424
        -0.000          -0.000
   -191826.432 9    -53404.37148  21289865.345    21289864.8734   21289873.0734
        -0.000          -0.000
  -8826736.656 9  -6867090.11247  21864109.887    21864109.0524   21864118.2744
        -0.000          -0.000
  -4835829.952 8  -2427092.38645  25033172.022    25033171.6964   25033183.9374
        -0.000          -0.000
 99  5 24 16 50  0.0000000  0  9 16  2  5  4  7 24  9  8 30         -0.000000009
  -2420055.200 8  -1754800.99645  24659944.906    24659944.0874   24659955.5624
        -0.000          -0.000
   7398372.530 8   5757961.09045  24262180.183    24262179.3424   24262193.5304
        -0.000          -0.000
  -9215567.382 9  -7144836.38947  21923857.546    21923856.7604   21923865.6344
        -0.000          -0.000
  -1119089.593 9   -863577.39949  20397958.116    20397957.9874   20397965.3904
        -0.000          -0.000
   6461742.436 9   5028619.92946  23368672.718    23368671.7654   23368682.1304
        -0.000          -0.000
  -8530176.612 9  -6633775.31149  20607435.100    20607434.6204   20607443.6324
        -0.000          -0.000
   -174804.092 9    -40140.22848  21293104.599    21293104.1114   21293112.3144
        -0.000          -0.000
  -8851425.421 9  -6886328.10547  21859411.778    21859410.9454   21859420.1654
        -0.000          -0.000
  -4884516.295 8  -2465029.76045  25023907.359    25023906.9304   25023919.1944
        -0.000          -0.000
 99  5 24 16 50 15.0000000  0  9 16  2  5  4  7 24  9  8 30         -0.000000016
  -2415371.754 8  -1751151.52945  24660836.077    24660835.2894   24660846.7674
        -0.000          -0.000
   7441744.009 8   5791756.94645  24270433.557    24270432.6594   24270446.9534
        -0.000          -0.000
  -9252822.510 9  -7173866.34347  21916768.165    21916767.3484   21916776.2304
        -0.000          -0.000
  -1105181.427 9   -852739.87349  20400604.776    20400604.6354   20400612.0094
        -0.000          -0.000
   6494907.990 9   5054463.19546  23374983.951    23374982.9864   23374993.3604
        -0.000          -0.000
  -8554201.767 9  -6652496.19349  20602863.236    20602862.7654   20602871.7624
        -0.000          -0.000
   -157653.753 9    -26776.34748  21296368.182    21296367.6914   21296375.8994
        -0.000          -0.000
  -8875968.439 9  -6905452.53247  21854741.429    21854740.6284   21854749.7794
        -0.000          -0.000
  -4933211.497 8  -2502974.04445  25014640.959    25014640.4154   25014652.7134
        -0.000          -0.000
 99  5 24 16 50 30.0000000  0  9 16  2  5  4  7 24  9  8 30         -0.000000018
  -2410556.791 8  -1747399.58545  24661752.295    24661751.5754   24661762.9694
        -0.000          -0.000
   7485184.730 8   5825606.74845  24278700.115    24278699.1774   24278713.6214
        -0.000          -0.000
  -9290030.746 9  -7202859.75847  21909687.646    21909686.8394   21909695.7034
        -0.000          -0.000
  -1091123.592 9   -841785.72549  20403279.903    20403279.7634   20403287.1304
        -0.000          -0.000
   6528078.639 9   5080310.41746  23381296.093    23381295.1364   23381305.5164
        -0.000          -0.000
  -8578090.023 9  -6671110.40449  20598317.458    20598316.9924   20598325.9414
        -0.000          -0.000
   -140372.266 9    -13310.27248  21299656.698    21299656.2254   21299664.4334
        -0.000          -0.000
  -8900362.197 9  -6924460.65547  21850099.447    21850098.6224   21850107.7564
        -0.000          -0.000
  -4981913.163 8  -2540923.36845  25005373.370    25005372.8704   25005385.2424
        -0.000          -0.000
 99  5 24 16 50 45.0000000  0  9 16  2  5  4  7 24  9  8 30         -0.000000018
  -2405620.305 8  -1743552.94245  24662691.670    24662690.8644   24662702.2864
        -0.000          -0.000
   7528683.276 8   5859501.62245  24286977.664    24286976.7144   24286991.1754
        -0.000          -0.000
  -9327200.923 9  -7231823.51547  21902614.395    21902613.5764   21902622.4564
        -0.000          -0.000
  -1076927.749 9   -830724.03849  20405981.288    20405981.1434   20405988.5164
        -0.000          -0.000
   6561246.069 9   5106155.14446  23387607.676    23387606.6864   23387617.0434
        -0.000          -0.000
  -8601850.926 9  -6689625.38249  20593795.941    20593795.4624   20593804.3654
        -0.000          -0.000
   -122964.950 9       253.84948  21302969.186    21302968.7024   21302976.9454
        -0.000          -0.000
  -8924612.762 9  -6943357.19947  21845484.710    21845483.8964   21845493.0384
        -0.000          -0.000
  -5030629.265 8  -2578883.95045  24996103.049    24996102.6384   24996114.8274
        -0.000          -0.000
 99  5 24 16 51  0.0000000  0  9 16  2  5  4  7 24  9  8 30         -0.000000014
  -2400553.584 8  -1739604.83045  24663655.913    24663655.1174   24663666.4714
        -0.000          -0.000
   7572243.840 8   5893444.81945  24295266.980    24295266.1474   24295280.5594
        -0.000          -0.000
  -9364329.790 9  -7260755.08247  21895548.995    21895548.1774   21895557.0864
        -0.000          -0.000
  -1062586.662 9   -819549.17249  20408710.299    20408710.1744   20408717.5384
        -0.000          -0.000
   6594419.373 9   5132004.44446  23393920.365    23393919.3564   23393929.7394
        -0.000          -0.000
  -8625479.276 9  -6708037.06949  20589299.597    20589299.1154   20589308.0024
        -0.000          -0.000
   -105423.924 9     13922.16248  21306307.169    21306306.7014   21306314.9544
        -0.000          -0.000
  -8948714.738 9  -6962137.94647  21840898.282    21840897.4714   21840906.6224
        -0.000          -0.000
  -5079353.280 8  -2616850.70345  24986831.243    24986830.8864   24986842.8104
        -0.000          -0.000
 99  5 24 16 51 15.0000000  0  9 16  2  5  4  7 24  9  8 30         -0.000000010
  -2395360.572 8  -1735558.31645  24664644.113    24664643.2834   24664654.6984
        -0.000          -0.000
   7615860.533 8   5927431.75345  24303567.060    24303566.0714   24303580.6034
        -0.000          -0.000
  -9401423.328 9  -7289659.12947  21888490.311    21888489.5044   21888498.4094
        -0.000          -0.000
  -1048107.232 9   -808266.50749  20411465.657    20411465.5364   20411472.9264
        -0.000          -0.000
   6627596.315 9   5157856.57846  23400233.784    23400232.7964   23400243.2264
        -0.000          -0.000
  -8648982.183 9  -6726351.00849  20584827.136    20584826.6614   20584835.5344
        -0.000          -0.000
    -87755.218 9     27689.96448  21309669.440    21309668.9834   21309677.2234
        -0.000          -0.000
  -8972676.461 9  -6980809.42247  21836338.495    21836337.7084   21836346.8574
        -0.000          -0.000
  -5128092.464 8  -2654829.27445  24977556.505    24977556.0494   24977567.9234
        -0.000          -0.000
 99  5 24 16 51 30.0000000  0  9 16  2  5  4  7 24  9  8 30         -0.000000005
  -2390041.814 8  -1731413.80645  24665656.204    24665655.3924   24665666.8364
        -0.000          -0.000
   7659533.073 8   5961462.19145  24311877.751    24311876.6784   24311891.2944
        -0.000          -0.000
  -9438480.966 9  -7318535.19447  21881438.412    21881437.6364   21881446.5254
        -0.000          -0.000
  -1033494.057 9   -796879.62349  20414246.496    20414246.3614   20414253.7534
        -0.000          -0.000
   6660774.285 9   5183709.51446  23406547.391    23406546.4354   23406556.8174
        -0.000          -0.000
  -8672363.089 9  -6744569.87649  20580377.887    20580377.4114   20580386.2974
        -0.000          -0.000
    -69960.057 9     41556.30448  21313055.763    21313055.2994   21313063.5384
        -0.000          -0.000
  -8996498.312 9  -6999371.90047  21831805.351    21831804.5564   21831813.7344
        -0.000          -0.000
  -5176849.237 8  -2692821.52245  24968278.299    24968277.7614   24968289.7654
        -0.000          -0.000
 99  5 24 16 51 45.0000000  0  9 16  2  5  4  7 24  9  8 30          0.000000004
  -2384595.080 8  -1727169.57945  24666692.684    24666691.9544   24666703.2764
        -0.000          -0.000
   7703263.769 8   5995537.97145  24320199.441    24320198.3564   24320213.0864
        -0.000          -0.000
  -9475500.498 9  -7347381.56547  21874393.822    21874393.0334   21874401.9434
        -0.000          -0.000
  -1018744.908 9   -785386.78549  20417053.197    20417053.0484   20417060.4414
        -0.000          -0.000
   6693957.617 9   5209566.63246  23412862.030    23412861.0734   23412871.4904
        -0.000          -0.000
  -8695618.691 9  -6762691.10949  20575952.472    20575952.0054   20575960.8824
        -0.000          -0.000
    -52034.757 9     55524.04648  21316466.884    21316466.4074   21316474.6474
        -0.000          -0.000
  -9020175.320 9  -7017821.51447  21827299.792    21827298.9954   21827308.1594
        -0.000          -0.000
  -5225619.128 8  -2730823.97945  24958997.620    24958997.1264   24959009.0634
        -0.000          -0.000
 99  5 24 16 52  0.0000000  0  9 16  2  5  4  7 24  9  8 30         -0.000000085
  -2378989.756 8  -1722801.76845  24667759.342    24667758.5674   24667769.9124
        -0.000          -0.000
   7747085.240 8   6029684.46545  24328538.420    24328537.3944   24328552.1204
        -0.000          -0.000
  -9512449.136 9  -7376172.69547  21867362.725    21867361.9114   21867370.8324
        -0.000          -0.000
  -1003825.587 9   -773761.34649  20419892.253    20419892.0934   20419899.4774
        -0.000          -0.000
   6727176.667 9   5235451.57946  23419183.469    23419182.4974   23419192.9004
        -0.000          -0.000
  -8718718.119 9  -6780690.64949  20571556.804    20571556.3384   20571565.2024
        -0.000          -0.000
    -33947.683 9     69617.84948  21319908.754    21319908.2854   21319916.5194
        -0.000          -0.000
  -9043674.625 9  -7036132.66147  21822828.018    21822827.2214   21822836.3894
        -0.000          -0.000
  -5274370.808 8  -2768812.23445  24949720.372    24949720.0784   24949731.7904
        -0.000          -0.000
 99  5 24 16 52 15.0000000  0  9 16  2  5  4  7 24  9  8 30         -0.000000064
  -2373259.704 8  -1718336.76145  24668849.646    24668848.9114   24668860.2724
        -0.000          -0.000
   7790959.537 8   6063872.13945  24336887.519    24336886.4944   24336901.1314
        -0.000          -0.000
  -9549361.234 9  -7404935.35647  21860338.532    21860337.7134   21860346.6464
        -0.000          -0.000
   -988771.615 9   -762030.98349  20422756.916    20422756.7504   20422764.1274
        -0.000          -0.000
   6760397.406 9   5261337.83846  23425505.211    23425504.2314   23425514.5664
        -0.000          -0.000
  -8741696.082 9  -6798595.54249  20567184.227    20567183.7454   20567192.6114
        -0.000          -0.000
    -15735.529 9     83809.11448  21323374.441    21323373.9754   21323382.2104
        -0.000          -0.000
  -9067029.692 9  -7054331.41247  21818383.731    21818382.9284   21818392.0654
        -0.000          -0.000
  -5323138.735 8  -2806813.16445  24940440.107    24940439.8434   24940451.5704
        -0.000          -0.000
 99  5 24 16 52 30.0000000  0  9 16  2  5  4  7 24  9  8 30         -0.000000050
  -2367415.881 8  -1713783.11645  24669961.608    24669960.9314   24669972.2084
        -0.000          -0.000
   7834866.196 8   6098085.02645  24345242.853    24345241.8494   24345256.3294
        -0.000          -0.000
  -9586249.935 9  -7433679.78347  21853318.838    21853318.0134   21853326.9644
        -0.000          -0.000
   -973598.617 9   -750207.87349  20425644.215    20425644.0714   20425651.4554
        -0.000          -0.000
   6793604.288 9   5287213.31246  23431824.277    23431823.2964   23431833.6604
        -0.000          -0.000
  -8764566.004 9  -6816416.24149  20562832.218    20562831.7284   20562840.6134
        -0.000          -0.000
      2589.019 9     98087.96148  21326861.542    21326861.0814   21326869.3074
        -0.000          -0.000
  -9090256.421 9  -7072430.15647  21813963.826    21813963.0084   21813972.1754
        -0.000          -0.000
  -5371935.179 8  -2844836.31945  24931154.369    24931154.0724   24931165.9104
        -0.000          -0.000
 99  5 24 16 52 45.0000000  0  9 16  2  5  4  7 24  9  8 30         -0.000000040
  -2361450.547 8  -1709134.77345  24671096.837    24671096.0364   24671107.3684
        -0.000          -0.000
   7878808.707 8   6132325.85045  24353604.979    24353603.8414   24353618.4834
        -0.000          -0.000
  -9623109.312 9  -7462401.36147  21846304.712    21846303.8994   21846312.8564
        -0.000          -0.000
   -958299.328 9   -738286.35249  20428555.567    20428555.4354   20428562.8464
        -0.000          -0.000
   6826804.262 9   5313083.38946  23438142.017    23438141.0734   23438151.4654
        -0.000          -0.000
  -8787321.831 9  -6834148.03849  20558501.916    20558501.4364   20558510.3424
        -0.000          -0.000
     21033.282 9    112460.08748  21330371.378    21330370.9114   21330379.1504
        -0.000          -0.000
  -9113348.649 9  -7090424.09847  21809569.498    21809568.6904   21809577.8554
        -0.000          -0.000
  -5420751.799 8  -2882875.22045  24921864.844    24921864.5224   24921876.3914
        -0.000          -0.000
 99  5 24 16 53  0.0000000  0  9 16  2  5  4  7 24  9  8 30         -0.000000030
  -2355358.080 8  -1704387.37745  24672256.139    24672255.3634   24672266.6564
        -0.000          -0.000
   7922793.297 8   6166599.45645  24361975.028    24361973.8964   24361988.5904
        -0.000          -0.000
  -9659935.712 9  -7491097.24747  21839296.853    21839296.0704   21839305.0114
        -0.000          -0.000
   -942867.141 9   -726261.27649  20431492.207    20431492.0624   20431499.5114
        -0.000          -0.000
   6860005.579 9   5338954.51646  23444459.980    23444459.0794   23444469.5364
        -0.000          -0.000
  -8809960.690 9  -6851788.69149  20554193.885    20554193.4084   20554202.3234
        -0.000          -0.000
     39598.504 9    126926.46648  21333904.248    21333903.7854   21333912.0234
        -0.000          -0.000
  -9136303.879 9  -7108311.29247  21805201.296    21805200.4844   21805209.6664
        -0.000          -0.000
  -5469585.092 8  -2920927.09645  24912572.198    24912571.7964   24912583.5964
        -0.000          -0.000
 99  5 24 16 53 15.0000000  0  9 16  2  5  4  7 24  9  8 30         -0.000000021
  -2349137.079 8  -1699539.82245  24673439.955    24673439.2144   24673450.3694
        -0.000          -0.000
   7966825.566 8   6200910.21645  24370354.028    24370352.9964   24370367.8754
        -0.000          -0.000
  -9696723.831 9  -7519763.30147  21832296.296    21832295.5174   21832304.4324
        -0.000          -0.000
   -927296.307 9   -714128.15649  20434455.236    20434455.1014   20434462.5864
        -0.000          -0.000
   6893213.249 9   5364830.60746  23450779.179    23450778.2744   23450788.7614
        -0.000          -0.000
  -8832477.917 9  -6869334.56549  20549909.000    20549908.5144   20549917.4414
        -0.000          -0.000
     58287.767 9    141489.50848  21337460.741    21337460.2744   21337468.5154
        -0.000          -0.000
  -9159117.398 9  -7126088.05047  21800859.998    21800859.1694   21800868.3824
        -0.000          -0.000
  -5518430.936 8  -2958988.74345  24903277.137    24903276.7304   24903288.6554
        -0.000          -0.000
 99  5 24 16 53 30.0000000  0  9 16  2  5  4  7 24  9  8 30         -0.000000016
  -2342791.655 8  -1694595.30245  24674647.421    24674646.6094   24674657.7614
        -0.000          -0.000
   8010906.319 8   6235258.74345  24378742.280    24378741.2294   24378756.3584
        -0.000          -0.000
  -9733471.497 9  -7548397.83247  21825303.427    21825302.6574   21825311.5784
        -0.000          -0.000
   -911586.973 9   -701887.12049  20437444.617    20437444.4624   20437452.0014
        -0.000          -0.000
   6926422.166 9   5390707.65446  23457098.629    23457097.7594   23457108.2294
        -0.000          -0.000
  -8854872.549 9  -6886784.91349  20545647.434    20545646.9354   20545655.8614
        -0.000          -0.000
     77100.914 9    156149.07948  21341040.774    21341040.3054   21341048.5414
        -0.000          -0.000
  -9181788.747 9  -7143754.03047  21796545.757    21796544.9464   21796554.1934
        -0.000          -0.000
  -5567288.192 8  -2997059.29345  24893979.917    24893979.5264   24893991.4704
        -0.000          -0.000
 99  5 24 16 53 45.0000000  0  9 16  2  5  4  7 24  9  8 30         -0.000000019
  -2336323.387 8  -1689555.05545  24675878.228    24675877.4264   24675888.5934
        -0.000          -0.000
   8055033.961 8   6269643.81045  24387139.525    24387138.4554   24387153.6484
        -0.000          -0.000
  -9770181.095 9  -7577002.70047  21818317.805    21818317.0334   21818325.9304
        -0.000          -0.000
   -895739.465 9   -689538.40949  20440460.279    20440460.1244   20440467.6694
        -0.000          -0.000
   6959628.637 9   5416582.79246  23463417.656    23463416.7844   23463427.2284
        -0.000          -0.000
  -8877143.998 9  -6904139.26749  20541409.301    20541408.8194   20541417.7404
        -0.000          -0.000
     96035.933 9    170903.62148  21344643.984    21344643.5214   21344651.7594
        -0.000          -0.000
  -9204320.934 9  -7161311.56947  21792258.005    21792257.1944   21792266.4784
        -0.000          -0.000
  -5616158.312 8  -3035139.86845  24884680.184    24884679.8554   24884691.8504
        -0.000          -0.000
 99  5 24 16 54  0.0000000  0  9 16  2  5  4  7 24  9  8 30         -0.000000024
  -2329722.014 8  -1684411.11445  24677134.461    24677133.6264   24677144.8624
        -0.000          -0.000
   8099222.155 8   6304076.06045  24395548.407    24395547.1844   24395562.4834
        -0.000          -0.000
  -9806840.840 9  -7605568.72147  21811341.697    21811340.9334   21811349.7874
        -0.000          -0.000
   -879741.308 9   -677072.31849  20443504.635    20443504.4764   20443512.0164
        -0.000          -0.000
   6992846.499 9   5442466.81746  23469738.876    23469737.9294   23469748.3324
        -0.000          -0.000
  -8899277.598 9  -6921386.21349  20537197.409    20537196.9254   20537205.8264
        -0.000          -0.000
    115104.318 9    185762.07348  21348272.606    21348272.1394   21348280.4054
        -0.000          -0.000
  -9226707.401 9  -7178755.56747  21787998.009    21787997.2134   21788006.4674
        -0.000          -0.000
  -5665029.610 8  -3073221.35545  24875380.281    24875379.9434   24875392.0114
        -0.000          -0.000
 99  5 24 16 54 15.0000000  0  9 16  2  5  4  7 24  9  8 30         -0.000000029
  -2322984.421 8  -1679161.00445  24678416.738    24678415.8384   24678427.0134
        -0.000          -0.000
   8143470.775 8   6338555.39645  24403968.683    24403967.4454   24403982.7684
        -0.000          -0.000
  -9843448.776 9  -7634094.36947  21804375.424    21804374.6564   21804383.4904
        -0.000          -0.000
   -863594.208 9   -664490.15849  20446577.316    20446577.1494   20446584.6884
        -0.000          -0.000
   7026076.483 9   5468360.28746  23476062.375    23476061.4514   23476071.8054
        -0.000          -0.000
  -8921271.745 9  -6938524.49149  20533012.027    20533011.5524   20533020.4304
        -0.000          -0.000
    134307.395 9    200725.49148  21351926.847    21351926.3694   21351934.6674
        -0.000          -0.000
  -9248948.411 9  -7196086.21347  21783765.671    21783764.8544   21783774.0704
        -0.000          -0.000
  -5713901.780 8  -3111303.51245  24866080.178    24866079.8214   24866091.8174
        -0.000          -0.000
 99  5 24 16 54 30.0000000  0  9 16  2  5  4  7 24  9  8 30         -0.000000030
  -2316108.674 8  -1673803.26845  24679725.210    24679724.3524   24679735.3294
        -0.000          -0.000
   8187778.269 8   6373080.64045  24412400.154    24412398.9684   24412414.2454
        -0.000          -0.000
  -9880004.487 9  -7662579.32347  21797419.130    21797418.3514   21797427.1514
        -0.000          -0.000
   -847299.931 9   -651793.32149  20449678.020    20449677.8534   20449685.3994
        -0.000          -0.000
   7059319.548 9   5494263.94446  23482388.362    23482387.3724   23482397.6974
        -0.000          -0.000
  -8943124.497 9  -6955552.59449  20528853.589    20528853.1214   20528861.9644
        -0.000          -0.000
    153645.313 9    215793.97848  21355606.766    21355606.2914   21355614.5594
        -0.000          -0.000
  -9271045.263 9  -7213304.53647  21779560.743    21779559.9154   21779569.1384
        -0.000          -0.000
  -5762775.175 8  -3149386.63045  24856779.890    24856779.5204   24856791.5164
        -0.000          -0.000
 99  5 24 16 54 45.0000000  0  9 16  2  5  4  7 24  9  8 30         -0.000000032
  -2309094.312 8  -1668337.50345  24681059.937    24681059.0994   24681070.1154
        -0.000          -0.000
   8232145.753 8   6407652.62745  24420843.063    24420841.8524   24420857.1254
        -0.000          -0.000
  -9916508.294 9  -7691023.83847  21790472.707    21790471.9104   21790480.7114
        -0.000          -0.000
   -830857.017 9   -638980.66449  20452806.999    20452806.8464   20452814.3834
        -0.000          -0.000
   7092573.667 9   5520176.21946  23488716.462    23488715.4104   23488725.7674
        -0.000          -0.000
  -8964836.760 9  -6972471.22649  20524721.895    20524721.4214   20524730.2524
        -0.000          -0.000
    173118.878 9    230968.16048  21359312.473    21359311.9964   21359320.2494
        -0.000          -0.000
  -9293000.105 9  -7230412.19747  21775382.828    21775382.0174   21775391.2324
        -0.000          -0.000
  -5811651.593 8  -3187472.08945  24847479.004    24847478.5494   24847490.6224
        -0.000          -0.000
 99  5 24 16 55  0.0000000  0  9 16  2  5  4  7 24  9  8 30         -0.000000033
  -2301947.876 8  -1662768.82645  24682419.841    24682419.0174   24682430.0854
        -0.000          -0.000
   8276574.675 8   6442272.46945  24429297.745    24429296.5004   24429311.8834
        -0.000          -0.000
  -9952961.897 9  -7719429.22447  21783535.803    21783535.0134   21783543.8094
        -0.000          -0.000
   -814269.287 9   -626055.15849  20455963.556    20455963.4114   20455970.9474
        -0.000          -0.000
   7125838.495 9   5546096.84546  23495046.558    23495045.4784   23495055.8884
        -0.000          -0.000
  -8986411.512 9  -6989282.70149  20520616.340    20520615.8534   20520624.6954
        -0.000          -0.000
    192724.078 9    246244.92348  21363043.247    21363042.7734   21363051.0114
        -0.000          -0.000
  -9314814.797 9  -7247410.64347  21771231.634    21771230.8504   21771240.0614
        -0.000          -0.000
  -5860535.004 8  -3225562.98045  24838176.849    24838176.3294   24838188.4204
        -0.000          -0.000
 99  5 24 16 55 15.0000000  0  9 16  2  5  4  7 24  9  8 30         -0.000000037
  -2294677.037 8  -1657103.20445  24683803.405    24683802.5994   24683813.6324
        -0.000          -0.000
   8321061.147 8   6476937.16245  24437763.277    24437762.1094   24437777.4534
        -0.000          -0.000
  -9989370.763 9  -7747799.75948  21776607.451    21776606.6394   21776615.4014
        -0.000          -0.000
   -797546.437 9   -613024.36749  20459145.815    20459145.6484   20459153.1754
        -0.000          -0.000
   7159103.707 9   5572017.75746  23501376.725    23501375.7164   23501386.1244
        -0.000          -0.000
  -9007853.905 9  -7005991.04049  20516535.969    20516535.4984   20516544.3144
        -0.000          -0.000
    212456.848 9    261621.08748  21366798.289    21366797.8144   21366806.0614
        -0.000          -0.000
  -9336493.188 9  -7264302.88947  21767106.363    21767105.5474   21767114.7614
        -0.000          -0.000
  -5909429.854 8  -3263662.80545  24828872.515    24828871.9794   24828884.0264
        -0.000          -0.000
 99  5 24 16 55 30.0000000  0  9 16  2  5  4  7 24  9  8 30         -0.000000040
  -2287275.708 8  -1651335.91445  24685211.891    24685210.9944   24685222.0254
        -0.000          -0.000
   8365608.492 8   6511649.29545  24446240.351    24446239.2704   24446254.5634
        -0.000          -0.000
 -10025730.432 9  -7776131.94148  21769688.434    21769687.6194   21769696.3884
        -0.000          -0.000
   -780688.446 9   -599888.27049  20462353.779    20462353.6174   20462361.1554
        -0.000          -0.000
   7192369.637 9   5597939.23446  23507707.022    23507706.0534   23507716.5004
        -0.000          -0.000
  -9029157.864 9  -7022591.51149  20512481.918    20512481.4554   20512490.2624
        -0.000          -0.000
    232321.582 9    277100.08048  21370578.454    21370577.9874   21370586.2394
        -0.000          -0.000
  -9358030.413 9  -7281085.13247  21763007.974    21763007.1644   21763016.4234
        -0.000          -0.000
  -5958330.083 8  -3301766.83745  24819567.125    24819566.6814   24819578.6064
        -0.000          -0.000
 99  5 24 16 55 45.0000000  0  9 16  2  5  4  7 24  9  8 30         -0.000000039
  -2279739.121 8  -1645463.23345  24686646.076    24686645.2414   24686656.2334
        -0.000          -0.000
   8410217.432 8   6546409.41645  24454729.214    24454728.2434   24454743.3514
        -0.000          -0.000
 -10062041.949 9  -7804426.61648  21762778.601    21762777.7824   21762786.5634
        -0.000          -0.000
   -763698.498 9   -586649.35049  20465586.855    20465586.6994   20465594.2254
        -0.000          -0.000
   7225636.198 9   5623861.19746  23514037.506    23514036.5314   23514047.0214
        -0.000          -0.000
  -9050322.312 9  -7039083.27049  20508454.436    20508453.9734   20508462.7594
        -0.000          -0.000
    252317.538 9    292681.32448  21374383.575    21374383.1124   21374391.3714
        -0.000          -0.000
  -9379426.538 9  -7297757.42547  21758936.408    21758935.5824   21758944.8404
        -0.000          -0.000
  -6007234.749 8  -3339874.32445  24810260.910    24810260.4144   24810272.2574
        -0.000          -0.000
 99  5 24 16 56  0.0000000  0  9 16  2  5  4  7 24  9  8 30         -0.000000035
  -2272076.567 8  -1639492.39245  24688104.209    24688103.2924   24688114.3164
        -0.000          -0.000
   8454876.026 8   6581208.22445  24463227.603    24463226.5004   24463241.6104
        -0.000          -0.000
 -10098315.133 9  -7832691.41648  21755876.023    21755875.2014   21755883.9644
        -0.000          -0.000
   -746589.402 9   -573317.58649  20468842.609    20468842.4554   20468850.0034
        -0.000          -0.000
   7258897.326 9   5649778.93946  23520366.965    23520365.9804   23520376.3774
        -0.000          -0.000
  -9071357.441 9  -7055474.26449  20504451.574    20504451.1044   20504459.8714
        -0.000          -0.000
    272434.183 9    308356.61148  21378211.684    21378211.2124   21378219.4564
        -0.000          -0.000
  -9400689.479 9  -7314325.95147  21754890.182    21754889.3634   21754898.5994
        -0.000          -0.000
  -6056153.545 8  -3377992.84545  24800952.023    24800951.4794   24800963.2494
        -0.000          -0.000
 99  5 24 16 56 15.0000000  0  9 16  2  5  4  7 24  9  8 30         -0.000000030
  -2264290.993 8  -1633425.69845  24689585.677    24689584.7664   24689595.8914
        -0.000          -0.000
   8499579.315 8   6616041.86645  24471734.459    24471733.3614   24471748.3984
        -0.000          -0.000
 -10134549.368 9  -7860925.87248  21748980.840    21748980.0444   21748988.7834
        -0.000          -0.000
   -729364.669 9   -559895.71849  20472120.367    20472120.2264   20472127.7694
        -0.000          -0.000
   7292148.974 9   5675689.28446  23526694.620    23526693.6584   23526704.0134
        -0.000          -0.000
  -9092267.153 9  -7071767.52549  20500472.540    20500472.0794   20500480.8484
        -0.000          -0.000
    292669.461 9    324124.34148  21382062.351    21382061.8574   21382070.1004
        -0.000          -0.000
  -9421817.693 9  -7330789.49447  21750869.620    21750868.8074   21750878.0354
        -0.000          -0.000
  -6105088.984 8  -3416124.31745  24791639.971    24791639.4054   24791651.0984
        -0.000          -0.000
 99  5 24 16 56 30.0000000  0  9 16  2  5  4  7 24  9  8 30         -0.000000023
  -2256376.908 8  -1627258.86545  24691091.568    24691090.6744   24691101.9924
        -0.000          -0.000
   8544327.650 8   6650910.61545  24480249.858    24480248.8264   24480263.8644
        -0.000          -0.000
 -10170740.909 9  -7889127.05248  21742093.792    21742093.0024   21742101.7834
        -0.000          -0.000
   -712019.809 9   -546380.24249  20475421.015    20475420.8414   20475428.3874
        -0.000          -0.000
   7325392.719 9   5701593.47446  23533020.748    23533019.7104   23533030.0354
        -0.000          -0.000
  -9113048.796 9  -7087960.99449  20496517.933    20496517.4664   20496526.2574
        -0.000          -0.000
    313025.265 9    339985.98448  21385935.946    21385935.4454   21385943.6874
        -0.000          -0.000
  -9442802.170 9  -7347141.02647  21746876.454    21746875.6214   21746884.8084
        -0.000          -0.000
  -6154036.753 8  -3454265.40245  24782325.565    24782325.0234   24782336.6264
        -0.000          -0.000
 99  5 24 16 56 45.0000000  0  9 16  2  5  4  7 24  9  8 30         -0.000000015
  -2248332.964 8  -1620990.84945  24692622.235    24692621.3244   24692632.6554
        -0.000          -0.000
   8589123.513 8   6685816.40645  24488774.301    24488773.3154   24488788.3894
        -0.000          -0.000
 -10206888.196 9  -7917293.75748  21735215.168    21735214.4044   21735223.1614
        -0.000          -0.000
   -694552.908 9   -532769.67449  20478744.831    20478744.6604   20478752.2054
        -0.000          -0.000
   7358629.686 9   5727492.38446  23539345.545    23539344.4914   23539354.8754
        -0.000          -0.000
  -9133700.609 9  -7104053.29849  20492588.007    20492587.5574   20492596.3364
        -0.000          -0.000
    333503.390 9    355942.94048  21389832.809    21389832.3174   21389840.5824
        -0.000          -0.000
  -9463641.055 9  -7363379.11147  21742910.974    21742910.1174   21742919.3124
        -0.000          -0.000
  -6202996.127 8  -3492415.48845  24773008.880    24773008.3044   24773019.8764
        -0.000          -0.000
 99  5 24 16 57  0.0000000  0  9 16  2  5  4  7 24  9  8 30         -0.000000010
  -2240176.320 8  -1614635.01145  24694174.363    24694173.4604   24694184.8434
        -0.000          -0.000
   8633955.436 8   6720750.27845  24497305.526    24497304.4994   24497319.8194
        -0.000          -0.000
 -10243002.438 9  -7945434.71148  21728342.899    21728342.1124   21728350.8684
        -0.000          -0.000
   -676979.296 9   -519075.95249  20482088.992    20482088.8354   20482096.3704
        -0.000          -0.000
   7391848.014 9   5753376.75746  23545666.784    23545665.7454   23545676.1194
        -0.000          -0.000
  -9154234.864 9  -7120053.99849  20488680.481    20488680.0124   20488688.7914
        -0.000          -0.000
    354091.303 9    371985.44948  21393750.571    21393750.0954   21393758.3794
        -0.000          -0.000
  -9484345.477 9  -7379512.42647  21738971.031    21738970.1744   21738979.4024
        -0.000          -0.000
  -6251979.782 8  -3530584.49645  24763687.559    24763687.0064   24763698.5904
        -0.000          -0.000
 99  5 24 16 57 15.0000000  0  9 16  2  5  4  7 24  9  8 30         -0.000000007
  -2231905.936 8  -1608190.54045  24695748.069    24695747.2704   24695758.7214
        -0.000          -0.000
   8678824.593 8   6755713.16245  24505843.892    24505842.9274   24505858.2984
        -0.000          -0.000
 -10279080.531 9  -7973547.49948  21721477.435    21721476.6654   21721485.4124
        -0.000          -0.000
   -659297.937 9   -505298.27249  20485453.664    20485453.5064   20485461.0314
        -0.000          -0.000
   7425049.867 9   5779248.31546  23551984.873    23551983.9014   23551994.1984
        -0.000          -0.000
  -9174649.825 9  -7135961.74549  20484795.617    20484795.1514   20484803.9264
        -0.000          -0.000
    374790.502 9    388114.67348  21397689.526    21397689.0484   21397697.3394
        -0.000          -0.000
  -9504912.268 9  -7395538.49747  21735057.315    21735056.4734   21735065.6974
        -0.000          -0.000
  -6300985.538 8  -3568770.74445  24754362.002    24754361.5124   24754373.0424
        -0.000          -0.000
 99  5 24 16 57 30.0000000  0  9 16  2  5  4  7 24  9  8 30         -0.000000004
  -2223512.789 8  -1601650.40045  24697345.180    24697344.3354   24697355.8404
        -0.000          -0.000
   8723734.368 8   6790707.71645  24514389.997    24514389.0414   24514404.3764
        -0.000          -0.000
 -10315115.776 9  -8001626.89548  21714620.149    21714619.3724   21714628.1034
        -0.000          -0.000
   -641500.184 9   -491429.89449  20488840.459    20488840.3114   20488847.8164
        -0.000          -0.000
   7458242.114 9   5805112.37046  23558301.189    23558300.1684   23558310.5304
        -0.000          -0.000
  -9194941.777 9  -7151773.63449  20480934.186    20480933.7154   20480942.4794
        -0.000          -0.000
    395607.325 9    404335.55348  21401650.892    21401650.3764   21401658.6874
        -0.000          -0.000
  -9525336.638 9  -7411453.58747  21731170.698    21731169.8544   21731179.0784
        -0.000          -0.000
  -6350007.579 8  -3606969.68145  24745033.344    24745032.9114   24745044.3664
        -0.000          -0.000
 99  5 24 16 57 45.0000000  0  9 16  2  5  4  7 24  9  8 30          0.000000001
  -2214991.363 8  -1595010.31345  24698966.727    24698965.9024   24698977.3294
        -0.000          -0.000
   8768687.833 8   6825736.30345  24522944.445    24522943.4194   24522958.7954
        -0.000          -0.000
 -10351103.043 9  -8029668.90648  21707771.979    21707771.2034   21707779.9594
        -0.000          -0.000
   -623575.815 9   -477462.85449  20492251.366    20492251.2204   20492258.7414
        -0.000          -0.000
   7491434.956 9   5830976.89346  23564617.569    23564616.5954   23564626.9194
        -0.000          -0.000
  -9215107.886 9  -7167487.47049  20477096.685    20477096.2314   20477104.9914
        -0.000          -0.000
    416545.155 9    420650.72348  21405635.239    21405634.7374   21405643.0564
        -0.000          -0.000
  -9545611.978 9  -7427252.55047  21727312.397    21727311.5454   21727320.7994
        -0.000          -0.000
  -6399042.914 8  -3645178.97645  24735702.154    24735701.7214   24735713.1994
        -0.000          -0.000
 99  5 24 16 58  0.0000000  0  9 16  2  5  4  7 24  9  8 30          0.000000007
  -2206345.909 8  -1588273.58045  24700611.925    24700611.0834   24700622.2814
        -0.000          -0.000
   8813682.862 8   6860797.28345  24531506.818    24531505.7514   24531521.1634
        -0.000          -0.000
 -10387041.219 9  -8057672.66448  21700933.148    21700932.3774   21700941.1394
        -0.000          -0.000
   -605520.505 9   -463393.78649  20495687.193    20495687.0414   20495694.5654
        -0.000          -0.000
   7524629.342 9   5856842.62446  23570934.281    23570933.3024   23570943.6624
        -0.000          -0.000
  -9235150.396 9  -7183104.99549  20473282.710    20473282.2424   20473291.0024
        -0.000          -0.000
    437605.057 9    437061.00948  21409642.798    21409642.3134   21409650.6484
        -0.000          -0.000
  -9565735.957 9  -7442933.57247  21723482.898    21723482.0764   21723491.3444
        -0.000          -0.000
  -6448093.916 8  -3683400.47945  24726367.945    24726367.5724   24726379.0354
        -0.000          -0.000
 99  5 24 16 58 15.0000000  0  9 16  2  5  4  7 24  9  8 30          0.000000006
  -2197580.502 8  -1581443.39645  24702279.938    24702278.9784   24702290.4084
        -0.000          -0.000
   8858715.411 8   6895887.50745  24540076.344    24540075.2594   24540090.6154
        -0.000          -0.000
 -10422931.980 9  -8085639.47948  21694103.375    21694102.6054   21694111.3394
        -0.000          -0.000
   -587331.240 9   -449220.33849  20499148.515    20499148.3654   20499155.8774
        -0.000          -0.000
   7557821.387 9   5882706.53146  23577250.551    23577249.5504   23577259.9334
        -0.000          -0.000
  -9255074.605 9  -7198630.33449  20469491.242    20469490.7864   20469499.5454
        -0.000          -0.000
    458784.090 9    453564.13148  21413673.041    21413672.5634   21413680.9184
        -0.000          -0.000
  -9585711.286 9  -7458498.76547  21719681.702    21719680.8784   21719690.1884
        -0.000          -0.000
  -6497165.986 8  -3721638.41145  24717029.757    24717029.2874   24717041.0104
        -0.000          -0.000
 99  5 24 16 58 30.0000000  0  9 16  2  5  4  7 24  9  8 30          0.000000001
  -2188685.713 8  -1574512.38845  24703972.600    24703971.6274   24703983.0834
        -0.000          -0.000
   8903795.789 8   6931015.01145  24548654.846    24548653.8414   24548669.1414
        -0.000          -0.000
 -10458768.384 9  -8113563.93548  21687283.935    21687283.1764   21687291.9024
        -0.000          -0.000
   -568997.419 9   -434934.24749  20502637.330    20502637.1704   20502644.6704
        -0.000          -0.000
   7591019.291 9   5908574.99446  23583567.898    23583566.9564   23583577.3534
        -0.000          -0.000
  -9274870.167 9  -7214055.43149  20465724.249    20465723.7844   20465732.5494
        -0.000          -0.000
    480088.927 9    470165.27448  21417727.256    21417726.7564   21417735.1264
        -0.000          -0.000
  -9605529.606 9  -7473941.61747  21715910.401    21715909.5694   21715918.8584
        -0.000          -0.000
  -6546250.100 8  -3759885.73245  24707689.339    24707688.9634   24707700.5914
        -0.000          -0.000
 99  5 24 16 58 45.0000000  0  9 16  2  5  4  7 24  9  8 30         -0.000000006
  -2179659.692 8  -1567479.11645  24705690.155    24705689.1284   24705700.5934
        -0.000          -0.000
   8948930.633 8   6966184.94045  24557243.783    24557242.7154   24557258.1634
        -0.000          -0.000
 -10494550.867 9  -8141446.37348  21680474.769    21680473.9804   21680482.7054
        -0.000          -0.000
   -550518.567 9   -420535.14749  20506153.754    20506153.6054   20506161.0784
        -0.000          -0.000
   7624227.382 9   5934451.39946  23589887.221    23589886.2814   23589896.6824
        -0.000          -0.000
  -9294534.189 9  -7229378.02649  20461982.290    20461981.8254   20461990.5924
        -0.000          -0.000
    501518.349 9    486863.50348  21421805.111    21421804.6034   21421812.9794
        -0.000          -0.000
  -9625191.386 9  -7489262.46447  21712168.902    21712168.0694   21712177.3274
        -0.000          -0.000
  -6595344.320 8  -3798140.92145  24698346.944    24698346.6804   24698358.1694
        -0.000          -0.000
 99  5 24 16 59  0.0000000  0  9 16  2  5  4  7 24  9  8 30         -0.000000015
  -2170503.820 8  -1560344.64645  24707432.475    24707431.4014   24707442.8454
        -0.000          -0.000
   8994123.776 8   7001400.28345  24565843.857    24565842.7504   24565858.2054
        -0.000          -0.000
 -10530277.104 9  -8169284.98448  21673676.279    21673675.4874   21673684.2054
        -0.000          -0.000
   -531890.335 9   -406019.64649  20509698.608    20509698.4514   20509705.9114
        -0.000          -0.000
   7657448.418 9   5960337.90146  23596208.959    23596208.0854   23596218.4254
        -0.000          -0.000
  -9314064.401 9  -7244596.35949  20458265.792    20458265.3284   20458274.0744
        -0.000          -0.000
    523075.555 9    503661.30148  21425907.302    21425906.8134   21425915.2154
        -0.000          -0.000
  -9644697.477 9  -7504462.01647  21708457.038    21708456.2084   21708465.4724
        -0.000          -0.000
  -6644446.616 8  -3836402.40245  24689003.003    24689002.8394   24689014.2824
        -0.000          -0.000
 99  5 24 16 59 15.0000000  0  9 16  2  5  4  7 24  9  8 30         -0.000000028
  -2161220.164 8  -1553110.59645  24709199.136    24709198.0874   24709209.4384
        -0.000          -0.000
   9039370.050 8   7036657.03045  24574454.047    24574452.9504   24574468.3654
        -0.000          -0.000
 -10565952.882 9  -8197084.27648  21666887.371    21666886.5774   21666895.2884
        -0.000          -0.000
   -513115.177 9   -391389.66249  20513271.442    20513271.2784   20513278.7314
        -0.000          -0.000
   7690677.992 9   5986231.04246  23602532.324    23602531.4574   23602541.8824
        -0.000          -0.000
  -9333466.394 9  -7259714.78149  20454573.733    20454573.2744   20454581.9974
        -0.000          -0.000
    544756.018 9    520555.13948  21430032.972    21430032.5074   21430040.8934
        -0.000          -0.000
  -9664050.578 9  -7519542.36047  21704774.255    21704773.4584   21704782.6904
        -0.000          -0.000
  -6693559.576 8  -3874672.19245  24679656.963    24679656.8404   24679668.2564
        -0.000          -0.000
 99  5 24 16 59 30.0000000  0  9 16  2  5  4  7 24  9  8 30         -0.000000036
  -2151789.280 8  -1545761.84645  24710993.819    24710992.8164   24711004.0474
        -0.000          -0.000
   9084682.862 8   7071965.64045  24583076.806    24583075.7514   24583091.2204
        -0.000          -0.000
 -10601569.774 9  -8224837.68248  21660109.713    21660108.9094   21660117.6284
        -0.000          -0.000
   -494180.173 9   -376635.12149  20516874.663    20516874.4834   20516881.9404
        -0.000          -0.000
   7723928.944 9   6012140.84046  23608859.764    23608858.9574   23608869.3974
        -0.000          -0.000
  -9352728.615 9  -7274724.29249  20450908.246    20450907.7714   20450916.4974
        -0.000          -0.000
    566571.918 9    537554.51948  21434184.429    21434183.9534   21434192.3554
        -0.000          -0.000
  -9683238.232 9  -7534493.77147  21701122.957    21701122.1664   21701131.3724
        -0.000          -0.000
  -6742669.060 9  -3912939.27045  24670311.623    24670311.4494   24670322.9734
        -0.000          -0.000
 99  5 24 16 59 45.0000000  0  9 16  2  5  4  7 24  9  8 30         -0.000000041
  -2142214.706 8  -1538301.12445  24712815.818    24712814.7444   24712825.8404
        -0.000          -0.000
   9130058.172 8   7107322.95745  24591711.452    24591710.4934   24591725.9904
        -0.000          -0.000
 -10637133.221 9  -8252549.44448  21653342.184    21653341.4034   21653350.0984
        -0.000          -0.000
   -475091.102 9   -361760.53049  20520507.184    20520507.0194   20520514.4784
        -0.000          -0.000
   7757196.450 9   6038063.54046  23615190.284    23615189.4854   23615199.9634
        -0.000          -0.000
  -9371852.677 9  -7289626.14349  20447269.071    20447268.6004   20447277.3064
        -0.000          -0.000
    588518.630 9    554655.83148  21438360.785    21438360.3024   21438368.6984
        -0.000          -0.000
  -9702263.630 9  -7549318.74847  21697502.578    21697501.7824   21697510.9614
        -0.000          -0.000
  -6791777.017 8  -3951205.16145  24660966.591    24660966.4084   24660978.0354
        -0.000          -0.000
 99  5 24 17  0  0.0000000  0  9 16  2  5  4  7 24  9  8 30         -0.000000048
  -2132507.329 8  -1530736.92345  24714663.076    24714662.0354   24714673.0704
        -0.000          -0.000
   9175486.892 8   7142721.89645  24600356.278    24600355.3974   24600370.8874
        -0.000          -0.000
 -10672652.173 9  -8280226.53748  21646583.135    21646582.3434   21646591.0634
        -0.000          -0.000
   -455860.986 9   -346776.03549  20524166.587    20524166.4154   20524173.8494
        -0.000          -0.000
   7790469.082 9   6063990.23846  23621521.769    23621521.0214   23621531.4894
        -0.000          -0.000
  -9390842.594 9  -7304423.46749  20443655.413    20443654.9424   20443663.6574
        -0.000          -0.000
    610587.215 9    571852.10348  21442560.297    21442559.7954   21442568.2404
        -0.000          -0.000
  -9721134.533 9  -7564023.34847  21693911.606    21693910.7784   21693919.9404
        -0.000          -0.000
  -6840892.553 9  -3989476.95945  24651620.154    24651619.9894   24651631.5664
        -0.000          -0.000
 99  5 24 17  0 15.0000000  0  9 16  2  5  4  7 24  9  8 30         -0.000000052
  -2122662.524 8  -1523065.63845  24716536.401    24716535.5584   24716546.3954
        -0.000          -0.000
   9220975.498 8   7178167.50345  24609012.493    24609011.6954   24609027.2404
        -0.000          -0.000
 -10708119.428 9  -8307863.34348  21639833.932    21639833.1554   21639841.8874
        -0.000          -0.000
   -436486.559 9   -331679.09249  20527853.448    20527853.2734   20527860.6554
        -0.000          -0.000
   7823751.590 9   6089924.62246  23627855.198    23627854.4274   23627864.9694
        -0.000          -0.000
  -9409690.561 9  -7319110.18149  20440068.757    20440068.2854   20440076.9874
        -0.000          -0.000
    632782.926 9    589147.43648  21446784.007    21446783.5314   21446791.9674
        -0.000          -0.000
  -9739848.800 9  -7578605.88547  21690350.395    21690349.5734   21690358.7024
        -0.000          -0.000
  -6890009.110 9  -4027749.54545  24642273.619    24642273.4194   24642284.8964
        -0.000          -0.000
 99  5 24 17  0 30.0000000  0  9 16  2  5  4  7 24  9  8 30         -0.000000054
  -2112681.084 8  -1515287.88245  24718435.827    24718434.9244   24718445.7344
        -0.000          -0.000
   9266524.068 8   7213659.81945  24617680.188    24617679.2854   24617694.9504
        -0.000          -0.000
 -10743539.293 9  -8335463.22448  21633093.741    21633092.9714   21633101.6854
        -0.000          -0.000
   -416975.346 9   -316475.55849  20531566.329    20531566.1524   20531573.5014
        -0.000          -0.000
   7857042.641 9   6115865.68146  23634190.229    23634189.4714   23634200.0364
        -0.000          -0.000
  -9428397.952 9  -7333687.35349  20436508.854    20436508.3604   20436517.0724
        -0.000          -0.000
    655101.262 9    606538.32848  21451031.087    21451030.6304   21451039.0594
        -0.000          -0.000
  -9758412.039 9  -7593070.74547  21686817.924    21686817.1094   21686826.2044
        -0.000          -0.000
  -6939127.322 9  -4066023.42445  24632926.746    24632926.5004   24632937.8644
        -0.000          -0.000
 99  5 24 17  0 45.0000000  0  9 16  2  5  4  7 24  9  8 30         -0.000000048
  -2102563.563 9  -1507404.08645  24720361.152    24720360.1214   24720370.9704
        -0.000          -0.000
   9312132.937 8   7249199.10145  24626359.398    24626358.4064   24626374.2124
        -0.000          -0.000
 -10778913.373 9  -8363027.42848  21626362.304    21626361.5024   21626370.2184
        -0.000          -0.000
   -397334.904 9   -301171.33049  20535303.759    20535303.5754   20535310.9524
        -0.000          -0.000
   7890341.527 9   6141812.83246  23640526.808    23640526.0244   23640536.6404
        -0.000          -0.000
  -9446965.659 9  -7348155.68549  20432975.542    20432975.0564   20432983.7554
        -0.000          -0.000
    677541.556 9    624024.24848  21455301.371    21455300.9044   21455309.3374
        -0.000          -0.000
  -9776827.282 9  -7607420.28147  21683313.637    21683312.8354   21683321.9464
        -0.000          -0.000
  -6988245.605 9  -4104297.36745  24623579.918    24623579.6314   24623590.9294
        -0.000          -0.000
 99  5 24 17  1  0.0000000  0  9 16  2  5  4  7 24  9  8 30         -0.000000040
  -2092319.019 8  -1499421.31545  24722310.677    24722309.7714   24722320.5574
        -0.000          -0.000
   9357789.711 8   7284775.72345  24635047.656    24635046.7214   24635062.5004
        -0.000          -0.000
 -10814248.987 9  -8390561.65848  21619638.171    21619637.3564   21619646.0414
        -0.000          -0.000
   -377573.106 9   -285772.53549  20539064.268    20539064.1124   20539071.5104
        -0.000          -0.000
   7923638.349 9   6167758.38146  23646863.012    23646862.1684   23646872.8354
        -0.000          -0.000
  -9465406.378 9  -7362525.05949  20429466.380    20429465.8954   20429474.5934
        -0.000          -0.000
    700098.248 9    641600.86448  21459593.782    21459593.3034   21459601.7534
        -0.000          -0.000
  -9795104.219 9  -7621662.04847  21679835.623    21679834.8034   21679843.9334
        -0.000          -0.000
  -7037373.746 9  -4142579.00145  24614231.158    24614230.7534   24614242.1364
        -0.000          -0.000
 99  5 24 17  1 15.0000000  0  9 16  2  5  4  7 24  9  8 30         -0.000000031
  -2081945.380 8  -1491337.95445  24724284.740    24724283.8154   24724294.5024
        -0.000          -0.000
   9403490.857 8   7320386.92845  24643744.271    24643743.4814   24643759.0964
        -0.000          -0.000
 -10849544.096 9  -8418064.32848  21612921.742    21612920.8974   21612929.5844
        -0.000          -0.000
   -357688.807 9   -270278.29249  20542848.141    20542847.9924   20542855.4114
        -0.000          -0.000
   7956932.504 9   6193701.85546  23653198.712    23653197.8424   23653208.5124
        -0.000          -0.000
  -9483720.159 9  -7376795.52649  20425981.348    20425980.8584   20425989.5684
        -0.000          -0.000
    722775.525 9    659271.44648  21463909.098    21463908.6154   21463917.0794
        -0.000          -0.000
  -9813241.888 9  -7635795.29347  21676384.094    21676383.3124   21676392.4374
        -0.000          -0.000
  -7086508.055 9  -4180865.42545  24604881.176    24604880.6864   24604892.1564
        -0.000          -0.000
 99  5 24 17  1 30.0000000  0  9 16  2  5  4  7 24  9  8 30         -0.000000023
  -2071447.482 8  -1483157.77845  24726282.400    24726281.4424   24726292.2344
        -0.000          -0.000
   9449230.554 8   7356028.16545  24652448.246    24652447.4754   24652463.1024
        -0.000          -0.000
 -10884803.776 9  -8445539.38948  21606212.007    21606211.1914   21606219.8714
        -0.000          -0.000
   -337692.026 9   -254696.39849  20546653.423    20546653.2684   20546660.6964
        -0.000          -0.000
   7990217.509 9   6219638.19646  23659532.631    23659531.7574   23659542.4404
        -0.000          -0.000
  -9501913.413 9  -7390972.07249  20422519.270    20422518.7844   20422527.5004
        -0.000          -0.000
    745564.573 9    677029.12048  21468245.710    21468245.2434   21468253.7204
        -0.000          -0.000
  -9831244.404 9  -7649823.22147  21672958.322    21672957.5344   21672966.6834
        -0.000          -0.000
  -7135652.757 9  -4219159.95845  24595529.233    24595528.8104   24595540.1874
        -0.000          -0.000
 99  5 24 17  1 45.0000000  0  9 16  2  5  4  7 24  9  8 30         -0.000000013
  -2060822.640 8  -1474878.67745  24728304.144    24728303.2124   24728314.0694
        -0.000          -0.000
   9495016.824 8   7391705.70245  24661161.186    24661160.3454   24661176.0554
        -0.000          -0.000
 -10920015.411 9  -8472977.02048  21599511.454    21599510.6504   21599519.3074
        -0.000          -0.000
   -317575.448 9   -239021.15549  20550481.481    20550481.3084   20550488.7604
        -0.000          -0.000
   8023500.719 9   6245573.13446  23665866.139    23665865.2534   23665876.0604
        -0.000          -0.000
  -9519976.110 9  -7405046.89149  20419082.048    20419081.5844   20419090.2834
        -0.000          -0.000
    768472.285 9    694879.25548  21472604.882    21472604.4154   21472612.9084
        -0.000          -0.000
  -9849105.329 9  -7663740.82147  21669559.532    21669558.7464   21669567.8454
        -0.000          -0.000
  -7184799.384 9  -4257455.98645  24586176.886    24586176.5054   24586187.8494
        -0.000          -0.000
 99  5 24 17  2  0.0000000  0  9 16  2  5  4  7 24  9  8 30         -0.000000108
  -2050069.407 8  -1466499.52545  24730350.374    24730349.5054   24730360.2544
        -0.000          -0.000
   9540852.995 8   7427422.13945  24669883.640    24669882.8354   24669898.3194
        -0.000          -0.000
 -10955170.359 9  -8500370.46848  21592821.680    21592820.8714   21592829.5094
        -0.000          -0.000
   -297332.038 9   -223247.08249  20554333.651    20554333.4814   20554340.9594
        -0.000          -0.000
   8056786.844 9   6271510.34646  23672200.269    23672199.3884   23672210.1574
        -0.000          -0.000
  -9537902.381 9  -7419015.40449  20415670.796    20415670.3064   20415678.9884
        -0.000          -0.000
    791502.049 9    712824.50248  21476987.318    21476986.8414   21476995.3484
        -0.000          -0.000
  -9866820.508 9  -7677544.85447  21666188.429    21666187.6014   21666196.7324
        -0.000          -0.000
  -7233942.758 9  -4295749.47445  24576825.158    24576824.7594   24576836.1154
        -0.000          -0.000
 99  5 24 17  2 15.0000000  0  9 16  2  5  4  7 24  9  8 30         -0.000000074
  -2039155.907 8  -1457995.50245  24732427.174    24732426.2984   24732437.0424
        -0.000          -0.000
   9586773.666 8   7463204.38945  24678622.144    24678621.1174   24678636.8114
        -0.000          -0.000
 -10990234.560 9  -8527693.21148  21586149.193    21586148.3514   21586157.0024
        -0.000          -0.000
   -276925.007 9   -207345.51249  20558216.986    20558216.8234   20558224.3134
        -0.000          -0.000
   8090111.771 9   6297477.79846  23678541.758    23678540.8674   23678551.7364
        -0.000          -0.000
  -9555662.675 9  -7432854.58449  20412291.143    20412290.6454   20412299.3174
        -0.000          -0.000
    814685.239 9    730889.29648  21481398.974    21481398.4974   21481406.9944
        -0.000          -0.000
  -9884360.236 9  -7691212.17447  21662850.721    21662849.8914   21662859.0274
        -0.000          -0.000
  -7283050.533 9  -4334015.23145  24567480.183    24567479.7184   24567491.2064
        -0.000          -0.000
 99  5 24 17  2 30.0000000  0  9 16  2  5  4  7 24  9  8 30         -0.000000053
  -2028137.006 8  -1449409.34345  24734524.024    24734523.0964   24734533.8634
        -0.000          -0.000
   9632721.766 8   7499008.02645  24687365.872    24687364.7134   24687380.5364
        -0.000          -0.000
 -11025268.165 9  -8554992.11148  21579482.510    21579481.6664   21579490.2864
        -0.000          -0.000
   -256411.195 9   -191360.74248  20562120.618    20562120.4604   20562127.9374
        -0.000          -0.000
   8123417.331 9   6323430.14646  23684879.630    23684878.7694   23684889.5644
        -0.000          -0.000
  -9573317.793 9  -7446611.81049  20408931.469    20408930.9714   20408939.6504
        -0.000          -0.000
    837961.282 9    749026.44148  21485828.272    21485827.8014   21485836.3114
        -0.000          -0.000
  -9901782.472 9  -7704787.93447  21659535.372    21659534.5264   21659543.7104
        -0.000          -0.000
  -7332179.174 9  -4372297.23145  24558131.250    24558130.8694   24558142.3214
        -0.000          -0.000
 99  5 24 17  2 45.0000000  0  9 16  2  5  4  7 24  9  8 30         -0.000000040
  -2017000.657 8  -1440731.67445  24736643.207    24736642.3094   24736652.7834
        -0.000          -0.000
   9678705.637 8   7534839.52945  24696116.329    24696115.2354   24696131.0834
        -0.000          -0.000
 -11060259.839 9  -8582258.33648  21572823.792    21572822.9554   21572831.5634
        -0.000          -0.000
   -235783.512 9   -175287.23548  20566045.931    20566045.7834   20566053.2414
        -0.000          -0.000
   8156711.025 9   6349373.26246  23691215.243    23691214.3734   23691225.2174
        -0.000          -0.000
  -9590858.963 9  -7460280.23849  20405593.480    20405592.9924   20405601.6894
        -0.000          -0.000
    861339.483 9    767243.19448  21490277.043    21490276.5714   21490285.0744
        -0.000          -0.000
  -9919075.682 9  -7718263.16247  21656244.625    21656243.7854   21656252.9594
        -0.000          -0.000
  -7381320.502 9  -4410589.13445  24548779.939    24548779.6244   24548791.0194
        -0.000          -0.000
 99  5 24 17  3  0.0000000  0  9 16  2  5  4  7 24  9  8 30         -0.000000025
  -2005730.916 8  -1431950.07645  24738787.769    24738786.8844   24738797.2074
        -0.000          -0.000
   9724740.964 8   7570711.14745  24704876.618    24704875.5704   24704891.3254
        -0.000          -0.000
 -11095190.127 9  -8609476.72648  21566176.757    21566175.9274   21566184.5704
        -0.000          -0.000
   -215022.304 9   -159109.68448  20569996.682    20569996.5384   20570003.9914
        -0.000          -0.000
   8190010.948 9   6375321.22446  23697552.032    23697551.1664   23697562.0504
        -0.000          -0.000
  -9608267.592 9  -7473845.39549  20402280.726    20402280.2454   20402288.9344
        -0.000          -0.000
    884839.521 9    785554.88848  21494748.996    21494748.5154   21494757.0234
        -0.000          -0.000
  -9936219.506 9  -7731621.98547  21652982.261    21652981.4234   21652990.6134
        -0.000          -0.000
  -7430456.963 9  -4448877.25245  24539429.575    24539429.1874   24539440.5704
        -0.000          -0.000
 99  5 24 17  3 15.0000000  0  9 16  2  5  4  7 24  9  8 30         -0.000000015
  -1994339.786 8  -1423073.86945  24740955.427    24740954.4754   24740964.7844
        -0.000          -0.000
   9770818.933 8   7606615.95945  24713645.077    24713644.0194   24713659.8704
        -0.000          -0.000
 -11130068.107 9  -8636654.36348  21559539.659    21559538.8524   21559547.4854
        -0.000          -0.000
   -194135.073 9   -142833.93848  20573971.404    20573971.2564   20573978.6764
        -0.000          -0.000
   8223305.706 9   6401265.16646  23703887.870    23703886.9704   23703897.8194
        -0.000          -0.000
  -9625551.069 9  -7487313.03349  20398991.789    20398991.3024   20398999.9644
        -0.000          -0.000
    908451.658 9    803953.92648  21499242.267    21499241.7944   21499250.3024
        -0.000          -0.000
  -9953221.609 9  -7744870.37847  21649746.862    21649746.0534   21649755.2194
        -0.000          -0.000
  -7479596.888 9  -4487168.06145  24530078.545    24530078.1804   24530089.4904
        -0.000          -0.000
 99  5 24 17  3 30.0000000  0  9 16  2  5  4  7 24  9  8 30         -0.000000013
  -1982830.832 8  -1414105.86245  24743145.479    24743144.5374   24743154.8354
        -0.000          -0.000
   9816940.129 8   7642554.45945  24722421.762    24722420.8434   24722436.6364
        -0.000          -0.000
 -11164895.911 9  -8663792.89548  21552912.120    21552911.3204   21552919.9544
        -0.000          -0.000
   -173126.725 9   -126463.80348  20577969.188    20577969.0184   20577976.4404
        -0.000          -0.000
   8256594.029 9   6427204.08846  23710222.485    23710221.6544   23710232.5774
        -0.000          -0.000
  -9642708.527 9  -7500682.46649  20395726.833    20395726.3334   20395734.9994
        -0.000          -0.000
    932169.412 9    822435.27548  21503755.639    21503755.1804   21503763.6624
        -0.000          -0.000
  -9970080.024 9  -7758006.80247  21646538.829    21646538.0234   21646547.1634
        -0.000          -0.000
  -7528742.448 9  -4525463.27045  24520726.426    24520726.1244   24520737.3744
        -0.000          -0.000
 99  5 24 17  3 45.0000000  0  9 16  2  5  4  7 24  9  8 30         -0.000000010
  -1971190.782 8  -1405035.68245  24745360.491    24745359.6444   24745369.9784
        -0.000          -0.000
   9863119.537 8   7678538.32345  24731209.531    24731208.6204   24731224.2444
        -0.000          -0.000
 -11199658.058 9  -8690880.26548  21546297.081    21546296.3094   21546304.9494
        -0.000          -0.000
   -151983.120 9   -109988.28148  20581992.694    20581992.5434   20581999.9654
        -0.000          -0.000
   8289891.599 9   6453150.23046  23716558.869    23716557.9994   23716568.9744
        -0.000          -0.000
  -9659725.689 9  -7513942.58249  20392488.554    20392488.0644   20392496.7174
        -0.000          -0.000
    956005.971 9    841009.18948  21508291.605    21508291.1404   21508299.6244
        -0.000          -0.000
  -9986778.852 9  -7771018.87747  21643361.179    21643360.3834   21643369.4914
        -0.000          -0.000
  -7577883.451 9  -4563754.92645  24511375.144    24511374.8894   24511386.0914
        -0.000          -0.000
 99  5 24 17  4  0.0000000  0  9 16  2  5  4  7 24  9  8 30         -0.000000012
  -1959426.620 8  -1395868.81645  24747599.110    24747598.2844   24747608.6784
        -0.000          -0.000
   9909348.414 8   7714560.72745  24740006.681    24740005.8804   24740021.5234
        -0.000          -0.000
 -11234362.782 9  -8717922.89048  21539692.984    21539692.2114   21539700.8504
        -0.000          -0.000
   -130709.383 9    -93411.35548  20586040.953    20586040.8104   20586048.2454
        -0.000          -0.000
   8323192.185 9   6479098.71146  23722895.774    23722894.8824   23722905.9044
        -0.000          -0.000
  -9676609.250 9  -7527098.59449  20389275.716    20389275.2384   20389283.9064
        -0.000          -0.000
    979957.368 9    859672.58848  21512849.430    21512848.9654   21512857.4694
        -0.000          -0.000
 -10003326.091 9  -7783912.82847  21640212.351    21640211.5434   21640220.6444
        -0.000          -0.000
  -7627029.556 9  -4602050.53545  24502022.882    24502022.6234   24502033.8174
        -0.000          -0.000
 99  5 24 17  4 15.0000000  0  9 16  2  5  4  7 24  9  8 30         -0.000000014
  -1947532.759 8  -1386600.88445  24749862.448    24749861.6874   24749872.1574
        -0.000          -0.000
   9955630.295 8   7750624.44945  24748813.900    24748813.0634   24748828.7274
        -0.000          -0.000
 -11269009.678 9  -8744920.45348  21533099.892    21533099.1264   21533107.7554
        -0.000          -0.000
   -109305.193 9    -76732.77848  20590114.051    20590113.9014   20590121.3504
        -0.000          -0.000
   8356499.807 9   6505052.66146  23729234.054    23729233.0644   23729244.1744
        -0.000          -0.000
  -9693358.305 9  -7540149.79849  20386088.469    20386087.9754   20386096.6194
        -0.000          -0.000
   1004027.068 9    878428.17448  21517429.762    21517429.2744   21517437.7844
        -0.000          -0.000
 -10019717.367 9  -7796685.24947  21637093.172    21637092.3334   21637101.4774
        -0.000          -0.000
  -7676179.940 9  -4640349.47545  24492669.796    24492669.5984   24492680.7974
        -0.000          -0.000
 99  5 24 17  4 30.0000000  0  9 16  2  5  4  7 24  9  8 30         -0.000000015
  -1935506.168 8  -1377229.50545  24752151.069    24752150.3734   24752160.7834
        -0.000          -0.000
  10001967.584 8   7786731.32445  24757631.671    24757630.6904   24757646.4414
        -0.000          -0.000
 -11303596.962 9  -8771871.57048  21526518.169    21526517.3924   21526526.0254
        -0.000          -0.000
    -87771.683 9    -59953.43048  20594211.742    20594211.5744   20594219.0384
        -0.000          -0.000
   8389814.327 9   6531012.01846  23735573.553    23735572.6054   23735583.6604
        -0.000          -0.000
  -9709970.902 9  -7553094.66649  20382927.214    20382926.7334   20382935.3594
        -0.000          -0.000
   1028218.387 9    897278.52948  21522033.193    21522032.7274   21522041.2504
        -0.000          -0.000
 -10035948.303 9  -7809332.73547  21634004.500    21634003.6814   21634012.8474
        -0.000          -0.000
  -7725333.198 8  -4678650.65245  24483316.175    24483315.9534   24483327.2464
        -0.000          -0.000
 99  5 24 17  4 45.0000000  0  9 16  2  5  4  7 24  9  8 30         -0.000000016
  -1923352.724 8  -1367759.28945  24754463.850    24754463.1324   24754473.5224
        -0.000          -0.000
  10048353.943 8   7822876.42545  24766458.703    24766457.7094   24766473.5674
        -0.000          -0.000
 -11338127.952 9  -8798778.82048  21519947.129    21519946.3414   21519954.9544
        -0.000          -0.000
    -66118.999 9    -43081.21748  20598332.123    20598331.9524   20598339.4404
        -0.000          -0.000
   8423129.138 9   6556971.57246  23741913.153    23741912.2464   23741923.2824
        -0.000          -0.000
  -9726449.497 9  -7565935.12449  20379791.457    20379790.9644   20379799.5944
        -0.000          -0.000
   1052528.431 9    916221.39148  21526659.259    21526658.7844   21526667.3334
        -0.000          -0.000
 -10052022.125 9  -7821857.79547  21630945.760    21630944.9484   21630954.0894
        -0.000          -0.000
  -7774494.310 9  -4716957.95045  24473961.061    24473960.8104   24473972.2414
        -0.000          -0.000
 99  5 24 17  5  0.0000000  0  9 16  2  5  4  7 24  9  8 30         -0.000000015
  -1911077.315 8  -1358194.05645  24756799.809    24756799.0154   24756809.4354
        -0.000          -0.000
  10094787.478 8   7859058.31345  24775294.713    24775293.7104   24775309.7004
        -0.000          -0.000
 -11372603.869 9  -8825643.15648  21513386.592    21513385.8034   21513394.3844
        -0.000          -0.000
    -44347.274 9    -26116.24848  20602475.124    20602474.9634   20602482.4674
        -0.000          -0.000
   8456445.821 9   6582932.60546  23748253.210    23748252.3164   23748263.3604
        -0.000          -0.000
  -9742793.564 9  -7578670.75049  20376681.236    20376680.7484   20376689.3844
        -0.000          -0.000
   1076959.634 9    935258.66748  21531308.388    21531307.9264   21531316.4824
        -0.000          -0.000
 -10067941.080 9  -7834262.17447  21627916.499    21627915.6854   21627924.8024
        -0.000          -0.000
  -7823662.851 9  -4755271.04345  24464604.505    24464604.2574   24464615.7874
        -0.000          -0.000
 99  5 24 17  5 15.0000000  0  9 16  2  5  4  7 24  9  8 30         -0.000000015
  -1898685.324 8  -1348537.96745  24759157.900    24759157.1024   24759167.6664
        -0.000          -0.000
  10141263.920 8   7895273.62945  24784138.920    24784138.0384   24784153.9454
        -0.000          -0.000
 -11407031.469 9  -8852469.83348  21506835.241    21506834.4284   21506843.0134
        -0.000          -0.000
    -22458.767 9     -9060.27248  20606640.368    20606640.2204   20606647.7244
        -0.000          -0.000
   8489758.889 9   6608890.80846  23754592.574    23754591.7184   23754602.6604
        -0.000          -0.000
  -9759008.170 9  -7591305.49149  20373595.682    20373595.2044   20373603.8354
        -0.000          -0.000
   1101506.756 9    954386.27148  21535979.559    21535979.0824   21535987.6524
        -0.000          -0.000
 -10083710.101 9  -7846549.72347  21624915.791    21624914.9634   21624924.0594
        -0.000          -0.000
  -7872842.564 8  -4793592.84445  24455245.840    24455245.6164   24455257.1854
        -0.000          -0.000
 99  5 24 17  5 30.0000000  0  9 16  2  5  4  7 24  9  8 30         -0.000000016
  -1886169.374 8  -1338785.28645  24761539.644    24761538.8634   24761549.4734
        -0.000          -0.000
  10187786.036 8   7931524.52145  24792991.802    24792990.8904   24793006.7694
        -0.000          -0.000
 -11441408.655 9  -8879257.24348  21500293.478    21500292.6774   21500301.2464
        -0.000          -0.000
      -449.640 9      8089.68248  20610828.564    20610828.4104   20610835.9404
        -0.000          -0.000
   8523071.039 9   6634848.30646  23760931.764    23760930.8604   23760941.7464
        -0.000          -0.000
  -9775091.348 9  -7603837.83249  20370535.143    20370534.6724   20370543.2914
        -0.000          -0.000
   1126169.498 9    973603.95748  21540672.723    21540672.2534   21540680.8474
        -0.000          -0.000
 -10099328.112 9  -7858719.60447  21621943.770    21621942.9404   21621952.0764
        -0.000          -0.000
  -7922033.888 9  -4831923.68245  24445884.941    24445884.8174   24445896.2574
        -0.000          -0.000
 99  5 24 17  5 45.0000000  0  9 16  2  5  4  7 24  9  8 30         -0.000000021
  -1873526.009 8  -1328933.32345  24763945.685    24763944.9384   24763955.6774
        -0.000          -0.000
  10234353.330 8   7967810.63045  24801853.320    24801852.4644   24801868.2554
        -0.000          -0.000
 -11475732.692 9  -8906003.22548  21493761.813    21493761.0094   21493769.5804
        -0.000          -0.000
     21680.743 9     25334.12948  20615039.861    20615039.7254   20615047.2364
        -0.000          -0.000
   8556384.200 9   6660806.58646  23767271.026    23767270.1514   23767281.1054
        -0.000          -0.000
  -9791044.150 9  -7616268.57749  20367499.410    20367498.9344   20367507.5554
        -0.000          -0.000
   1150948.005 9    992911.85648  21545387.947    21545387.4694   21545396.0694
        -0.000          -0.000
 -10114797.486 9  -7870773.65947  21619000.042    21618999.2184   21619008.3954
        -0.000          -0.000
  -7971237.863 8  -4870264.37945  24436521.585    24436521.3794   24436532.9214
        -0.000          -0.000
 99  5 24 17  6  0.0000000  0  9 16  2  5  4  7 24  9  8 30         -0.000000026
  -1860752.445 8  -1318979.91445  24766376.401    24766375.6154   24766386.5754
        -0.000          -0.000
  10280966.805 8   8004132.69845  24810723.651    24810722.8634   24810738.7224
        -0.000          -0.000
 -11510002.445 9  -8932706.90948  21487240.458    21487239.6544   21487248.2304
        -0.000          -0.000
     43936.054 9     42675.91948  20619274.950    20619274.8034   20619282.3044
        -0.000          -0.000
   8589696.518 9   6686764.20746  23773610.174    23773609.3124   23773620.2314
        -0.000          -0.000
  -9806864.880 9  -7628596.41049  20364488.846    20364488.3684   20364497.0004
        -0.000          -0.000
   1175846.091 9   1012312.93048  21550125.916    21550125.4194   21550134.0284
        -0.000          -0.000
 -10130122.297 9  -7882715.07847  21616083.785    21616082.9674   21616092.1434
        -0.000          -0.000
  -8020450.878 8  -4908612.13445  24427156.498    24427156.3624   24427167.8274
        -0.000          -0.000
 99  5 24 17  6 15.0000000  0  8 16  5  4  7 24  9  8 30            -0.000000028
  -1847841.120 8  -1308919.16145  24768833.316    24768832.6644   24768843.5944
        -0.000          -0.000
 -11544212.627 9  -8959364.17648  21480730.463    21480729.6404   21480738.2224
        -0.000          -0.000
     66322.053 9     60119.55048  20623534.850    20623534.7044   20623542.2114
        -0.000          -0.000
   8623013.999 9   6712725.85946  23779950.340    23779949.4834   23779960.4134
        -0.000          -0.000
  -9822545.125 9  -7640814.76749  20361504.979    20361504.4944   20361513.1174
        -0.000          -0.000
   1200869.940 9   1031812.00548  21554887.807    21554887.3224   21554895.9354
        -0.000          -0.000
 -10145296.534 9  -7894539.16247  21613196.289    21613195.4564   21613204.6144
        -0.000          -0.000
  -8069662.674 8  -4946958.93545  24417791.676    24417791.4564   24417802.9904
        -0.000          -0.000
 99  5 24 17  6 30.0000000  0  8 16  5  4  7 24  9  8 30            -0.000000031
  -1834799.729 8  -1298757.05545  24771315.033    24771314.3264   24771325.3104
        -0.000          -0.000
 -11578368.387 9  -8985979.03948  21474230.818    21474230.0104   21474238.5714
        -0.000          -0.000
     88830.888 9     77658.89448  20627818.160    20627818.0094   20627825.5334
        -0.000          -0.000
   8656326.922 9   6738683.94746  23786289.633    23786288.7654   23786299.7004
        -0.000          -0.000
  -9838090.332 9  -7652927.90349  20358546.813    20358546.3224   20358554.9694
        -0.000          -0.000
   1226011.103 9   1051402.49148  21559672.051    21559671.5704   21559680.1764
        -0.000          -0.000
 -10160326.738 9  -7906251.00747  21610336.194    21610335.3164   21610344.4604
        -0.000          -0.000
  -8118878.719 8  -4985309.04345  24408426.077    24408425.9284   24408437.4474
        -0.000          -0.000
 99  5 24 17  6 45.0000000  0  8 16  5  4  7 24  9  8 30            -0.000000031
  -1821623.211 8  -1288489.63545  24773822.454    24773821.6404   24773832.8084
        -0.000          -0.000
 -11612463.405 9  -9012546.56848  21467742.696    21467741.9024   21467750.4354
        -0.000          -0.000
    111470.071 9     95299.81248  20632126.248    20632126.0764   20632133.6244
        -0.000          -0.000
   8689641.556 9   6764643.37246  23792629.267    23792628.3564   23792639.2884
        -0.000          -0.000
  -9853492.580 9  -7664929.64549  20355615.857    20355615.3914   20355624.0144
        -0.000          -0.000
   1251276.149 9   1071089.51248  21564479.858    21564479.3814   21564487.9524
        -0.000          -0.000
 -10175207.459 9  -7917846.37447  21607504.479    21607503.5864   21607512.7454
        -0.000          -0.000
  -8168091.074 8  -5023656.29345  24399061.155    24399061.0924   24399072.5534
        -0.000          -0.000
 99  5 24 17  7  0.0000000  0  8 16  5  4  7 24  9  8 30            -0.000000034
  -1808319.051 8  -1278122.76045  24776354.192    24776353.3084   24776364.4634
        -0.000          -0.000
 -11646504.815 9  -9039072.32848  21461264.808    21461264.0364   21461272.5514
        -0.000          -0.000
    134233.554 9    113037.58848  20636457.969    20636457.8084   20636465.3584
        -0.000          -0.000
   8722951.946 9   6790599.49746  23798968.018    23798967.1484   23798978.1174
        -0.000          -0.000
  -9868759.739 9  -7676826.12249  20352710.621    20352710.1424   20352718.7734
        -0.000          -0.000
   1276657.640 9   1090867.27348  21569309.843    21569309.3584   21569317.9244
        -0.000          -0.000
 -10189945.207 9  -7929330.33947  21604699.926    21604699.0584   21604708.2504
        -0.000          -0.000
  -8217307.617 9  -5062006.82145  24389695.524    24389695.5254   24389706.8084
        -0.000          -0.000
 99  5 24 17  7 15.0000000  0  8 16  5  4  7 24  9  8 30            -0.000000035
  -1794876.270 8  -1267647.89445  24778912.236    24778911.4364   24778922.5314
        -0.000          -0.000
 -11680484.063 9  -9065549.64848  21454798.771    21454797.9734   21454806.4904
        -0.000          -0.000
    157131.739 9    130880.32148  20640815.331    20640815.1914   20640822.7504
        -0.000          -0.000
   8756266.538 9   6816558.87846  23805307.620    23805306.7994   23805317.6914
        -0.000          -0.000
  -9883882.953 9  -7688610.43649  20349832.785    20349832.2844   20349840.9084
        -0.000          -0.000
   1302161.645 9   1110740.48948  21574163.131    21574162.6484   21574171.2024
        -0.000          -0.000
 -10204527.224 9  -7940692.95447  21601925.042    21601924.1994   21601933.4254
        -0.000          -0.000
  -8266520.307 8  -5100354.31545  24380330.641    24380330.5794   24380341.9894
        -0.000          -0.000
 99  5 24 17  7 30.0000000  0  8 16  5  4  7 24  9  8 30            -0.000000044
  -1781300.417 8  -1257069.32145  24781495.589    24781494.7484   24781505.9134
        -0.000          -0.000
 -11714406.444 9  -9091982.66248  21448343.542    21448342.7514   21448351.2524
        -0.000          -0.000
    180157.133 9    148822.18048  20645196.919    20645196.7784   20645204.3304
        -0.000          -0.000
   8789576.753 9   6842514.87046  23811646.336    23811645.4714   23811656.4304
        -0.000          -0.000
  -9898870.118 9  -7700288.73549  20346980.793    20346980.2894   20346988.9204
        -0.000          -0.000
   1327777.404 9   1130700.79448  21579037.642    21579037.1634   21579045.7204
        -0.000          -0.000
 -10218958.905 9  -7951938.42547  21599178.767    21599177.9304   21599187.1594
        -0.000          -0.000
  -8315738.380 9  -5138706.01445  24370964.726    24370964.7414   24370976.0374
        -0.000          -0.000
 99  5 24 17  7 45.0000000  0  8 16  5  4  7 24  9  8 30            -0.000000053
  -1767585.637 8  -1246382.49245  24784105.410    24784104.6904   24784115.8514
        -0.000          -0.000
 -11748262.143 9  -9118363.71148  21441901.004    21441900.2114   21441908.7074
        -0.000          -0.000
    203317.214 9    166868.98848  20649604.151    20649603.9974   20649611.5294
        -0.000          -0.000
   8822895.053 9   6868477.15046  23817986.610    23817985.8014   23817996.7604
        -0.000          -0.000
  -9913710.538 9  -7711852.68849  20344156.731    20344156.2544   20344164.8874
        -0.000          -0.000
   1353512.564 9   1150754.13848  21583934.876    21583934.4034   21583942.9614
        -0.000          -0.000
 -10233230.193 9  -7963058.90447  21596463.067    21596462.2104   21596471.4224
        -0.000          -0.000
  -8364951.910 8  -5177054.18445  24361599.660    24361599.7064   24361610.9984
        -0.000          -0.000
 99  5 24 17  8  0.0000000  0  8 16  5  4  7 24  9  8 30            -0.000000059
  -1753739.403 8  -1235593.23845  24786740.228    24786739.6474   24786750.7014
        -0.000          -0.000
 -11782054.377 9  -9144695.30248  21435470.567    21435469.7634   21435478.2434
        -0.000          -0.000
    226606.706 9    185016.63948  20654035.999    20654035.8494   20654043.3794
        -0.000          -0.000
   8856218.547 9   6894443.48146  23824327.895    23824327.0714   23824337.9784
        -0.000          -0.000
  -9928406.170 9  -7723303.81749  20341360.247    20341359.7704   20341368.3824
        -0.000          -0.000
   1379366.634 9   1170900.13948  21588854.770    21588854.2974   21588862.8784
        -0.000          -0.000
 -10247343.067 9  -7974055.95047  21593777.482    21593776.6194   21593785.8084
        -0.000          -0.000
  -8414159.849 8  -5215397.98445  24352235.619    24352235.6594   24352246.9734
        -0.000          -0.000
